[[{"header":{"parameterUnit":"m.s-1","parameterCategory":1,"la1":30.6,"la2":29.2853,"lo1":-89.7004,"lo2":-87.6739,"dy":0.0162,"dx":0.0183,"nx":112,"ny":82,"refTime":"2026-05-10T12:00:00:Z","depth":0,"parameterNumber":2,"parameterNumberName":"U-component_of_WINDS"},"data":[0.0,0.0,0.0,0.0,0.0,0.0,0.0,0.0,0.0,0.0,0.0,0.0,0.0,0.0,0.0,0.0,0.0,0.0,0.0,0.0,0.0,0.0,0.0,0.0,0.0,0.0,0.0,0.0,0.0,0.0,0.0,0.0,0.0,0.0,0.0,0.0,0.0,0.0,0.0,0.0,0.0,0.0,0.0,0.0,0.0,0.0,0.0,0.0,0.0,0.0,0.0,0.0,0.0,0.0,0.0,0.0,0.0,0.0,0.0,0.0,0.0,0.0,0.0,0.0,0.0,0.0,0.0,0.0,0.0,0.0,0.0,0.0,0.0,0.0,0.0,0.0,0.0,0.0,0.0,0.0,0.0,0.0,0.0,0.0,0.0,0.0,0.0,0.0,0.0,0.0,0.3074,0.3454,0.3626,0.3387,0.2589,0.2524,0.3178,0.4704,0.0,0.0,0.0,0.0,0.0,0.0,0.0,0.0,0.0,0.0,0.0,0.0,0.0,0.0,0.0,0.0,0.0,0.0,0.0,0.0,0.0,0.0,0.0,0.0,0.0,0.0,0.0,0.0,0.0,0.0,0.0,0.0,0.0,0.0,0.0,0.0,0.0,0.0,0.0,0.0,0.0,0.0,0.0,0.0,0.0,0.0,0.0,0.0,0.0,0.0,0.0,0.0,0.0,0.0,0.0,0.0,0.0,0.0,0.0,0.0,0.0,0.0,0.0,0.0,0.0,0.0,0.0,0.0,0.0,0.0,0.0,0.0,0.0,0.0,0.0,0.0,0.0,0.0,0.0,0.0,0.0,0.0,0.0,0.0,0.0,0.0,0.0,0.0,0.0,0.0,0.0,0.0,0.0,0.0,0.0,0.0,0.0,0.0,0.0,0.0,0.0,0.0,0.0,0.0,0.4824,0.3626,0.4158,0.4544,0.4406,0.4386,0.4515,0.4793,0.0,0.0,0.0,0.0,0.0,0.0,0.0,0.0,0.0,0.0,0.0,0.0,0.0,0.0,0.0,0.0,0.0,0.0,0.0,0.0,0.0,0.0,0.0,0.0,0.0,0.0,0.0,0.0,0.0,0.0,0.0,0.0,0.0,0.0,0.0,0.0,0.0,0.0,0.0,0.0,0.0,0.0,0.0,0.0,0.0,0.0,0.0,0.0,0.0,0.0,0.0,0.0,0.0,0.0,0.0,0.0,0.0,0.0,0.0,0.0,0.0,0.0,0.0,0.0,0.0,0.0,0.0,0.0,0.0,0.0,0.0,0.0,0.0,0.0,0.0,0.0,0.0,0.0,0.0,0.0,0.0,0.0,0.0,0.0,0.0,0.0,0.0,0.0,0.0,0.0,0.0,0.0,0.0,0.0,0.0,0.0,0.0,0.0,0.0,0.0,0.0,0.0,0.0,0.5793,0.5396,0.4321,0.4564,0.4793,0.4793,0.4793,0.4961,0.531,0.3125,0.0,0.0,0.0,0.0,0.0,0.0,0.0,0.0,0.0,0.0,0.0,0.0,0.0,0.0,0.0,0.0,0.0,0.0,0.0,0.0,0.0,0.0,0.0,0.0,0.0,0.0,0.0,0.0,0.0,0.0,0.0,0.0,0.0,0.0,0.0,0.0,0.0,0.0,0.0,0.0,0.0,0.0,0.0,0.0,0.0,0.0,0.0,0.0,0.0,0.0,0.0,0.0,0.0,0.0,0.0,0.0,0.0,0.0,0.0,0.0,0.0,0.0,0.0,0.0,0.0,0.0,0.0,0.0,0.0,0.0,0.0,0.0,0.0,0.0,0.0,0.0,0.0,0.0,0.0,0.0,0.0,0.0,0.0,0.0,0.0,0.0,0.0,0.0,0.0,0.0,0.0,0.0,0.0,0.0,0.0,0.0,0.0,0.0,0.0,0.0,0.0,0.0,0.5814,0.5914,0.4902,0.4941,0.5039,0.5039,0.5039,0.5253,0.5774,0.3739,0.0,0.0,0.0,0.0,0.0,0.0,0.0,0.0,0.0,0.0,0.0,0.0,0.0,0.0,0.0,0.0,0.0,0.0,0.0,0.0,0.0,0.0,0.0,0.0,0.0,0.0,0.0,0.0,0.0,0.0,0.0,0.0,0.0,0.0,0.0,0.0,0.0,0.0,0.0,0.0,0.0,0.0,0.0,0.0,0.0,0.0,0.0,0.0,0.0,0.0,0.0,0.0,0.0,0.0,0.0,0.0,0.0,0.0,0.0,0.0,0.0,0.0,0.0,0.0,0.0,0.0,0.0,0.0,0.0,0.0,0.0,0.0,0.0,0.0,0.0,0.0,0.0,0.0,0.0,0.0,0.0,0.0,0.0,0.0,0.0,0.0,0.0,0.0,0.0,0.0,0.0,0.0,0.0,0.0,0.0,0.0,0.0,0.0,0.0,0.0,0.0,0.0,0.5829,0.6994,0.5001,0.5349,0.5737,0.5737,0.5737,0.5756,0.5793,0.3954,0.0,0.0,0.0,0.0,0.0,0.0,0.0,0.0,0.0,0.0,0.0,0.0,0.0,0.0,0.0,0.0,0.0,0.0,0.0,0.0,0.0,0.0,0.0,0.0,0.0,0.0,0.0,0.0,0.0,0.0,0.0,0.0,0.0,0.0,0.0,0.0,0.0,0.0,0.0,0.0,0.0,0.0,0.0,0.0,0.0,0.0,0.0,0.0,0.0,0.0,0.0,0.0,0.0,0.0,0.0,0.0,0.0,0.0,0.0,0.0,0.0,0.0,0.0,0.0,0.0,0.0,0.0,0.0,0.0,0.0,0.0,0.0,0.0,0.0,0.0,0.0,0.0,0.0,0.0,0.0,0.0,0.0,0.0,0.0,0.0,0.0,0.0,0.0,0.0,0.0,0.0,0.0,0.0,0.0,0.0,0.0,0.0,0.0,0.0,0.0,0.0,0.0,0.7122,0.7272,0.0,0.5652,0.5793,0.5793,0.5793,0.5276,0.4065,0.0,0.0,0.0,0.0,0.0,0.0,0.0,0.0,0.0,0.0,0.0,0.0,0.0,0.0,0.0,0.0,0.0,0.0,0.0,0.0,0.0,0.0,0.0,0.0,0.0,0.0,0.0,0.0,0.0,0.0,0.0,0.0,0.0,0.0,0.0,0.0,0.0,0.0,0.0,0.0,0.0,0.0,0.0,0.0,0.0,0.0,0.0,0.0,0.0,0.0,0.0,0.0,0.0,0.0,0.0,0.0,0.0,0.0,0.0,0.0,0.0,0.0,0.0,0.0,0.0,0.0,0.0,0.0,0.0,0.0,0.0,0.0,0.0,0.0,0.0,0.0,0.0,0.0,0.0,0.0,0.0,0.0,0.0,0.0,0.0,0.0,0.0,0.0,0.0,0.0,0.0,0.0,0.0,0.0,0.0,0.0,0.0,0.0,0.0,0.0,0.0,0.0,0.7555,0.7899,0.7363,0.0,0.5793,0.5793,0.5793,0.602,0.5224,0.3045,0.0,0.0,0.0,0.0,0.0,0.0,0.0,0.0,0.0,0.0,0.0,0.0,0.0,0.0,0.0,0.0,0.0,0.0,0.0,0.0,0.0,0.0,0.0,0.0,0.0,0.0,0.0,0.0,0.0,0.0,0.0,0.0,0.0,0.0,0.0,0.0,0.0,0.0,0.0,0.0,0.0,0.0,0.0,0.0,0.0,0.0,0.0,0.0,0.0,0.0,0.0,0.0,0.0,0.0,0.0,0.0,0.0,0.0,0.0,0.0,0.0,0.0,0.0,0.0,0.0,0.0,0.0,0.0,0.0,0.0,0.0,0.0,0.0,0.0,0.0,0.0,0.0,0.0,0.0,0.0,0.0,0.0,0.0,0.0,0.0,0.0,0.0,0.0,0.0,0.0,0.0,0.0,0.0,0.0,0.0,0.0,0.0,0.0,0.0,0.0,0.0,0.0,0.7555,0.7899,0.7363,0.5973,0.5811,0.5811,0.5811,0.647,0.575,0.0,0.0,0.0,0.0,0.0,0.0,0.0,0.0,0.0,0.0,0.0,0.0,0.0,0.0,0.0,0.0,0.0,0.0,0.0,0.0,0.0,0.0,0.0,0.0,0.0,0.0,0.0,0.0,0.0,0.0,0.0,0.0,0.0,0.0,0.0,0.0,0.0,0.0,0.0,0.0,0.0,0.0,0.0,0.0,0.0,0.0,0.0,0.0,0.0,0.0,0.0,0.0,0.0,0.0,0.0,0.0,0.0,0.0,0.0,0.0,0.0,0.0,0.0,0.0,0.0,0.0,0.0,0.0,0.0,0.0,0.0,0.0,0.0,0.0,0.0,0.0,0.0,0.0,0.0,0.0,0.0,0.0,0.0,0.0,0.0,0.0,0.0,0.0,0.0,0.0,0.0,0.0,0.0,0.0,0.0,0.0,0.0,0.0,0.0,0.0,0.0,0.0,0.0,0.7555,0.7899,0.7739,0.7332,0.6852,0.6574,0.6574,0.6295,0.5209,0.3045,0.0,0.0,0.0,0.0,0.0,0.0,0.0,0.0,0.0,0.0,0.0,0.0,0.0,0.0,0.0,0.0,0.0,0.0,0.0,0.0,0.0,0.0,0.0,0.0,0.0,0.0,0.0,0.0,0.0,0.0,0.0,0.0,0.0,0.0,0.0,0.0,0.0,0.0,0.0,0.0,0.0,0.0,0.0,0.0,0.0,0.0,0.0,0.0,0.0,0.0,0.0,0.0,0.0,0.0,0.0,0.0,0.0,0.0,0.0,0.0,0.0,0.0,0.0,0.0,0.0,0.0,0.0,0.0,0.0,0.0,0.0,0.0,0.0,0.0,0.0,0.0,0.0,0.0,0.0,0.0,0.0,0.0,0.0,0.0,0.0,0.0,0.0,0.0,0.0,0.0,0.0,0.0,0.0,0.0,0.0,0.0,0.0,0.0,0.0,0.0,0.0,0.0,0.6354,0.7355,0.7899,0.7899,0.753,0.7187,0.6911,0.6488,0.5286,0.3045,0.0,0.0,0.0,0.0,0.0,0.0,0.0,0.0,0.0,0.0,0.0,0.0,0.0,0.0,0.0,0.0,0.0,0.0,0.0,0.0,0.0,0.0,0.0,0.0,0.0,0.0,0.0,0.0,0.0,0.0,0.0,0.0,0.0,0.0,0.0,0.0,0.0,0.0,0.0,0.0,0.0,0.0,0.0,0.0,0.0,0.0,0.0,0.0,0.0,0.0,0.0,0.0,0.0,0.0,0.0,0.0,0.0,0.0,0.0,0.0,0.0,0.0,0.0,0.0,0.0,0.0,0.0,0.0,0.0,0.0,0.0,0.0,0.0,0.0,0.0,0.0,0.0,0.0,0.0,0.0,0.0,0.0,0.0,0.0,0.0,0.0,0.0,0.0,0.0,0.0,0.0,0.0,0.0,0.0,0.0,0.0,0.0,0.0,0.0,0.0,0.0,0.0,0.4561,0.6542,0.7899,0.7899,0.7899,0.7635,0.6944,0.6944,0.5838,0.3121,0.0,0.0,0.0,0.0,0.0,0.0,0.0,0.0,0.0,0.0,0.0,0.0,0.0,0.0,0.0,0.0,0.0,0.0,0.0,0.0,0.0,0.0,0.0,0.0,0.0,0.0,0.0,0.0,0.0,0.0,0.0,0.0,0.0,0.0,0.0,0.0,0.0,0.0,0.0,0.0,0.0,0.0,0.0,0.0,0.0,0.0,0.0,0.0,0.0,0.0,0.0,0.0,0.0,0.0,0.0,0.0,0.0,0.0,0.0,0.0,0.3853,0.0,0.0,0.0,0.0,0.0,0.0,0.0,0.0,0.0,0.0,0.0,0.0,0.0,0.0,0.0,0.0,0.0,0.0,0.0,0.0,0.0,0.0,0.0,0.0,0.0,0.0,0.0,0.0,0.0,0.0,0.0,0.0,0.0,0.0,0.0,0.0,0.0,0.0,0.0,0.0,0.0,0.4607,0.6542,0.7899,0.7899,0.7899,0.7635,0.6944,0.7376,0.6441,0.3481,0.3298,0.0,0.0,0.0,0.0,0.0,0.0,0.0,0.0,0.0,0.0,0.0,0.0,0.0,0.0,0.0,0.0,0.0,0.0,0.0,0.0,0.0,0.0,0.0,0.0,0.0,0.0,0.0,0.0,0.0,0.0,0.0,0.0,0.0,0.0,0.0,0.0,0.0,0.0,0.0,0.0,0.0,0.0,0.0,0.0,0.0,0.0,0.0,0.0,0.0,0.0,0.0,0.0,0.0,0.0,0.0,0.0,0.0,0.0,0.0,0.0,0.373,0.0,0.0,0.0,0.0,0.0,0.0,0.0,0.0,0.0,0.0,0.0,0.0,0.0,0.0,0.0,0.0,0.0,0.0,0.0,0.0,0.0,0.0,0.0,0.0,0.0,0.0,0.0,0.0,0.0,0.0,0.0,0.0,0.0,0.0,0.0,0.0,0.0,0.0,0.0,0.0,0.665,0.7812,0.8367,0.7941,0.8123,0.8039,0.7438,0.7694,0.6608,0.3589,0.3457,0.0,0.0,0.0,0.0,0.0,0.0,0.0,0.0,0.0,0.0,0.0,0.0,0.0,0.0,0.0,0.0,0.0,0.0,0.0,0.0,0.0,0.0,0.0,0.0,0.0,0.0,0.0,0.0,0.0,0.0,0.0,0.0,0.0,0.0,0.0,0.0,0.0,0.0,0.0,0.0,0.0,0.0,0.0,0.0,0.0,0.0,0.0,0.0,0.0,0.0,0.0,0.0,0.0,0.5411,0.524,0.4922,0.4922,0.4922,0.4922,0.4922,0.5333,0.5936,0.4938,0.0,0.0,0.0,0.0,0.0,0.0,0.0,0.0,0.0,0.0,0.0,0.0,0.0,0.0,0.0,0.0,0.0,0.0,0.0,0.0,0.0,0.0,0.0,0.0,0.9109,0.8505,0.0,0.0,0.0,0.0,0.0,0.0,0.0,0.0,0.0,0.0,0.0,0.0,0.8831,0.9189,0.8863,0.7998,0.8377,0.8479,0.7942,0.7899,0.6786,0.417,0.3747,0.3598,0.0,0.0,0.0,0.0,0.0,0.0,0.0,0.0,0.0,0.0,0.0,0.0,0.0,0.0,0.0,0.0,0.0,0.0,0.0,0.0,0.0,0.0,0.0,0.0,0.0,0.0,0.0,0.0,0.0,0.0,0.0,0.0,0.0,0.0,0.0,0.0,0.0,0.0,0.0,0.0,0.0,0.0,0.0,0.0,0.0,0.0,0.0,0.3641,0.3641,0.6023,0.741,0.7847,0.7847,0.7812,0.7755,0.7755,0.7755,0.7755,0.7755,0.0,0.9375,0.6284,0.0,0.0,0.0,0.0,0.0,0.0,0.0,0.0,0.0,0.0,0.0,0.0,0.0,0.0,0.0,0.0,0.0,0.0,0.0,0.0,0.0,0.0,0.9731,0.9218,0.9109,0.913,0.0,0.8796,0.8383,0.8363,0.6144,0.0,0.0,0.0,0.0,0.0,0.0,0.0,0.8831,0.9189,0.8863,0.7998,0.8377,0.8479,0.7942,0.7899,0.7489,0.6507,0.4646,0.3598,0.3598,0.3557,0.0,0.0,0.0,0.0,0.0,0.0,0.0,0.0,0.0,0.0,0.0,0.0,0.0,0.0,0.0,0.0,0.0,0.0,0.0,0.0,0.0,0.0,0.0,0.0,0.0,0.0,0.0,0.0,0.0,0.0,0.0712,0.2635,0.1173,0.0,0.0,0.0,0.0,0.0,0.0,0.0,0.0,0.0,0.0,0.1353,0.4849,0.603,0.4557,0.5728,0.6327,0.6327,0.6103,0.5988,0.5988,0.5988,0.5988,0.5988,0.5988,0.7631,1.0173,0.8652,0.7454,0.6212,0.0,0.0,0.0,0.0,0.4721,0.7612,0.6961,0.8256,0.0,1.02,0.0,0.0,0.0,0.0,0.0,0.0,0.0,0.0,0.0,0.0,1.0034,0.9735,0.9654,0.9701,0.9863,0.9677,0.935,0.0,0.795,0.7276,0.7639,0.0,0.0,0.0,0.0,0.7767,0.9033,0.9189,0.8863,0.7998,0.8109,0.815,0.7914,0.7899,0.765,0.7042,0.4865,0.3598,0.3598,0.3598,0.348,0.0,0.0,0.0,0.0,0.0,0.0,0.0,0.0,0.0,0.0,0.0,0.0,0.0,0.0,0.0,0.0,0.0,0.0,0.0,0.0,0.0,0.0,0.0,0.0,0.0,0.0,0.0,0.0,0.0,0.0942,0.3501,0.1558,0.0,0.0,0.0,0.0,0.0,0.0,0.0,0.1054,0.2209,0.2855,0.2855,0.601,0.6546,0.4122,0.4564,0.4793,0.4793,0.4492,0.435,0.435,0.4248,0.4207,0.4207,0.4207,0.5932,0.882,0.9866,1.0293,0.988,0.5681,0.3259,0.2427,0.5022,0.7777,1.0195,1.0195,1.0195,1.019,1.0205,0.0,1.0196,1.0186,0.0,0.0,0.0,0.0,1.0096,1.0096,1.0096,1.0096,1.0096,1.0078,1.0014,0.9925,0.9906,0.9759,0.0,0.9161,0.9314,0.9806,0.0,0.0,0.0,0.0,0.9313,0.9208,0.9189,0.8863,0.7998,0.7899,0.7957,0.8096,0.7985,0.7739,0.7377,0.4961,0.3566,0.3598,0.3598,0.348,0.3199,0.0,0.0,0.0,0.0,0.0,0.0,0.0,0.0,0.0,0.0,0.0,0.0,0.0,0.0,0.0,0.0,0.0,0.0,0.0,0.0,0.0,0.0,0.0,0.0,0.0,0.0,0.0,0.0,0.0,0.0231,0.0096,0.0,0.0,0.0,0.0,0.2164,0.2103,0.2586,0.3928,0.4063,0.4103,0.4103,0.469,0.4105,0.2252,0.3945,0.4793,0.4793,0.4773,0.4773,0.4753,0.437,0.4207,0.4207,0.4207,0.4321,0.4808,0.8703,1.0293,1.0273,0.998,0.9823,0.9765,0.9941,1.0089,1.0195,1.0195,1.0195,1.019,1.0205,1.0196,1.019,1.0113,0.9924,0.0,0.0,0.9971,1.0096,1.0096,1.0096,1.0096,1.0096,0.9998,0.9913,0.9906,0.9906,0.99,0.0,0.985,0.9857,0.99,0.0,0.5966,0.9083,0.9675,0.9638,0.9247,0.9189,0.8863,0.7998,0.7899,0.8109,0.862,0.8191,0.7941,0.8039,0.5135,0.3465,0.359,0.3598,0.348,0.3199,0.3199,0.0,0.0,0.0,0.0,0.0,0.0,0.0,0.0,0.0,0.0,0.0,0.0,0.0,0.0,0.0,0.0,0.0,0.0,0.0,0.0,0.0,0.0,0.0,0.0,0.0,0.0,0.0,0.0,0.3103,0.1347,0.0,0.1445,0.1428,0.2072,0.381,0.3889,0.2805,0.0469,0.0344,0.0344,0.0344,0.0469,0.0242,-0.0411,0.0221,0.0554,0.0554,0.0554,0.0554,0.0554,0.0407,0.0344,0.0323,0.0193,0.015,-0.0059,-0.2663,0.1814,1.0293,1.0292,1.031,1.0305,1.0305,1.0269,1.0195,1.0195,1.0195,0.9835,0.7639,0.8203,0.9765,0.9817,0.9961,1.0063,0.9935,1.142,1.3092,1.326,1.3322,1.3322,1.3322,1.319,1.304,1.304,1.304,1.304,1.304,1.134,0.9906,0.9906,0.8865,0.8445,0.9622,0.9801,0.9573,0.8968,0.9057,0.9071,0.8773,0.8224,0.7985,0.8164,0.8013,0.7768,0.747,0.4901,0.3419,0.3465,0.3465,0.3327,0.3017,0.3008,0.3051,0.0,0.0,0.0,0.0,0.0,0.0,0.0,0.0,0.0,0.0,0.0,0.0,0.0,0.0,0.0,0.0,0.0,0.0,0.0,0.0,0.0,0.0,0.0,0.0,0.0,0.0,0.0321,0.188,-0.0735,-0.1699,0.0742,0.0866,0.1276,0.2487,0.2574,0.1291,-0.1642,-0.1803,-0.1803,-0.1803,-0.1803,-0.1803,-0.1803,-0.1803,-0.1803,-0.1803,-0.1803,-0.1803,-0.1803,-0.1803,-0.1916,-0.2112,-0.2373,-0.248,-0.2788,-0.6984,-0.4045,0.3082,0.3082,0.3019,0.3677,0.9784,1.1986,1.1924,1.1924,1.1918,1.1541,0.9272,0.9715,1.0877,0.9588,1.0423,1.1798,1.1632,1.315,1.4865,1.4941,1.4972,1.4989,1.5081,1.5022,1.4965,1.4965,1.4965,1.4937,1.482,1.2147,0.9906,0.9906,0.9837,0.9801,0.9801,0.9801,0.954,0.8794,0.9001,0.9081,0.8796,0.8238,0.7899,0.7899,0.7694,0.7407,0.7058,0.4748,0.3344,0.3238,0.3229,0.3127,0.2894,0.2905,0.2578,0.1922,0.0,0.0,0.0,0.0,0.0,0.0,0.0,0.0,0.0,0.0,0.0,0.0,0.0,0.0,0.0,0.0,0.0,0.0,0.0,0.0,0.0,0.0,0.0,-0.3459,-0.3943,-0.4025,-0.4025,-0.6314,-0.6288,-0.2205,-0.1825,-0.1847,-0.1847,-0.1847,-0.1847,-0.1847,-0.1847,-0.1847,-0.1847,-0.1847,-0.1847,-0.1847,-0.1847,-0.1847,-0.1847,-0.1847,-0.1857,-0.1897,-0.1897,-0.2205,-0.2779,-0.3109,-0.3241,-0.3274,-0.3274,-0.6248,-1.0879,-1.1038,-1.1262,-0.9377,0.8119,1.4518,1.445,1.445,1.4833,1.5303,1.5303,1.4859,1.3602,0.9626,1.16,1.5183,1.5114,1.5082,1.5042,1.4773,1.4705,1.4772,1.5032,1.521,1.5303,1.5303,1.5283,1.5181,1.4867,1.2222,1.0051,1.0051,0.9911,0.9801,0.9801,0.9801,0.0,0.8794,0.899,0.8852,0.7998,0.7899,0.7885,0.787,0.7266,0.6868,0.6786,0.4695,0.3303,0.2924,0.2905,0.2905,0.2905,0.2905,0.1977,0.0087,0.0,0.0,0.0,0.0,0.0,0.0,0.0,0.0,0.0,0.0,0.0,0.0,0.0,0.0,0.0,0.0,0.0,0.0,0.0,0.0,0.0,-0.0985,-0.1778,-0.186,-0.4728,-0.6805,-0.6805,-0.745,-0.6288,-0.2205,-0.2415,-0.281,-0.281,-0.281,-0.281,-0.281,-0.281,-0.281,-0.281,-0.281,-0.281,-0.281,-0.281,-0.281,-0.281,-0.281,-0.3217,-0.3983,-0.3983,-0.4066,-0.4221,-0.4318,-0.4511,-0.473,-0.473,-0.4978,-0.574,-0.9604,-1.1262,-1.09,-0.5927,-0.4214,-0.4352,-0.4352,0.4286,1.5303,1.5303,1.5137,1.4746,1.3617,1.4174,1.5147,1.4875,1.496,1.5082,1.5015,1.4841,1.4793,1.516,1.5268,1.5303,1.5303,1.5114,1.4916,1.4821,1.4072,1.3453,1.3453,1.1431,0.9801,0.9801,0.9801,0.0,0.8794,0.8783,0.86,0.7971,0.7899,0.7709,0.7219,0.7009,0.6065,0.4125,0.4721,0.4475,0.2969,0.2905,0.2905,0.2905,0.2905,0.2632,0.0,0.0,0.0,0.0,0.0,0.0,0.0,0.0,0.0,0.0,0.0,0.0,0.0,0.0,0.0,0.0,0.0,0.0,0.0,0.0,0.0,0.0,-0.1795,-0.2558,-0.3016,-0.5104,-0.6916,-0.7797,-0.691,-0.5285,-0.2903,-0.2994,-0.302,-0.257,-0.4504,-0.498,-0.33,-0.2832,-0.2789,-0.3187,-0.4845,-0.4896,-0.3217,-0.6179,-0.6395,-0.3876,-0.3876,-0.4205,-0.4812,-0.4812,-0.4812,-0.4812,-0.4812,-0.4998,-0.5309,-0.5309,-0.4826,0.0,0.0,0.0,0.0,0.0,-1.1696,-1.1805,-1.1805,-0.4968,0.3754,0.3581,0.8822,1.5189,1.5189,1.5171,1.512,1.4929,1.4979,1.5092,1.5092,1.492,1.4807,1.5035,1.5086,1.5086,1.5086,1.4943,1.4794,1.4794,1.4794,0.0,1.4794,1.2028,0.9801,0.9801,0.9801,0.954,0.8794,0.8705,0.8492,0.7957,0.7899,0.75,0.651,0.6436,0.0,0.0,0.0,0.5287,0.4166,0.4109,0.0,0.0,0.0,0.0,0.0,0.0,0.0,0.0,0.2876,0.3072,0.0,0.0,0.0,0.0,0.0,0.0,0.0,0.0,0.0,0.0,0.0,0.0,0.0,0.0,0.0,0.0,-0.258,-0.3417,-0.5433,-0.5291,-0.5705,-0.768,-0.5556,-0.4047,-0.434,-0.409,-0.3512,-0.2568,-0.6678,-0.7681,-0.4101,0.0,0.0,0.0,0.0,-0.7713,-0.3427,-0.9691,-1.0167,-0.4806,-0.5535,-0.5859,-0.5825,-0.5825,-0.5449,-0.4812,-0.4812,-0.4998,-0.5309,-0.5309,-0.5571,-0.6309,-0.978,-1.1285,-1.1511,-1.1718,-1.1805,-1.1805,-1.1805,0.0,0.0,-1.2678,-0.1536,1.2447,1.4552,1.5146,1.5092,1.5092,1.5092,1.5092,1.5071,1.4928,1.4794,1.4794,1.4794,1.4794,1.4794,1.4794,1.4794,1.4794,1.4794,1.4794,1.4794,1.2319,1.0339,1.0339,1.0339,0.9949,0.884,0.8657,0.8428,0.7957,0.0,0.0,0.6027,0.5848,0.6075,0.6727,0.6153,0.5793,0.5793,0.5793,0.5793,0.5793,0.4098,0.3222,0.3222,0.4958,0.5793,0.5749,0.4021,0.3222,0.0,0.0,0.0,0.0,0.0,0.0,0.0,0.0,0.0,0.0,0.0,0.0,0.0,0.0,0.0,-0.251,-0.3698,-0.4728,-0.5174,-0.5686,-0.6524,-0.7897,-0.5696,-0.4908,-0.7083,-0.7884,-0.82,-0.7994,-0.8891,-0.9102,-0.8328,-0.8314,-0.7157,-0.4564,-1.0224,-1.0467,-0.4561,-0.5855,-0.5952,-0.4871,0.0,0.0,-1.2139,-1.2139,-0.9458,-0.4812,-0.4812,-0.4998,-0.5309,-0.5309,-0.7146,-1.0056,-1.1029,-1.1444,-1.1511,-1.1718,-1.1805,-1.1805,-1.1805,-1.197,-1.2257,-1.2678,-1.0343,-0.4564,1.0611,1.5146,0.0,1.5092,1.5092,1.5064,1.4902,1.4832,1.4794,1.4794,1.4794,1.4794,1.4794,1.4794,1.4794,1.4794,1.4794,1.4794,1.4794,1.4213,1.3754,1.3754,1.3754,1.2529,0.9143,0.8325,0.8012,0.7914,0.6888,0.6336,0.6659,0.6135,0.5867,0.6002,0.5874,0.5793,0.5793,0.5793,0.5793,0.5793,0.543,0.5232,0.5232,0.5606,0.5793,0.5782,0.5408,0.5232,0.0,0.0,0.0,0.0,0.0,0.0,0.0,0.0,0.0,0.0,0.0,-0.0194,-0.0835,0.0,-0.2598,-0.3678,-0.3853,-0.3853,-0.3853,-0.5501,-0.6432,-0.5733,-0.4732,-0.5165,-0.7847,-0.8953,-0.95,-0.95,-0.95,-0.95,-0.95,-0.9764,-0.9877,-0.9804,-0.9627,-0.962,-0.9807,-0.9807,-0.9807,-0.9851,-1.3024,-1.4307,-1.3888,-1.3888,-1.2243,-0.9186,-0.6118,-0.4998,-0.5309,-0.5309,-0.7586,-1.1132,-1.1399,-1.0524,-0.9357,-1.1148,-1.1869,-1.1991,-1.1991,-1.2091,-1.2257,-1.2678,-1.2811,-1.1084,-0.1776,0.7628,1.5092,1.5092,1.5092,1.5057,1.485,1.4794,1.4794,1.4794,1.4794,1.4794,1.4794,1.4794,1.4794,1.4794,1.4794,1.4785,1.4755,1.4724,1.4701,1.4701,1.3872,1.2139,0.9089,0.8232,0.7899,0.7899,0.6638,0.6111,0.6828,0.6224,0.5793,0.5793,0.5793,0.5793,0.5793,0.5793,0.5793,0.5793,0.5793,0.5793,0.5793,0.5793,0.5793,0.5793,0.5793,0.5793,0.0,0.0,0.0,0.0,0.0,0.0,0.0,0.0,0.3553,0.3304,0.1325,-0.0684,-0.1713,-0.2113,-0.2902,-0.4791,-0.3757,-0.2724,-0.2724,-0.4808,-0.5754,-0.4152,-0.4038,-0.494,-0.7107,-0.8007,-0.8707,-0.9332,-0.9385,-0.9385,-0.9385,-0.971,-1.1415,-1.4701,-0.9563,-0.934,-1.4747,-1.4794,-1.4794,-1.4794,-1.4794,-1.3866,-1.212,-1.212,-1.278,-1.3556,-0.7517,-0.5062,-0.5309,-0.5309,-0.7175,-1.0169,-1.1127,-0.9944,-0.796,-1.0128,-1.0917,-1.1085,-1.1903,-1.2236,-1.2379,-1.2681,-1.2811,-1.2848,-1.3048,-0.1024,1.3025,1.4649,1.5092,1.5057,1.485,1.4794,1.4642,1.392,1.4287,1.4794,1.4794,1.4794,1.4794,1.4794,1.4794,1.466,1.4198,1.4136,1.4136,1.4136,1.2799,1.1009,0.8837,0.8164,0.7899,0.7899,0.6638,0.6039,0.6642,0.6135,0.5793,0.5793,0.5793,0.5793,0.5793,0.5793,0.5793,0.5793,0.5793,0.5793,0.5793,0.5793,0.5793,0.5793,0.5793,0.5793,-0.2305,-0.1182,0.0,0.0,0.0,0.0,0.0,0.0,0.0181,-0.0953,-0.145,-0.1735,-0.1879,-0.2884,-0.3988,-0.4943,-0.3991,-0.3136,-0.3136,-0.3431,-0.4387,-0.6424,-0.5149,-0.4217,-0.451,-0.4638,-0.5881,-0.8753,-0.8968,-0.8968,-0.8968,-0.956,-1.1415,-1.4701,-1.4074,-1.4048,-1.4785,-1.4794,-1.4794,-1.4794,-1.4794,-1.1657,-0.5825,-0.5825,-0.8778,-1.3574,-0.7752,-0.5277,-0.5309,-0.5309,-0.5727,-0.6738,-1.0166,-1.1279,-1.0705,-0.8514,-0.7211,-0.7059,-1.0874,-1.2423,-1.2754,-1.2792,-1.2811,-1.2848,-1.3048,-0.506,0.5637,1.3014,1.5092,1.5057,1.485,1.4794,1.4005,1.084,1.249,1.4794,1.4794,1.4794,1.4794,1.4794,1.4794,1.424,1.2428,1.2112,1.2112,1.2112,1.193,1.0867,0.8318,0.7942,0.7899,0.7899,0.6638,0.583,0.5911,0.5848,0.5793,0.5793,0.5793,0.5793,0.5793,0.5793,0.5793,0.5793,0.5793,0.5793,0.5793,0.5793,0.5793,0.5793,0.5793,0.5793,-0.1373,-0.0557,0.0,0.0,-0.0762,-0.1514,-0.1514,-0.1514,-0.1667,-0.2198,-0.2309,-0.2309,-0.2309,-0.3562,-0.4706,0.0,-0.4032,-0.3216,-0.3254,-0.3357,-0.3844,-0.4941,-0.5699,-0.6216,-0.6407,-0.5026,-0.5424,-0.866,-0.8891,-0.8891,-0.8891,-0.9544,-1.1415,-1.4701,-1.4794,-1.4794,-1.4794,-1.4794,-1.4794,-1.4747,-1.0843,-0.7521,-0.4812,-0.4812,-0.671,-0.9863,-0.7453,-0.5983,-0.5309,-0.5498,-0.5905,-0.6543,-0.8136,-0.8759,-0.8634,-0.7598,-0.7077,-0.7414,-1.0962,-1.2463,-1.2811,-1.2811,-1.1205,-0.9777,-1.2329,-1.0003,-0.4496,0.5168,0.7721,0.7519,0.7439,0.9554,1.1332,0.9843,1.0634,1.1707,1.1707,1.1707,1.1707,1.1707,1.1707,1.1772,1.1993,1.2033,1.2033,1.2033,1.1891,1.0556,0.7109,0.7394,0.7576,0.6772,0.6141,0.5793,0.5793,0.5793,0.5793,0.5793,0.5793,0.5793,0.5793,0.5793,0.5793,0.5793,0.5793,0.5793,0.5793,0.5793,0.5793,0.5793,0.5406,0.5425,-0.0462,-0.0367,0.0,-0.0745,-0.1691,-0.2637,-0.2637,-0.2637,-0.2637,-0.2637,-0.2617,-0.2598,-0.2598,-0.359,-0.445,-0.4557,-0.3802,-0.3213,-0.3267,-0.4101,-0.4701,-0.4701,-0.6526,-0.7598,-0.7073,-0.5277,-0.5449,-0.866,-0.8891,-0.8891,-0.8891,-0.9544,-1.136,-1.4565,-1.4756,-1.4794,-1.4794,-1.4794,-1.4794,-1.4719,-0.8,-0.4812,-0.4812,-0.4812,-0.5484,-0.6678,-0.6678,-0.6344,-0.5828,-0.5811,-0.6183,-0.6811,-0.6811,-0.6842,-0.6954,-0.7235,-0.751,-0.7974,-0.9792,-1.0758,-1.1162,-1.1162,-0.9173,-0.7376,-1.0515,-1.1463,-0.9508,-0.0124,0.2314,0.2117,0.2117,0.4778,0.7463,0.7463,0.8508,0.9497,0.9497,0.9497,0.9497,0.9497,0.9497,1.0072,1.1891,1.221,1.221,1.221,1.1615,0.9892,0.6404,0.6822,0.7048,0.5929,0.5793,0.5737,0.5539,0.57,0.5718,0.5539,0.552,0.552,0.552,0.57,0.5718,0.552,0.5718,0.5718,0.552,0.5718,0.5793,0.5793,0.5117,0.5059,-0.0385,-0.1276,-0.2612,-0.2612,-0.2653,-0.2694,-0.2694,-0.2694,-0.2694,-0.2694,-0.2646,-0.2598,-0.2598,-0.2637,-0.2806,-0.3193,-0.3228,-0.3199,-0.3199,-0.5675,-0.7489,-0.7489,-0.795,-0.7237,0.0,-0.4239,-0.5496,-0.866,-0.8891,-0.8891,-0.8891,-0.9544,-1.1259,-1.421,-1.4616,-1.4794,-1.4794,-1.4794,-1.4794,-1.4719,-0.8,-0.4812,-0.4812,-0.4812,-0.4998,-0.5372,-0.5372,-0.6044,-0.7077,-0.6176,-0.6183,-0.6811,-0.6811,-0.6945,-0.7225,-0.7569,-0.7695,-0.7539,-0.6405,-0.6435,-0.6966,-0.6966,-0.6885,-0.6863,-0.7266,-0.7375,-0.6063,0.0326,0.2117,0.2117,0.2117,0.2211,0.2341,0.2341,0.601,0.9497,0.9497,0.9497,0.9497,0.9497,0.9497,1.0072,1.1891,1.221,1.221,1.221,1.0712,0.8766,0.6571,0.6313,0.6207,0.5848,0.5793,0.5539,0.4892,0.5425,0.552,0.4872,0.4832,0.4832,0.4832,0.5463,0.5501,0.4852,0.5463,0.5482,0.4832,0.5482,0.5793,0.5793,0.5117,0.4812,-0.1886,-0.2235,-0.2694,-0.2694,-0.2694,-0.2694,-0.2694,-0.2694,-0.2694,-0.2694,-0.2685,-0.2666,-0.2666,-0.2666,-0.2781,-0.3145,-0.3199,-0.3692,-0.506,-0.5083,-0.5526,-0.7088,-0.7797,0.0,0.0,0.0,0.0,-0.5896,-0.779,-0.9022,-0.9293,-0.9516,-1.1077,-1.4197,-1.4635,-1.4794,-1.4794,-1.4794,-1.4794,-1.4719,-0.8,-0.4812,-0.4812,-0.503,-0.5189,-0.5309,-0.5309,-0.5679,-0.6237,-0.5928,-0.6183,-0.6811,-0.6811,-0.6954,-0.7255,-0.7569,-0.7695,-0.7666,-0.7471,-0.7125,-0.6811,-0.6811,-0.6924,-0.7086,-0.7166,-0.7196,-0.6806,-0.4942,-0.125,0.2117,0.2117,0.2117,0.2117,0.2117,0.589,0.9497,0.9497,0.9497,0.9497,0.9497,0.9497,0.9684,1.031,1.0396,1.0396,1.0396,0.9905,0.8545,0.5858,0.5961,0.6183,0.5848,0.5793,0.552,0.4852,0.5,0.5039,0.4812,0.4793,0.4793,0.4793,0.502,0.502,0.4812,0.502,0.502,0.4812,0.6112,0.6723,0.6723,0.6497,0.6392,-0.3505,-0.3705,-0.3705,-0.3705,-0.3196,-0.2694,-0.2694,-0.2694,-0.2694,-0.2694,-0.2184,-0.1735,-0.1735,-0.2266,-0.2818,-0.3174,-0.3845,-0.488,-0.6526,-0.5661,-0.5413,-0.6931,-0.7695,-0.8094,0.0,0.0,0.0,-0.4578,-0.7232,-0.9022,-0.9284,-0.9421,-1.0973,-1.4203,-1.4515,-1.4687,-1.4794,-1.4794,-1.3603,-1.1171,-0.6874,-0.4812,-0.4812,-0.5157,-0.5309,-0.5309,-0.5309,-0.5277,-0.5271,-0.5404,-0.5967,-0.6811,-0.6811,-0.6954,-0.7255,-0.7569,-0.7549,-0.7401,-0.7637,-0.7312,-0.6811,-0.6924,-0.7065,-0.7196,-0.7196,-0.7196,-0.6776,-0.4753,-0.1154,0.2117,0.2117,0.2117,0.2117,0.2117,0.589,0.9378,0.896,0.9178,0.9497,0.9497,0.9151,0.8987,0.9432,0.9497,0.9497,0.9497,0.9124,0.8169,0.6271,0.5928,0.59,0.5966,0.5984,0.5659,0.4863,0.4793,0.4793,0.4793,0.4504,0.4483,0.4793,0.4793,0.4793,0.4793,0.5369,0.5662,0.5662,0.6694,0.7196,0.7196,0.7196,0.7196,-0.5075,-0.5511,-0.5492,-0.5492,-0.4088,-0.2694,-0.2694,-0.2694,-0.2674,-0.2582,-0.1265,-0.0143,0.0,0.0,-0.2826,-0.3238,-0.4901,-0.647,-0.7424,-0.7298,-0.7139,0.0,0.0,0.0,0.0,0.0,0.0,-0.4939,0.0,-0.8902,-0.8925,-0.9444,-1.1153,-1.4203,-1.4293,-1.4458,-1.4794,-1.4471,-1.1092,-0.4812,-0.4812,-0.4812,-0.4812,-0.5157,-0.5309,-0.5309,-0.5309,-0.4922,-0.4312,-0.4646,-0.5561,-0.669,-0.672,-0.6885,-0.7166,-0.748,-0.7154,-0.659,-0.659,-0.6681,-0.6863,-0.7116,-0.7196,-0.7196,-0.7196,-0.6952,-0.5476,0.0425,0.2117,0.2117,0.2117,0.2245,0.2374,0.2374,0.5988,0.9097,0.7957,0.86,0.9405,0.9405,0.8533,0.8148,0.9298,0.9497,0.9485,0.9417,0.8432,0.7695,0.7695,0.6256,0.5549,0.6372,0.6463,0.6019,0.4911,0.4885,0.4931,0.4931,0.4079,0.3994,0.489,0.4931,0.4931,0.4931,0.642,0.7196,0.7196,0.7196,0.7196,0.7196,0.7196,0.7196,-0.5606,-0.5625,-0.5492,-0.5492,-0.4088,-0.2694,-0.2694,-0.2694,-0.2317,-0.0969,-0.1388,-0.201,0.0,0.0,0.0,-0.3238,-0.3724,0.0,-0.6594,-0.7219,0.0,-0.7811,0.0,-0.8216,-0.8108,-0.8583,0.0,0.0,-0.8468,-0.9043,-0.934,-1.1726,-1.3443,-1.4257,-1.4293,-1.4458,-1.4794,-0.984,-0.6502,-0.4812,-0.4812,-0.4812,-0.4812,-0.5157,-0.5309,-0.5309,-0.5309,-0.4922,-0.4312,-0.4646,-0.4998,-0.5347,-0.5592,-0.5866,-0.6176,-0.6268,-0.5206,-0.3742,-0.3742,-0.5224,-0.7116,-0.7166,-0.7196,-0.7196,-0.7196,-0.376,0.0454,0.1731,0.2117,0.2117,0.2117,0.4183,0.6287,0.6287,0.7238,0.8062,0.7754,0.7947,0.8148,0.8148,0.8628,0.9124,0.9444,0.9497,0.9178,0.829,0.7899,0.7695,0.7695,0.7316,0.7447,0.8572,0.8681,0.7703,0.5234,0.5996,0.6584,0.6584,0.5502,0.5361,0.653,0.6584,0.6584,0.6584,0.6986,0.7196,0.7196,0.7196,0.7196,0.7196,0.7196,0.7196,-0.5793,-0.5718,-0.5422,-0.4569,-0.3523,-0.2694,-0.2694,-0.2694,-0.2184,-0.0378,-0.0806,0.0,-0.151,-0.151,0.0,0.0,0.0,0.0,-0.6823,-0.736,-0.7753,0.0,-0.8256,0.0,-0.8522,-0.8812,-0.9509,0.0,-0.9636,-0.9689,-1.1505,-1.3316,-1.4293,-1.4293,-1.4293,-1.2752,-0.9529,-0.5757,-0.3891,-0.3891,-0.4517,-0.4876,-0.503,-0.5214,-0.5309,-0.5277,0.0,-0.4634,-0.4312,-0.4646,-0.4812,-0.4844,-0.5157,-0.5498,-0.5679,-0.4776,-0.3719,-0.2716,-0.2878,-0.4023,-0.5442,-0.5442,-0.5442,-0.5442,-0.5442,-0.1742,0.238,0.215,0.2117,0.2117,0.2117,0.4872,0.7695,0.7695,0.7695,0.7695,0.7695,0.7695,0.787,0.8404,0.9042,0.9324,0.8795,0.8712,0.8488,0.7812,0.7695,0.7695,0.7695,0.7695,0.8176,0.9378,0.9015,0.8048,0.6372,0.6968,0.7353,0.7196,0.6014,0.5617,0.6344,0.6889,0.7196,0.7196,0.7196,0.6918,0.6374,0.6374,0.6648,0.7196,0.7196,0.7196,-0.583,-0.5793,-0.5386,-0.3668,-0.2969,-0.2713,-0.277,-0.2555,-0.1898,-0.0327,0.0,0.0,0.0,0.0,-0.0719,-0.294,0.0,-0.6553,-0.7472,-0.7605,-0.7783,-0.824,-0.8293,-0.8485,-0.8953,-0.9039,-1.0274,-1.3176,-1.1039,-1.0989,-1.4136,-1.4293,-1.4293,-1.4293,-1.3306,-0.9526,-0.2761,-0.2712,-0.2712,-0.2716,-0.4183,-0.503,-0.5309,-0.5309,-0.5182,-0.4992,-0.4505,0.0,-0.4377,-0.4678,-0.4812,-0.4902,-0.5189,-0.5498,-0.5554,-0.3458,-0.2712,-0.2746,-0.3076,-0.3208,-0.3208,-0.3208,-0.3208,-0.3105,-0.2633,-0.0332,0.2117,0.2117,0.2117,0.2211,0.2728,0.5253,0.7666,0.748,0.7451,0.7451,0.7451,0.7451,0.7763,0.8789,0.9139,0.8933,0.787,0.7695,0.7695,0.7695,0.7695,0.7695,0.7695,0.7841,0.829,0.9151,0.8319,0.7695,0.7695,0.7695,0.7569,0.7294,0.6044,0.5309,0.5309,0.6344,0.7038,0.7196,0.7047,0.6405,0.5309,0.5309,0.5859,0.6948,0.7136,0.7196,-0.5966,-0.5793,-0.5679,-0.5167,-0.3864,-0.2789,-0.3124,-0.1789,0.0,0.0,0.0,0.0,0.0,0.0,-0.0719,-0.294,-0.3859,-0.5061,-0.7286,-0.7605,-0.7783,0.0,-0.8293,-0.8332,-0.8434,-0.8738,0.0,0.0,0.0,-1.3635,-1.4275,-1.4293,-1.4293,-1.4293,-0.8056,-0.4073,-0.2712,-0.2712,-0.2712,-0.2712,-0.4403,-0.5246,-0.5309,-0.5309,-0.4666,-0.3597,-0.4086,0.0,-0.471,-0.4774,-0.4966,-0.5214,-0.5284,-0.5498,-0.5554,-0.3458,-0.2712,-0.2746,-0.3076,-0.3208,-0.3208,-0.3208,-0.3208,-0.2666,0.0299,0.1607,0.2117,0.2117,0.2117,0.2823,0.5907,0.7216,0.7421,0.639,0.6145,0.6145,0.6145,0.6145,0.6199,0.6397,0.7305,0.7957,0.7725,0.7695,0.7695,0.7695,0.7695,0.7695,0.7695,0.8572,0.8878,0.8091,0.7812,0.7695,0.7695,0.7695,0.7666,0.7608,0.6168,0.5309,0.5309,0.5522,0.6137,0.7166,0.616,0.5529,0.5309,0.5309,0.5404,0.5648,0.6708,0.7196,-0.5893,-0.5793,-0.5558,-0.459,-0.3686,-0.3008,-0.299,0.0,0.0,0.0,0.0,0.0,0.0,0.0,0.0,-0.294,-0.3589,-0.4232,-0.5447,-0.6972,0.0,-0.8176,-0.8203,-0.8306,0.0,-1.0209,0.0,0.0,0.0,-1.4293,-1.4293,-1.4293,-1.4229,-1.41,-0.7395,-0.3434,-0.2712,-0.2712,-0.2779,-0.2977,-0.3821,-0.421,-0.421,-0.421,-0.3216,-0.1636,-0.3482,0.0,-0.2685,-0.4366,-0.5157,-0.5309,-0.5498,-0.5011,-0.407,-0.3068,-0.2712,-0.2679,-0.2441,-0.2374,-0.2374,-0.2374,-0.1361,0.0166,0.1638,0.2117,0.2117,0.2117,0.2117,0.2951,0.6734,0.7205,0.6573,0.5936,0.5811,0.5811,0.5811,0.5811,0.5811,0.5811,0.6299,0.6725,0.6725,0.7273,0.7695,0.7695,0.7695,0.7451,0.6786,0.7227,0.7608,0.7695,0.7695,0.7695,0.7695,0.7695,0.7695,0.7695,0.636,0.5467,0.5316,0.5309,0.5585,0.6191,0.5617,0.5309,0.5309,0.5309,0.5309,0.5309,0.5921,0.6413,-0.5793,-0.5911,-0.5578,-0.3649,-0.3177,-0.2988,-0.2282,-0.1021,0.0,0.0,0.0,0.0,0.0,0.0,-0.0568,0.0,-0.2819,-0.2981,-0.2981,-0.6028,-0.8216,0.0,-0.8203,0.0,-0.8858,-1.1635,0.0,0.0,0.0,0.0,-1.4293,-1.3017,-1.2022,-1.1512,-0.6856,-0.3826,-0.2716,-0.2782,-0.2944,-0.3208,-0.3208,-0.3208,-0.3208,-0.3208,-0.2037,-0.0134,-0.2455,0.0,0.0,-0.3468,-0.452,-0.4515,-0.4555,-0.3593,-0.2245,-0.2245,-0.2344,-0.2377,-0.1809,-0.1203,-0.0667,-0.0667,0.0866,0.2613,0.2217,0.2117,0.2117,0.2117,0.2477,0.357,0.6532,0.6543,0.5811,0.5811,0.5811,0.5811,0.5811,0.6029,0.6021,0.546,0.5365,0.5522,0.6114,0.7026,0.7695,0.7695,0.7451,0.6936,0.5936,0.5811,0.6176,0.7175,0.7303,0.7392,0.7666,0.7451,0.7303,0.7303,0.636,0.5686,0.5404,0.534,0.5309,0.5309,0.5309,0.5309,0.5309,0.5309,0.5309,0.5309,0.5309,0.5529,-0.5756,-0.6295,-0.6158,-0.3439,-0.2761,-0.2322,-0.0634,0.0,0.0,0.0,0.0,0.0,0.0,0.0,-0.0063,-0.0265,0.0,-0.0349,-0.0349,-0.4826,-0.8108,-0.8094,0.0,0.0,-0.8891,0.0,0.0,0.0,0.0,0.0,-1.4293,-0.8818,-0.5061,-0.3774,-0.3173,-0.2845,-0.2712,-0.301,-0.3175,-0.3208,-0.3208,-0.3208,-0.3208,-0.3208,-0.2037,-0.0034,-0.0603,0.0,0.0,-0.1804,-0.1937,-0.1835,-0.0901,-0.0603,-0.0705,-0.0705,-0.1141,-0.1676,-0.1609,0.01,0.2308,0.2308,0.2477,0.2613,0.2217,0.2117,0.2117,0.2117,0.3704,0.5547,0.5897,0.5874,0.5811,0.5811,0.5811,0.5811,0.5811,0.6725,0.679,0.4371,0.3896,0.468,0.7107,0.7608,0.7695,0.7695,0.6725,0.5936,0.5811,0.5811,0.5842,0.5959,0.5967,0.6452,0.7608,0.6634,0.5967,0.5967,0.5874,0.578,0.5749,0.5467,0.5309,0.5309,0.5309,0.5309,0.5309,0.5309,0.5309,0.5309,0.5309,0.5157,-0.3912,-0.4137,-0.4102,-0.2979,-0.2694,-0.2571,-0.2092,0.0,0.0,0.0,0.0,0.0,0.0,0.0,0.0,0.0,0.0,-0.0538,-0.2065,-0.4258,-0.629,-0.7909,-0.8571,0.0,0.0,0.0,0.0,0.0,0.0,0.0,-0.8582,-0.6175,-0.4156,-0.2746,-0.2712,-0.2712,-0.2712,-0.3043,-0.3208,-0.3208,-0.3208,-0.3208,-0.3142,-0.1871,-0.0802,-0.0034,-0.037,0.0,0.0,-0.1609,-0.1709,-0.1778,-0.0503,-0.0202,-0.0504,-0.0504,-0.0973,-0.1609,-0.1609,0.0133,0.2347,0.2347,0.2347,0.2317,0.215,0.2117,0.2117,0.2117,0.3899,0.5811,0.5811,0.5811,0.5585,0.4724,0.4538,0.4538,0.4538,0.4935,0.4985,0.3896,0.4985,0.6449,0.751,0.6358,0.5581,0.6443,0.6114,0.5811,0.5811,0.5811,0.5811,0.5811,0.5811,0.599,0.6513,0.6083,0.5811,0.5811,0.5811,0.5811,0.5811,0.5686,0.5498,0.5316,0.5309,0.5309,0.5309,0.5309,0.5309,0.5309,0.5309,0.5125,-0.2732,-0.2694,-0.2732,-0.2844,-0.2882,-0.2781,-0.2409,-0.1123,0.0,0.0,0.0,0.0,0.0,0.0,0.0,0.0,0.0,-0.0625,-0.2429,-0.3418,-0.4704,0.0,0.0,0.0,0.0,0.0,0.0,0.0,0.0,0.0,-0.4812,-0.4415,-0.3728,-0.2746,-0.2712,-0.2746,-0.2845,-0.3076,-0.3208,-0.3208,-0.3208,-0.3307,-0.3434,-0.1068,-0.0067,-0.0168,-0.0638,0.0,0.0,-0.1609,-0.1542,-0.1375,-0.0134,0.0101,-0.0202,-0.0202,-0.0536,-0.0904,-0.0467,0.0734,0.2117,0.2117,0.2117,0.2117,0.2117,0.2117,0.2183,0.248,0.3844,0.5176,0.5176,0.5176,0.4915,0.3928,0.3705,0.3705,0.3705,0.3705,0.3705,0.3705,0.5237,0.651,0.651,0.5307,0.4666,0.5655,0.5811,0.5811,0.5811,0.5811,0.5811,0.5811,0.5811,0.5811,0.5811,0.5811,0.5811,0.5811,0.5811,0.5811,0.5811,0.5811,0.5686,0.5435,0.534,0.5309,0.5309,0.5309,0.5309,0.5309,0.5309,0.5125,-0.2807,-0.2694,-0.2788,-0.3203,-0.3298,-0.2719,-0.0529,-0.0013,0.0,0.0,0.0,0.0,0.0,0.0,0.0,0.0,0.0,-0.0015,-0.0029,-0.2104,0.0,0.0,0.0,-0.8891,0.0,0.0,0.0,0.0,0.0,0.0,-0.4812,-0.3467,-0.2716,-0.2712,-0.2712,-0.2845,-0.3175,-0.3208,-0.3208,-0.3208,-0.3208,-0.3569,-0.4183,-0.1298,-0.0168,0.0,0.0,0.0,0.0,-0.1609,-0.0972,0.0067,0.0808,0.0841,0.0504,0.0504,0.0471,0.0671,0.2145,0.2414,0.2117,0.2117,0.2117,0.2117,0.2117,0.2117,0.2314,0.3372,0.3705,0.3737,0.3737,0.3737,0.3705,0.3705,0.3705,0.3705,0.3705,0.3705,0.3705,0.3705,0.3737,0.3737,0.3737,0.489,0.578,0.5811,0.5811,0.5811,0.5811,0.5811,0.5811,0.5811,0.5811,0.5811,0.5811,0.5811,0.5811,0.5811,0.5811,0.5811,0.5811,0.5811,0.5811,0.578,0.5467,0.5309,0.5309,0.5309,0.5309,0.5309,0.5309,0.5125,-0.3071,-0.3115,-0.2778,-0.1393,-0.1047,-0.0858,-0.0164,0.0,0.0,0.0,0.0,0.0,0.0,0.0,0.0,0.0,0.0,0.0,0.0,0.0,0.0,-0.378,-0.5037,0.0,0.0,0.0,0.0,0.0,0.0,0.0,-0.3755,-0.2676,-0.2091,-0.2091,-0.2709,-0.3076,-0.3208,-0.2474,-0.2474,-0.3208,-0.3695,-0.4086,-0.421,-0.1565,-0.0403,0.0,0.0,0.0,0.0,-0.1845,-0.0601,0.141,0.1177,0.0841,0.0504,0.0504,0.1141,0.2075,0.2547,0.2447,0.2117,0.2117,0.2117,0.2117,0.2117,0.2117,0.2314,0.3405,0.3705,0.3705,0.3705,0.3705,0.3705,0.3705,0.3705,0.3705,0.3705,0.4441,0.4858,0.3896,0.4473,0.5144,0.5144,0.5491,0.546,0.4505,0.5176,0.5811,0.5811,0.5811,0.5811,0.5811,0.5811,0.5811,0.5811,0.5811,0.5811,0.5811,0.4884,0.4377,0.4377,0.4377,0.4242,0.4016,0.4858,0.5309,0.5309,0.5309,0.5309,0.5309,0.5309,0.5246,-0.1987,-0.2057,-0.1729,-0.0341,0.0,0.0,0.0,0.0,0.0,0.0,0.0,0.0,0.0,0.0,-0.03,-0.1213,-0.1363,0.0,0.0,0.0,0.0,-0.5473,0.0,0.0,0.0,0.0,0.0,0.0,0.0,0.0,-0.3846,-0.2609,-0.1916,-0.1916,-0.2491,-0.2906,-0.3208,-0.2139,-0.2009,-0.2779,-0.3266,-0.3257,-0.282,-0.1236,-0.0639,0.0,0.0,0.0,0.0,-0.0869,0.0367,0.168,0.1108,0.0706,0.0504,0.0504,0.1074,0.1942,0.2347,0.2317,0.2117,0.2117,0.2117,0.2183,0.258,0.2414,0.2314,0.3405,0.3705,0.3705,0.3705,0.3705,0.3705,0.3705,0.3705,0.3705,0.3705,0.4788,0.5529,0.4666,0.5207,0.5624,0.5106,0.5011,0.4884,0.4538,0.5239,0.5617,0.5081,0.546,0.5592,0.5081,0.5011,0.5239,0.5749,0.5811,0.5561,0.5042,0.4183,0.3705,0.3705,0.3705,0.3798,0.3988,0.4858,0.5309,0.5309,0.5309,0.5309,0.5309,0.5309,0.5309,0.0,0.0,0.0,0.0,0.0,0.0,0.0,0.0,0.0,0.0,0.0,0.0,0.0,0.0,-0.0736,-0.2985,-0.3489,0.0,0.0,-0.4099,0.0,0.0,0.0,0.0,0.0,0.0,0.0,0.0,0.0,0.0,-0.4678,-0.3047,-0.2124,-0.2176,-0.2103,-0.2381,-0.3068,-0.2109,-0.1778,-0.2117,-0.2117,-0.1577,-0.0504,-0.0538,-0.094,0.0,0.0,0.0,0.0,0.0936,0.1713,0.1076,0.0672,0.0504,0.0504,0.0605,0.0639,0.0772,0.1747,0.2117,0.2083,0.205,0.2047,0.2314,0.3372,0.301,0.2414,0.3405,0.3705,0.3705,0.3672,0.3672,0.3705,0.3672,0.3672,0.3672,0.3705,0.4788,0.5811,0.5811,0.5811,0.5397,0.4091,0.3863,0.428,0.5592,0.5718,0.5176,0.3863,0.4858,0.5144,0.3831,0.3705,0.4215,0.5522,0.5655,0.5081,0.377,0.3705,0.3705,0.3705,0.3705,0.4221,0.5284,0.5309,0.5309,0.5309,0.5309,0.5309,0.5309,0.5309,0.5309,0.0,0.0,0.0,0.0,0.0,0.0,0.0,0.0,0.0,0.0,0.0,0.0,0.0,0.0,-0.0191,-0.075,0.0,0.0,-0.3598,0.0,0.0,-0.9251,0.0,0.0,0.0,0.0,0.0,0.0,0.0,-0.4452,-0.3635,-0.2638,-0.2347,-0.291,-0.2157,-0.1807,-0.1973,-0.1978,-0.2014,-0.2117,-0.2417,-0.1842,-0.0504,-0.1074,-0.144,0.0,0.0,0.0,-0.1878,0.0936,0.1713,0.1076,0.0672,0.0504,0.0639,0.1776,0.1978,0.1747,0.2017,0.2117,0.2017,0.1512,0.168,0.2314,0.3372,0.3536,0.3372,0.3639,0.3705,0.3639,0.3372,0.3508,0.3639,0.3372,0.3311,0.3372,0.3639,0.4788,0.5811,0.5811,0.5811,0.5686,0.5365,0.5302,0.5428,0.5749,0.489,0.4058,0.3737,0.3993,0.4058,0.3737,0.3705,0.3836,0.4151,0.4188,0.4058,0.3737,0.3705,0.3705,0.3705,0.3705,0.4221,0.5284,0.5309,0.5309,0.5309,0.5309,0.5309,0.5309,0.5309,0.5309,0.0,0.0,0.0,0.0,0.0,0.0,0.0,0.0,0.0,0.0,0.0,-0.0341,-0.1445,-0.1649,-0.1649,0.0,-0.288,0.0,0.0,0.0,0.0,-0.9349,0.0,0.0,0.0,0.0,0.0,0.0,0.0,-0.3798,-0.3241,-0.2813,-0.2632,-0.2693,-0.1928,-0.1623,-0.1842,-0.2014,-0.2181,-0.238,-0.2583,-0.2109,-0.1007,-0.1408,-0.134,0.0,0.0,0.0,-0.0067,0.1139,0.1311,0.0808,0.0571,0.0906,0.1575,0.2211,0.2284,0.2117,0.2117,0.2117,0.1981,0.1311,0.1546,0.2314,0.3372,0.3607,0.3508,0.3672,0.3607,0.3438,0.3241,0.334,0.341,0.3241,0.3208,0.3307,0.3639,0.4788,0.5811,0.5811,0.5811,0.5811,0.5811,0.5811,0.5811,0.5811,0.5144,0.4441,0.377,0.3705,0.3705,0.3705,0.3705,0.3705,0.3705,0.3705,0.3705,0.3705,0.3705,0.3705,0.3705,0.4188,0.4704,0.5277,0.5309,0.5309,0.5309,0.5309,0.5309,0.5309,0.5309,0.5214,0.0,0.0,0.0,0.0,0.0,0.0,0.0,0.0,0.0,0.0,0.0,0.0,0.0,-0.3598,0.0,0.0,0.0,0.0,-0.8753,-0.9149,-0.9159,0.0,0.0,0.0,0.0,0.0,0.0,0.0,0.0,-0.3046,-0.3046,-0.3151,-0.2872,-0.2135,-0.1709,-0.1629,-0.1845,-0.1847,-0.2014,-0.2377,-0.2275,-0.1873,-0.1273,-0.134,-0.0871,0.0,0.0,0.0,0.1914,0.1278,0.0808,0.0504,0.0504,0.1408,0.2646,0.225,0.2117,0.2117,0.2117,0.2117,0.1981,0.1311,0.1646,0.2447,0.334,0.3475,0.334,0.3607,0.3475,0.3208,0.3208,0.3208,0.3208,0.3208,0.3241,0.334,0.3574,0.4756,0.5811,0.5811,0.5811,0.5811,0.5811,0.5811,0.5811,0.5811,0.5617,0.5049,0.3863,0.3705,0.3705,0.3705,0.3705,0.3705,0.3705,0.3705,0.3705,0.3705,0.3639,0.3639,0.3639,0.4698,0.5309,0.5309,0.5309,0.5309,0.5309,0.5309,0.5309,0.5309,0.5309,0.5157,0.0,0.0,0.0,0.0,0.0,0.0,0.0,0.0,0.0,0.0,0.0,0.0,0.0,-0.3598,-0.3764,0.0,0.0,-0.8744,0.0,0.0,0.0,0.0,0.0,0.0,0.0,0.0,0.0,0.0,0.0,-0.2263,-0.2263,-0.2854,-0.2867,-0.2136,-0.2039,-0.1588,-0.0738,-0.0738,-0.0772,-0.0839,-0.0268,0.0067,0.0168,-0.0101,-0.0168,0.0067,0.0,0.1579,0.1211,0.0773,0.0571,0.0504,0.0504,0.1408,0.2646,0.225,0.2117,0.2117,0.2117,0.2117,0.1981,0.1311,0.1978,0.3076,0.3241,0.3438,0.3639,0.3672,0.3475,0.3208,0.3208,0.3208,0.3208,0.3208,0.341,0.3574,0.334,0.459,0.5811,0.5811,0.5811,0.5811,0.5811,0.5811,0.5811,0.5811,0.4794,0.3928,0.3737,0.3705,0.3705,0.3705,0.3705,0.3705,0.3705,0.3705,0.3705,0.3705,0.3438,0.3274,0.3274,0.457,0.5309,0.5309,0.5309,0.5309,0.5309,0.5309,0.5309,0.5309,0.5309,0.5277,0.0,0.0,0.0,0.0,0.0,0.0,0.0,0.0,0.0,0.0,0.0,0.0,0.0,0.0,-0.4714,-0.6485,0.0,-0.9266,0.0,0.0,0.0,0.0,0.0,0.0,0.0,0.0,0.0,0.0,0.0,0.0,-0.21,-0.2175,-0.1841,-0.0991,-0.1103,-0.0974,-0.0504,-0.0134,-0.0336,-0.1074,0.0,0.0403,0.0235,0.0067,-0.0101,-0.0202,0.0,0.1075,0.0773,0.0571,0.0504,0.0504,0.0504,0.1274,0.235,0.2183,0.2117,0.2117,0.2117,0.1847,0.1512,0.1211,0.2042,0.3208,0.3208,0.3307,0.3438,0.3438,0.3311,0.3208,0.3208,0.3208,0.3208,0.3208,0.3891,0.4505,0.4377,0.5112,0.5811,0.5811,0.5811,0.5811,0.5811,0.5176,0.4666,0.4666,0.4118,0.3705,0.3705,0.3705,0.3705,0.3705,0.3705,0.3705,0.3705,0.3705,0.3607,0.3438,0.3274,0.3532,0.4307,0.4953,0.5309,0.5309,0.5309,0.5309,0.5309,0.5309,0.5309,0.5309,0.5309,0.5523,0.0,0.0,0.0,0.0,0.0,0.0,0.0,-0.0541,0.0,0.0,0.0,0.0,0.0,-0.0994,0.0,-0.6688,-0.7282,0.0,0.0,0.0,0.0,0.0,0.0,0.0,0.0,0.0,0.0,0.0,0.0,0.0,-0.1946,-0.1588,-0.0992,-0.0079,-0.028,-0.0479,-0.0649,-0.0196,-0.0369,-0.1104,-0.0101,0.0235,0.0,0.0,-0.0034,-0.0101,0.0303,0.0504,0.0504,0.0504,0.0504,0.0538,0.0772,0.1377,0.2117,0.2117,0.2117,0.2083,0.1916,0.1546,0.1143,0.1479,0.2311,0.3208,0.3208,0.3208,0.3208,0.3208,0.3208,0.3208,0.3208,0.3208,0.3208,0.3208,0.4016,0.4922,0.534,0.5372,0.5302,0.5302,0.5302,0.5302,0.5302,0.4409,0.3705,0.3705,0.3705,0.3705,0.3705,0.3705,0.3705,0.3705,0.3639,0.3705,0.4058,0.4091,0.3956,0.3695,0.3695,0.4178,0.5246,0.5309,0.5309,0.5309,0.5309,0.5309,0.5309,0.5309,0.5309,0.5309,0.5214,0.5634,0.0,0.0,0.0,0.0,0.0,0.0,0.0,-0.2165,0.0,-0.0575,0.0,0.0,0.0,-0.2488,-0.1885,-0.2083,-0.2245,0.0,0.0,0.0,0.0,0.0,0.0,0.0,0.0,0.0,0.0,0.0,0.0,0.0,-0.1477,-0.141,-0.1035,-0.0207,-0.0319,-0.0613,-0.1064,-0.1322,-0.0838,0.0336,0.0134,0.0034,0.0,0.0,0.037,0.0976,0.0639,0.0504,0.0504,0.0504,0.0504,0.0605,0.1611,0.2047,0.2117,0.2117,0.2117,0.2017,0.1378,0.1145,0.1311,0.261,0.3109,0.3208,0.3208,0.3208,0.3208,0.3208,0.3208,0.3208,0.3208,0.3208,0.3208,0.3208,0.3274,0.3788,0.5428,0.4762,0.3863,0.3863,0.3863,0.3863,0.3863,0.377,0.3705,0.3705,0.3705,0.3705,0.3705,0.3705,0.3705,0.3705,0.341,0.3761,0.5087,0.5182,0.5182,0.5151,0.5151,0.5182,0.5309,0.5309,0.5309,0.5309,0.5309,0.5309,0.5309,0.5309,0.5309,0.5277,0.4966,0.5383,0.0,0.0,0.0,0.0,0.0,0.0,0.0,-0.3628,-0.4118,-0.2968,-0.2592,0.0,0.0,0.0,-0.5037,-0.2082,-0.1402,0.0,0.0,0.0,0.0,0.0,0.0,0.0,0.0,0.0,0.0,0.0,0.0,0.0,-0.0987,-0.0854,-0.0634,-0.0329,-0.0648,-0.0918,-0.1094,-0.078,-0.0346,0.0187,0.0063,-0.0101,-0.0336,-0.0771,-0.0369,0.0706,0.0571,0.0504,0.0504,0.0504,0.0907,0.151,0.1479,0.1479,0.1479,0.1479,0.1479,0.1579,0.2178,0.2408,0.251,0.3043,0.3208,0.3208,0.3208,0.3208,0.3208,0.3208,0.3208,0.3208,0.3208,0.3208,0.3438,0.4312,0.3826,0.3368,0.4043,0.3923,0.3705,0.3705,0.3705,0.3705,0.3705,0.3705,0.3705,0.3705,0.3705,0.4026,0.4884,0.4826,0.4704,0.4704,0.457,0.473,0.5246,0.5309,0.5309,0.5309,0.5309,0.5309,0.5309,0.5309,0.5309,0.5309,0.5309,0.5309,0.5309,0.5309,0.5309,0.5297,0.5639,0.6027,0.0,0.0,0.0,0.0,0.0,0.0,-0.2767,-0.3522,-0.3522,-0.3522,-0.2762,0.0,0.0,0.0,0.0,0.0,0.0,0.0,0.0,0.0,0.0,0.0,0.0,0.0,0.0,0.0,0.0,0.0,0.0,0.0,0.0,-0.0434,-0.042,-0.0626,-0.0803,-0.0865,-0.0751,-0.0255,-0.0045,-0.0135,-0.015,-0.0269,-0.0504,-0.0804,-0.0402,0.0504,0.0504,0.0437,0.0336,0.0336,0.0906,0.1747,0.1278,0.111,0.111,0.111,0.111,0.1311,0.2709,0.3208,0.3208,0.3208,0.3208,0.3208,0.3208,0.3208,0.3208,0.3208,0.3208,0.3208,0.3208,0.3208,0.3434,0.4403,0.3891,0.3208,0.3208,0.3372,0.3574,0.3672,0.3705,0.3672,0.3574,0.3639,0.3705,0.3705,0.3705,0.4215,0.5624,0.5498,0.5309,0.5309,0.5309,0.5309,0.5309,0.5309,0.5309,0.5309,0.5309,0.5309,0.5309,0.5309,0.5309,0.5309,0.5309,0.5309,0.5309,0.5309,0.5471,0.5852,0.6225,0.6416,0.0,0.0,0.0,0.0,0.0,0.0,-0.067,-0.1604,-0.1604,-0.1604,0.0,-0.2747,-0.1365,0.0,0.0,-0.0976,0.0,0.0,0.0,0.0,0.0,0.0,0.0,0.0,0.0,0.0,0.0,0.0,0.0,0.0,0.0,-0.0275,-0.0483,-0.106,-0.0697,-0.0337,0.0,0.0,-0.0135,-0.0406,-0.0449,-0.0502,-0.0469,0.0201,0.0504,0.0504,0.0504,0.0303,0.0,0.0,0.0437,0.111,0.111,0.111,0.111,0.1111,0.1111,0.1311,0.2709,0.3208,0.3208,0.3208,0.3208,0.3208,0.3208,0.3208,0.3208,0.3208,0.3208,0.3208,0.3208,0.3208,0.3208,0.3208,0.3208,0.3208,0.3208,0.3208,0.3307,0.3639,0.3705,0.3607,0.3274,0.3508,0.3705,0.3705,0.3705,0.4215,0.5624,0.5498,0.5309,0.5309,0.5309,0.5309,0.5309,0.5309,0.5309,0.5309,0.5309,0.5309,0.5309,0.5309,0.5309,0.5309,0.5322,0.5329,0.5329,0.5329,0.5892,0.6979,0.6575,0.6416,0.0,0.0,0.0,0.2639,0.0,0.0,0.0,-0.1604,0.0,0.0,-0.1667,-0.167,-0.1492,0.0,0.0,0.0,0.0,0.0,0.0,0.0,0.0,0.0,0.0,0.0,0.0,0.0,0.0,0.0,0.0,0.0,0.0,-0.0625,-0.0582,-0.0067,-0.0122,-0.0095,0.0,-0.0192,-0.0315,-0.0405,-0.0049,-0.0232,-0.0879,0.0062,0.037,0.0134,0.0134,0.0101,0.0034,0.0571,0.0908,0.111,0.111,0.111,0.1211,0.2208,0.2577,0.2643,0.3043,0.3208,0.3208,0.3208,0.3208,0.3208,0.3208,0.3208,0.3208,0.3208,0.3208,0.3208,0.3208,0.3208,0.3208,0.3208,0.3208,0.3208,0.3208,0.3208,0.3307,0.3639,0.3705,0.3896,0.457,0.4762,0.4896,0.5144,0.4985,0.5049,0.5718,0.5498,0.5309,0.5309,0.5309,0.5309,0.5309,0.5309,0.5309,0.5309,0.5309,0.5309,0.5309,0.5309,0.5309,0.5309,0.6086,0.6506,0.6506,0.6506,0.6687,0.6979,0.6575,0.6416,0.0,0.0,0.0,0.1729,0.0709,-0.077,-0.1287,0.0,0.0,0.0,0.0,-0.1162,-0.1362,-0.1238,0.0,0.0,0.0,0.0,0.0,0.0,0.0,0.0,0.0,0.0,0.0,0.0,0.0,0.0,0.0,0.0,0.0,-0.0358,-0.0327,0.0224,0.009,-0.0045,-0.0157,-0.0315,-0.0292,-0.0067,0.0247,0.0022,-0.0631,0.0,0.0185,0.0034,0.0604,0.0839,0.0839,0.1043,0.111,0.111,0.111,0.1444,0.2045,0.2874,0.3208,0.3208,0.3208,0.3208,0.3208,0.3208,0.3208,0.3208,0.3208,0.3208,0.3208,0.3208,0.3208,0.3208,0.3208,0.3208,0.3208,0.3208,0.3208,0.334,0.3923,0.4048,0.4086,0.4285,0.4441,0.4698,0.5214,0.5404,0.5561,0.578,0.5529,0.5372,0.5561,0.5435,0.5309,0.5309,0.5309,0.5309,0.5309,0.5309,0.5309,0.5309,0.5309,0.5484,0.5952,0.5524,0.5498,0.5965,0.666,0.6979,0.6979,0.6979,0.6901,0.6738,0.6496,0.6416,0.0,0.0,0.0,-0.1337,-0.1583,0.0,-0.1173,-0.0582,-0.0289,-0.0959,0.0,-0.0996,-0.0996,-0.1019,-0.1039,0.0,0.0,0.0,0.0,0.0,0.0,0.0,0.0,0.0,0.0,0.0,0.0,0.0,0.0,0.0,0.0,0.0255,0.0123,0.0,-0.0022,-0.0157,-0.0405,-0.036,-0.009,0.0405,0.0382,0.0225,0.0,0.0,0.008,0.0269,0.1544,0.2047,0.1947,0.1345,0.111,0.111,0.111,0.1945,0.3208,0.3208,0.3208,0.3208,0.3208,0.3208,0.3208,0.3208,0.3208,0.3208,0.3208,0.3208,0.3208,0.3208,0.3208,0.3208,0.3208,0.3307,0.3405,0.3405,0.3405,0.3728,0.5023,0.5309,0.5309,0.5309,0.5561,0.5655,0.534,0.5592,0.578,0.5749,0.5498,0.5309,0.5309,0.5309,0.5309,0.5309,0.541,0.5438,0.5438,0.5438,0.5438,0.5438,0.5438,0.5912,0.6939,0.6005,0.5939,0.7001,0.6979,0.6979,0.6979,0.6979,0.6816,0.6453,0.641,0.6416,0.0,0.0,0.0,0.0,-0.1405,-0.1184,-0.1118,-0.0975,-0.0904,-0.1063,-0.0636,-0.0234,-0.0234,-0.0452,0.0,0.0,0.0,0.0,0.0,0.0,0.0,0.0,0.0,0.0,0.0,0.0,0.0,0.0,0.0,0.0,0.0403,0.0167,0.0021,0.0,-0.0202,-0.0337,-0.0405,0.0022,0.0292,0.0,0.018,0.0045,0.0,0.0,0.0609,0.1678,0.1981,0.1814,0.1311,0.1143,0.111,0.111,0.111,0.1945,0.3208,0.3208,0.3208,0.3208,0.3208,0.3208,0.3208,0.3208,0.3208,0.3208,0.3208,0.3208,0.3208,0.3208,0.3208,0.3208,0.3208,0.4021,0.4858,0.4858,0.4858,0.4922,0.5246,0.5309,0.5309,0.5309,0.5347,0.5379,0.5316,0.5592,0.5718,0.5435,0.534,0.5309,0.5309,0.5309,0.5309,0.5309,0.6099,0.6647,0.6647,0.6647,0.6647,0.6647,0.6647,0.676,0.7014,0.678,0.6767,0.6979,0.6979,0.6979,0.6979,0.6979,0.6937,0.6859,0.6538,0.6416,0.0,0.0,0.0,-0.0699,0.0,-0.0928,-0.064,-0.0846,-0.0996,-0.0645,-0.0268,-0.005,-0.0211,-0.0385,0.0,0.0,0.0,0.0,0.0,0.0,0.0,0.0,0.0,0.0,0.0,0.0,0.0,0.0,0.0,0.0337,0.0225,0.0067,0.0,0.0,-0.0471,-0.0493,-0.0022,0.027,0.0337,0.0202,0.0067,0.0224,0.065,0.0202,0.0768,0.2083,0.1747,0.1412,0.111,0.111,0.111,0.1177,0.1845,0.2543,0.3208,0.3208,0.3208,0.3208,0.3208,0.3208,0.3208,0.3208,0.3208,0.3208,0.3208,0.3208,0.3208,0.3208,0.3208,0.334,0.4016,0.4762,0.5309,0.5309,0.5309,0.5309,0.5309,0.5309,0.5309,0.5309,0.5309,0.5458,0.6019,0.582,0.5498,0.5309,0.5309,0.5309,0.5309,0.5309,0.5491,0.6052,0.666,0.6979,0.6979,0.6979,0.6979,0.6979,0.6979,0.6979,0.6979,0.6979,0.6979,0.6979,0.6979,0.6979,0.6979,0.6979,0.6901,0.6696,0.6696,0.6575,0.0,0.0,0.0,0.0,-0.0376,0.0,-0.0115,-0.0473,-0.0737,-0.0126,-0.0046,-0.0153,-0.0375,-0.0463,0.0,0.0,0.0,0.0,0.0,0.0,0.0,0.0,0.0,0.0,0.0,0.0,0.0,0.0,0.0,0.0157,-0.0067,-0.0067,-0.0112,-0.0179,-0.0604,-0.0447,0.0382,0.036,0.0225,0.0,0.0157,0.0586,0.1208,0.0459,0.08,0.1936,0.1356,0.111,0.1111,0.1378,0.1477,0.1577,0.2742,0.3208,0.3208,0.3208,0.3208,0.3208,0.3208,0.3208,0.3208,0.3208,0.3208,0.3208,0.3208,0.3208,0.3241,0.3504,0.3565,0.3826,0.4992,0.5309,0.5309,0.5309,0.5309,0.5309,0.5309,0.5309,0.5309,0.5309,0.5444,0.5885,0.6854,0.6219,0.5585,0.5585,0.5585,0.5585,0.5585,0.5585,0.5952,0.6879,0.6979,0.6979,0.6979,0.6979,0.6979,0.6979,0.6979,0.6979,0.6979,0.6979,0.7147,0.7474,0.7147,0.6979,0.7021,0.7314,0.7154,0.6538,0.7027,0.707,0.0,0.0,0.0,0.0,-0.0061,-0.0098,0.0,0.0,-0.0117,0.0,-0.0232,-0.036,-0.0113,-0.0306,0.0,0.0,0.0,0.0,0.0,0.0,0.0,0.0,0.0,0.0,0.0,0.0,0.0,0.0,-0.0022,-0.0315,-0.0337,-0.0337,-0.0539,-0.0938,-0.0201,0.0269,0.0405,0.018,0.0045,0.0,0.0828,0.0967,0.0542,0.0585,0.0919,0.148,0.1202,0.111,0.1211,0.2411,0.2907,0.2944,0.3142,0.3208,0.3208,0.3208,0.3208,0.3208,0.3208,0.3208,0.3208,0.3208,0.3208,0.3208,0.3208,0.3208,0.3471,0.4666,0.5023,0.5055,0.5246,0.5309,0.5309,0.5309,0.5309,0.5309,0.5309,0.5309,0.5309,0.5309,0.6099,0.684,0.6952,0.6894,0.6787,0.6787,0.6787,0.6787,0.6787,0.6787,0.6847,0.7001,0.6979,0.6979,0.6979,0.6979,0.6979,0.6979,0.6979,0.6979,0.6979,0.6979,0.7724,0.9306,0.7807,0.6979,0.7021,0.8553,0.8513,0.6943,0.7821,0.8167,0.0,0.0,0.0,0.0,0.0,0.0,0.0,0.0,0.0,0.0,-0.0119,-0.0149,0.0073,0.0,0.0,0.0,0.0,0.0,0.0,0.0,0.0,0.0,0.0,0.0,0.0,0.0,0.0,0.0,-0.027,-0.0516,-0.0784,-0.0247,-0.0045,-0.0246,0.0179,0.0368,0.0291,0.0097,0.0128,0.0405,0.0808,0.085,0.0564,0.0651,0.0809,0.0996,0.0909,0.1397,0.2311,0.2944,0.2942,0.2624,0.3054,0.3208,0.3208,0.3208,0.3208,0.3208,0.3208,0.3208,0.3208,0.3208,0.3208,0.3208,0.3208,0.3761,0.4505,0.5119,0.5309,0.5431,0.6086,0.6259,0.6259,0.6259,0.6259,0.6259,0.6259,0.6259,0.6259,0.6259,0.6667,0.6979,0.6979,0.6979,0.6979,0.6979,0.6979,0.6979,0.6979,0.6979,0.6979,0.6979,0.6979,0.6979,0.6979,0.7931,0.8513,0.8513,0.8513,0.8513,0.8513,0.8513,0.8886,0.9683,0.8926,0.8513,0.8513,0.9306,0.9306,0.8513,0.8447,0.8414,0.0,0.0,0.0,0.0,0.0,0.0,0.0,0.0,0.0,0.0,0.0,0.0067,0.0283,0.0,0.0,0.0,0.0,0.0,0.0,0.0,0.0,0.0,0.0,0.0,0.0,0.0,0.0,0.0,-0.0492,-0.0627,-0.0715,0.0,0.0405,0.0405,0.0337,0.0257,0.0155,0.0168,0.0354,0.0698,0.0698,0.0698,0.0698,0.0698,0.0665,0.0631,0.0929,0.176,0.2922,0.3135,0.2866,0.2398,0.2716,0.2983,0.3208,0.3208,0.3208,0.3208,0.3208,0.3208,0.3274,0.363,0.3728,0.3728,0.3728,0.4473,0.5309,0.5309,0.5309,0.5551,0.672,0.6979,0.6979,0.6979,0.6979,0.6979,0.6979,0.6979,0.6979,0.6979,0.6979,0.6979,0.6979,0.6979,0.6979,0.6979,0.6979,0.6979,0.6979,0.6979,0.6979,0.6979,0.6979,0.7189,0.7648,0.8935,0.9683,0.9683,0.9683,0.9683,0.9683,0.9683,0.9683,0.9683,0.9683,0.9683,0.9683,0.9683,0.9683,0.9683,0.857,0.8036,0.0,0.0,0.0,0.0,0.0,0.0,0.0,0.0,0.0,0.0,0.0,0.0138,0.0589,0.0,0.0,0.0,0.0,0.0,0.0,0.0,0.0,0.0,0.0,0.0,0.0,0.0,0.0,0.0,-0.0732,-0.0648,0.0269,0.0382,0.0405,0.0405,0.0157,0.0022,0.0,0.0438,0.0685,0.0698,0.0698,0.0698,0.0698,0.0698,0.0594,0.0473,0.1559,0.2075,0.2207,0.2902,0.3188,0.3059,0.2215,0.2419,0.3208,0.3208,0.3208,0.3208,0.3208,0.3208,0.3405,0.4762,0.5182,0.5182,0.5182,0.5246,0.5309,0.5309,0.5309,0.5551,0.672,0.6979,0.6979,0.6979,0.6979,0.6979,0.6979,0.6979,0.6979,0.6979,0.6979,0.6979,0.6979,0.6979,0.6979,0.6979,0.6979,0.6979,0.6979,0.6979,0.6979,0.6979,0.6979,0.769,0.9435,0.9643,0.9683,0.9683,0.9683,0.9683,0.9683,0.9683,0.9683,0.9683,0.9683,0.9683,0.9683,0.9683,0.9683,0.9643,0.7897,0.7063,0.0,0.0,0.0,0.0,0.0,0.0,0.0,0.0,0.0,0.0,0.0,0.0145,0.0618,0.0706,0.0,0.0,0.0,0.0,0.0,0.0,0.0,0.0,0.0,0.0,0.0,0.0,0.0,0.0,0.0,-0.0106,0.0259,0.0198,0.0139,0.0134,0.0045,0.008,0.0259,0.0542,0.0698,0.0696,0.0561,0.0502,0.0517,0.082,0.0916,0.0896,0.1737,0.21,0.212,0.2395,0.2769,0.3151,0.2593,0.2582,0.2911,0.3109,0.3208,0.3208,0.3208,0.3208,0.3434,0.4858,0.5309,0.5252,0.503,0.4966,0.503,0.5246,0.5309,0.5551,0.672,0.6979,0.6979,0.6979,0.6979,0.6979,0.6979,0.6979,0.6979,0.6979,0.6979,0.6979,0.6979,0.6979,0.6979,0.6979,0.6979,0.6979,0.6979,0.6979,0.744,0.8594,0.8724,0.9016,0.9643,0.9683,0.9683,0.9683,0.9683,0.9177,0.8021,0.7979,0.7979,0.7979,0.7979,0.8553,0.9683,0.8513,0.7979,0.7931,0.7314,0.6979,0.0,0.0,0.0,0.0,0.0,0.0,0.0,0.0,0.0,0.0,0.0197,0.0467,0.0777,0.0704,0.0,0.0,0.0,0.0,0.0,0.0,0.0,0.0,0.0,0.0,0.0,0.0,0.0,0.0,0.0,0.0,0.0133,0.0044,0.0,0.0,-0.0085,0.006,0.0496,0.0559,0.0598,0.0597,0.0462,0.0401,0.0413,0.0889,0.1223,0.1454,0.1917,0.21,0.21,0.21,0.2346,0.2723,0.2698,0.2712,0.2712,0.2944,0.334,0.3765,0.3858,0.3891,0.4048,0.4992,0.5017,0.4712,0.4791,0.4549,0.4415,0.5119,0.5564,0.6045,0.682,0.6979,0.6979,0.6979,0.6979,0.6979,0.6979,0.6979,0.6979,0.6979,0.6979,0.6979,0.6979,0.6979,0.6979,0.6979,0.7516,0.7682,0.7063,0.6979,0.7474,0.8683,0.8805,0.8805,0.8805,0.8805,0.8805,0.8805,0.8805,0.8267,0.7063,0.6979,0.7214,0.7615,0.7622,0.8206,0.9374,0.7774,0.6979,0.6979,0.6979,0.6943,0.0,0.0,0.0,0.0,0.0,0.0,0.0,0.0,0.0,0.0,0.0586,0.1097,0.1097,0.072,0.0,0.0,0.0,0.0,0.0,0.0,0.0,0.0,0.0,0.0,0.0,0.0,0.0,0.0,0.02,0.0133,0.0011,0.0,0.0,0.0,-0.0259,-0.0045,0.0698,0.0493,0.0401,0.0401,0.0401,0.0413,0.0435,0.0889,0.1458,0.21,0.208,0.208,0.21,0.21,0.1986,0.1864,0.2476,0.2712,0.2712,0.2712,0.3565,0.478,0.5119,0.5246,0.5239,0.5206,0.4429,0.3628,0.449,0.4026,0.3467,0.489,0.6099,0.6981,0.6972,0.6979,0.6979,0.6979,0.6979,0.6979,0.6979,0.6979,0.6979,0.6979,0.6979,0.6979,0.6979,0.6979,0.6979,0.6979,0.8513,0.8975,0.7231,0.6979,0.6979,0.6979,0.6979,0.6979,0.6979,0.6979,0.6979,0.6979,0.6979,0.7034,0.7074,0.7074,0.7622,0.8784,0.8804,0.8804,0.8804,0.7642,0.7074,0.7074,0.7074,0.6911,0.0,0.0,0.0,0.0,0.0,0.0,0.0,0.0,0.0,0.0,0.0586,0.1097,0.1097,0.0914,0.0648,0.0,0.0,0.0,0.0,0.0,0.0,0.0,0.0,0.0,0.0,0.0,0.0,0.0,0.0111,0.0044,0.0,0.0,0.0,0.0,-0.0259,-0.0045,0.0698,0.0493,0.0401,0.0401,0.0401,0.0579,0.0911,0.1042,0.1458,0.2072,0.1592,0.1572,0.1872,0.1872,0.185,0.1864,0.2476,0.2712,0.2712,0.2712,0.2944,0.3335,0.3663,0.3793,0.3692,0.3161,0.2946,0.2974,0.3208,0.3072,0.3171,0.4826,0.5511,0.5952,0.6807,0.6979,0.6979,0.6979,0.6979,0.6979,0.6979,0.6979,0.6979,0.6979,0.6979,0.6979,0.6979,0.6979,0.6979,0.6979,0.744,0.7558,0.7063,0.6979,0.6979,0.6979,0.6979,0.6979,0.6979,0.6979,0.6979,0.6979,0.6979,0.7408,0.8277,0.831,0.847,0.8798,0.8804,0.8804,0.8804,0.8477,0.831,0.8317,0.9151,0.9494,0.0,0.0,0.0,0.0,0.0,0.0,0.0,0.0,0.0,0.0,0.0339,0.0718,0.0973,0.0906,0.0729,0.0,0.0,0.0,0.0,0.0,0.0,0.0,0.0,0.0,0.0,0.02,0.0178,0.0122,0.0044,0.0,0.0,0.0,0.0095,0.0285,0.0141,0.027,0.0698,0.0579,0.0524,0.0524,0.0917,0.1101,0.1109,0.1391,0.1728,0.2076,0.168,0.1486,0.1432,0.1432,0.1432,0.1518,0.2379,0.2712,0.2712,0.2712,0.2712,0.2746,0.3076,0.3208,0.3107,0.2529,0.2338,0.2467,0.3338,0.3658,0.4011,0.5017,0.5631,0.6159,0.6847,0.6979,0.6979,0.6979,0.6979,0.6979,0.6979,0.6979,0.6979,0.6979,0.6979,0.6979,0.6979,0.6979,0.6979,0.6979,0.6979,0.6979,0.6979,0.6979,0.6979,0.6979,0.6979,0.6979,0.6979,0.6979,0.7235,0.7736,0.7762,0.8076,0.8778,0.8804,0.9218,1.0138,1.019,1.019,1.019,0.9271,0.9263,1.019,1.0411,1.0522,0.0,0.0,0.0,0.0,0.0,0.0,0.0,0.0,0.0,0.0,0.0,0.0163,0.0702,0.0746,0.0695,0.067,0.0,0.0,0.0,0.0,0.0,0.0,0.0,0.0,0.02,0.0189,0.0133,0.0011,0.0,-0.0011,-0.0022,-0.0037,0.018,0.0676,0.0698,0.0698,0.0674,0.0674,0.0674,0.0676,0.161,0.1751,0.1194,0.1795,0.2078,0.21,0.21,0.1649,0.0906,0.097,0.0997,0.1109,0.2266,0.2712,0.2712,0.2712,0.2716,0.2812,0.3109,0.3208,0.313,0.2734,0.2374,0.2448,0.4111,0.4934,0.5309,0.5309,0.6119,0.6979,0.6979,0.6979,0.6979,0.6979,0.6979,0.6979,0.6979,0.6979,0.6979,0.6979,0.6979,0.6979,0.6979,0.6979,0.6979,0.6979,0.6979,0.6979,0.6979,0.6979,0.6979,0.6979,0.6979,0.6979,0.6979,0.6979,0.7619,0.9089,0.8962,0.891,0.9166,0.9166,1.0087,1.2076,1.2076,1.2076,1.2076,1.0138,1.0138,1.1877,1.0922,1.0522,0.0,0.0,0.0,0.0,0.0,0.0,0.0,0.0,0.0,0.0,0.0,0.0037,0.0153,0.0464,0.0648,0.0479,0.0424,0.0,0.0,0.0,0.0,0.0,0.0,0.0,0.02,0.01,0.0033,0.0,0.0,-0.0044,-0.0156,-0.0257,0.0,0.0676,0.0698,0.063,0.045,0.045,0.045,0.0472,0.1405,0.1787,0.1671,0.1794,0.1942,0.21,0.21,0.1649,0.0936,0.1432,0.1627,0.1703,0.2431,0.2712,0.2712,0.2712,0.2878,0.3109,0.3175,0.3208,0.3051,0.2247,0.2986,0.4135,0.3644,0.4339,0.5309,0.5309,0.6119,0.6979,0.6979,0.6979,0.6979,0.6979,0.6979,0.6979,0.6979,0.6979,0.6979,0.6979,0.6979,0.6979,0.6979,0.6979,0.6979,0.6979,0.6979,0.6979,0.6979,0.6979,0.6979,0.6979,0.6979,0.6979,0.6979,0.6979,0.8276,1.1265,0.9777,0.9577,1.136,1.146,1.1669,1.2076,1.2076,1.2076,1.2076,1.1669,1.1217,1.082,1.0624,1.0522,0.0,0.0,0.0,0.0,0.0,0.0,0.0,0.0264,0.0,0.0,0.0,0.0,0.0,0.0,0.0363,0.0391,0.0401,0.0379,0.0,0.0,0.0,0.0,0.0,0.0,0.0111,0.0044,-0.0022,-0.01,-0.01,-0.0133,-0.02,-0.0074,0.0223,0.0694,0.0607,0.0495,0.0405,0.0405,0.0628,0.1094,0.1582,0.1803,0.1803,0.1894,0.2008,0.21,0.1986,0.1718,0.138,0.1679,0.1803,0.1864,0.2476,0.2712,0.2716,0.2878,0.3043,0.3175,0.301,0.2759,0.2504,0.2503,0.3557,0.4612,0.3536,0.4192,0.5309,0.5309,0.6119,0.6979,0.6979,0.6979,0.6979,0.6979,0.6979,0.6979,0.6979,0.6979,0.6979,0.6979,0.6979,0.6979,0.6979,0.6979,0.6979,0.6979,0.6979,0.6979,0.6979,0.6979,0.6979,0.6979,0.7807,0.8349,0.8349,0.8349,0.9425,1.1926,1.1057,1.0956,1.2076,1.2076,1.2076,1.2076,1.2076,1.2076,1.2076,1.2076,1.1528,1.0522,1.0522,1.0522,0.0,0.0,0.0,0.0,0.0,0.0298,0.0,0.0,0.0,0.0,0.0,0.0,0.0,0.0,0.0,0.0,0.0,0.0,0.0,0.0,0.0,0.0,0.0,0.0,0.0011,0.0,-0.0011,-0.0022,-0.0067,-0.0089,-0.0089,0.0222,0.0461,0.0604,0.0478,0.0405,0.0405,0.0584,0.1052,0.1803,0.1803,0.1803,0.1803,0.1787,0.1876,0.203,0.1872,0.1803,0.1803,0.1803,0.1803,0.1851,0.2345,0.2609,0.2746,0.3076,0.3208,0.3126,0.2673,0.2323,0.2198,0.2966,0.3791,0.4375,0.3793,0.4387,0.5309,0.5309,0.6119,0.6979,0.6979,0.6979,0.6979,0.6979,0.6979,0.6979,0.6979,0.6979,0.6979,0.6979,0.6979,0.6979,0.6979,0.6979,0.6979,0.6979,0.6979,0.6979,0.6979,0.7314,0.7523,0.7523,0.9098,1.0141,1.0141,1.0141,1.0701,1.1994,1.2076,1.2076,1.2076,1.2076,1.2076,1.2076,1.2076,1.2076,1.2076,1.2076,1.1669,1.082,1.082,1.082,0.0,0.0,0.0,0.0,0.04,0.0,0.0,0.0,0.0,0.0,0.0,0.0,0.0,0.0,0.0,0.0,0.0,0.0,0.0183,0.02,0.0,0.0,0.0,0.0,0.0,0.0,0.0167,0.057,0.0435,0.0335,0.0335,0.0379,0.0358,0.026,0.0341,0.0405,0.0405,0.1227,0.1692,0.1803,0.1803,0.1803,0.1781,0.0962,0.105,0.1828,0.1803,0.1803,0.1803,0.1803,0.1803,0.1809,0.1882,0.2239,0.2746,0.3076,0.3208,0.3087,0.2197,0.2404,0.3052,0.3165,0.3287,0.3589,0.4716,0.5177,0.5309,0.5309,0.6119,0.6979,0.6979,0.6979,0.6979,0.6979,0.6979,0.6979,0.6979,0.6979,0.6979,0.6979,0.6979,0.6979,0.6979,0.6979,0.6979,0.6979,0.6979,0.6979,0.6979,0.839,0.9386,0.9386,1.0858,1.1849,1.1849,1.1849,1.1932,1.2067,1.2076,1.2076,1.2076,1.2076,1.2076,1.2076,1.2076,1.2076,1.2076,1.2076,1.2026,1.1927,1.1927,1.1927,0.0,0.0,0.0,0.0,0.0,0.0,0.0058,0.0,0.0,0.0,0.0,0.0,0.0,0.0,0.0,0.0,0.0128,0.0,0.0,0.0,0.0084,0.0,0.0,0.0,0.0,0.0,0.0,0.0,0.0358,0.0401,0.0401,0.0401,0.0335,0.02,0.0334,0.0405,0.0405,0.1338,0.1803,0.1803,0.1803,0.1516,0.0985,0.0584,0.0918,0.1803,0.1803,0.1803,0.1803,0.1803,0.1803,0.1803,0.1803,0.1961,0.2214,0.2458,0.248,0.2333,0.1938,0.2415,0.3208,0.3208,0.3748,0.4525,0.513,0.5309,0.5309,0.5309,0.6119,0.6979,0.6979,0.6979,0.6979,0.6979,0.6979,0.6979,0.6979,0.6979,0.6979,0.6979,0.6979,0.6979,0.6979,0.6979,0.6979,0.6979,0.6979,0.7398,0.8431,0.9226,0.9683,0.9683,1.1122,1.2076,1.2076,1.2076,1.2076,1.2076,1.2076,1.2076,1.2076,1.2076,1.2076,1.2076,1.2076,1.2076,1.2076,1.2076,1.146,1.0241,1.151,1.2076,0.1275,0.0,0.0,0.0,0.0,0.0,0.0,0.0,0.0,0.0,0.0,0.0,0.0,0.0,0.0,0.0,0.0,0.0,0.0,0.0,0.0,0.0,0.0,0.0,0.0,0.0,0.0,0.0,0.0,0.0401,0.0401,0.0401,0.0335,0.02,0.0297,0.0367,0.0404,0.1338,0.167,0.1427,0.1427,0.1096,0.0495,0.0696,0.1161,0.1803,0.1803,0.1803,0.1803,0.1803,0.1803,0.1803,0.1803,0.1828,0.1894,0.1986,0.1916,0.1847,0.2088,0.2637,0.3257,0.3548,0.4396,0.5309,0.5309,0.5309,0.5376,0.5671,0.6366,0.6979,0.6979,0.6979,0.6979,0.6979,0.6979,0.6979,0.6979,0.6979,0.6979,0.6979,0.6979,0.6979,0.6979,0.6979,0.6979,0.6979,0.744,0.8226,0.9515,0.9683,0.9683,0.9683,1.1122,1.2076,1.2076,1.2076,1.2076,1.2076,1.2076,1.2076,1.2076,1.2076,1.1819,1.1209,1.1209,1.1209,1.1209,1.1209,1.0395,0.8857,1.0438,1.1209,0.0,0.0,0.0,0.1427,0.0,0.0,0.0,0.0,0.0131,0.0,0.0,0.0,0.0,0.0,0.0,0.0,0.0,0.0,0.0,0.0,0.0,0.0,0.0,0.0,0.0,0.0,0.0508,0.0,0.025,0.0,0.0401,0.0401,0.0335,0.02,0.0205,0.0271,0.0403,0.1338,0.1338,0.0449,0.0449,0.054,0.0721,0.143,0.1781,0.1803,0.1803,0.1803,0.1803,0.1803,0.1803,0.1803,0.1803,0.1916,0.2078,0.1872,0.1803,0.1935,0.2832,0.3187,0.3378,0.4423,0.4998,0.5309,0.5309,0.5309,0.5518,0.6647,0.6994,0.6979,0.6979,0.6979,0.6979,0.6979,0.6979,0.6979,0.6979,0.6979,0.6979,0.6979,0.6979,0.6979,0.6979,0.6979,0.6979,0.6979,0.8472,0.9643,0.9683,0.9683,0.9683,0.9683,1.1122,1.2076,1.2076,1.2076,1.2076,1.2076,1.2076,1.2076,1.2076,1.2076,1.1108,0.8962,0.891,0.891,0.891,0.891,0.8857,0.8804,0.8857,0.891,0.0,0.0,0.0748,0.0958,0.0,0.0,0.0,0.0,0.0,0.0,0.0,0.0,0.0,0.0,0.0,0.0,0.0,0.0,0.0,0.0,0.0,0.0,0.0,0.0,0.0,0.0,0.0,0.0,0.025,0.0,0.0,0.0312,0.0245,0.02,0.02,0.0266,0.0403,0.0718,0.0718,0.0405,0.054,0.063,0.0721,0.1474,0.1803,0.1803,0.1803,0.1803,0.1803,0.1803,0.1803,0.1803,0.1942,0.1964,0.1894,0.1825,0.2198,0.2879,0.3909,0.4265,0.4182,0.3606,0.4274,0.5309,0.5309,0.5309,0.5524,0.6693,0.6979,0.6979,0.6979,0.6979,0.6979,0.6979,0.6979,0.6979,0.6979,0.6979,0.6979,0.6979,0.6979,0.6979,0.6979,0.6979,0.6979,0.6979,0.7523,0.7889,0.7889,0.8625,0.9123,0.9123,0.9617,0.9932,0.9932,0.9932,0.9932,0.9932,0.9932,0.9932,0.9932,0.9932,0.9577,0.8804,0.8804,0.8804,0.8804,0.8804,0.8804,0.8804,0.8804,0.8804,0.1097,0.0976,0.0,0.0848,0.0544,0.0,0.0637,0.0,0.0,0.0,0.0,0.0,0.0,0.0,0.0,0.0,0.0,0.0,0.0,0.0,0.0,0.0,0.0,0.0,0.0,0.0,0.0,0.0,0.025,0.0,0.0,0.0,0.0267,0.0267,0.0344,0.0421,0.0516,0.0427,0.0427,0.0517,0.063,0.0698,0.0721,0.1118,0.1493,0.1803,0.1803,0.1803,0.1803,0.1803,0.1803,0.1825,0.203,0.1986,0.1847,0.2176,0.2926,0.3876,0.4569,0.4876,0.4736,0.3335,0.3983,0.5309,0.5309,0.5571,0.6059,0.6814,0.6979,0.6979,0.6979,0.6979,0.6979,0.6979,0.6979,0.6979,0.6979,0.6979,0.6979,0.6979,0.7361,0.7655,0.7655,0.7655,0.7515,0.7045,0.6979,0.7174,0.7602,0.833,0.8804,0.8804,0.8804,0.8804,0.8804,0.8804,0.8804,0.8804,0.8804,0.9166,0.9932,0.9218,0.8804,0.8804,0.8804,0.8804,0.8804,0.8804,0.9218,0.9984,0.9984,0.9577]},{"header":{"parameterUnit":"m.s-1","parameterCategory":1,"la1":30.6,"la2":29.2853,"lo1":-89.7004,"lo2":-87.6739,"dy":0.0162,"dx":0.0183,"nx":112,"ny":82,"refTime":"2026-05-10T12:00:00:Z","depth":0,"parameterNumber":3,"parameterNumberName":"V-component_of_WINDS"},"data":[0.0,0.0,0.0,0.0,0.0,0.0,0.0,0.0,0.0,0.0,0.0,0.0,0.0,0.0,0.0,0.0,0.0,0.0,0.0,0.0,0.0,0.0,0.0,0.0,0.0,0.0,0.0,0.0,0.0,0.0,0.0,0.0,0.0,0.0,0.0,0.0,0.0,0.0,0.0,0.0,0.0,0.0,0.0,0.0,0.0,0.0,0.0,0.0,0.0,0.0,0.0,0.0,0.0,0.0,0.0,0.0,0.0,0.0,0.0,0.0,0.0,0.0,0.0,0.0,0.0,0.0,0.0,0.0,0.0,0.0,0.0,0.0,0.0,0.0,0.0,0.0,0.0,0.0,0.0,0.0,0.0,0.0,0.0,0.0,0.0,0.0,0.0,0.0,0.0,0.0,0.6302,0.9364,0.9633,0.9699,0.9922,0.9938,0.9708,0.9133,0.0,0.0,0.0,0.0,0.0,0.0,0.0,0.0,0.0,0.0,0.0,0.0,0.0,0.0,0.0,0.0,0.0,0.0,0.0,0.0,0.0,0.0,0.0,0.0,0.0,0.0,0.0,0.0,0.0,0.0,0.0,0.0,0.0,0.0,0.0,0.0,0.0,0.0,0.0,0.0,0.0,0.0,0.0,0.0,0.0,0.0,0.0,0.0,0.0,0.0,0.0,0.0,0.0,0.0,0.0,0.0,0.0,0.0,0.0,0.0,0.0,0.0,0.0,0.0,0.0,0.0,0.0,0.0,0.0,0.0,0.0,0.0,0.0,0.0,0.0,0.0,0.0,0.0,0.0,0.0,0.0,0.0,0.0,0.0,0.0,0.0,0.0,0.0,0.0,0.0,0.0,0.0,0.0,0.0,0.0,0.0,0.0,0.0,0.0,0.0,0.0,0.0,0.0,0.0,0.8356,0.9571,0.9394,0.9214,0.9237,0.9247,0.9206,0.9109,0.0,0.0,0.0,0.0,0.0,0.0,0.0,0.0,0.0,0.0,0.0,0.0,0.0,0.0,0.0,0.0,0.0,0.0,0.0,0.0,0.0,0.0,0.0,0.0,0.0,0.0,0.0,0.0,0.0,0.0,0.0,0.0,0.0,0.0,0.0,0.0,0.0,0.0,0.0,0.0,0.0,0.0,0.0,0.0,0.0,0.0,0.0,0.0,0.0,0.0,0.0,0.0,0.0,0.0,0.0,0.0,0.0,0.0,0.0,0.0,0.0,0.0,0.0,0.0,0.0,0.0,0.0,0.0,0.0,0.0,0.0,0.0,0.0,0.0,0.0,0.0,0.0,0.0,0.0,0.0,0.0,0.0,0.0,0.0,0.0,0.0,0.0,0.0,0.0,0.0,0.0,0.0,0.0,0.0,0.0,0.0,0.0,0.0,0.0,0.0,0.0,0.0,0.0,0.8508,0.8719,0.932,0.9204,0.9109,0.9109,0.9109,0.8996,0.8794,0.6233,0.0,0.0,0.0,0.0,0.0,0.0,0.0,0.0,0.0,0.0,0.0,0.0,0.0,0.0,0.0,0.0,0.0,0.0,0.0,0.0,0.0,0.0,0.0,0.0,0.0,0.0,0.0,0.0,0.0,0.0,0.0,0.0,0.0,0.0,0.0,0.0,0.0,0.0,0.0,0.0,0.0,0.0,0.0,0.0,0.0,0.0,0.0,0.0,0.0,0.0,0.0,0.0,0.0,0.0,0.0,0.0,0.0,0.0,0.0,0.0,0.0,0.0,0.0,0.0,0.0,0.0,0.0,0.0,0.0,0.0,0.0,0.0,0.0,0.0,0.0,0.0,0.0,0.0,0.0,0.0,0.0,0.0,0.0,0.0,0.0,0.0,0.0,0.0,0.0,0.0,0.0,0.0,0.0,0.0,0.0,0.0,0.0,0.0,0.0,0.0,0.0,0.0,0.7822,0.8329,0.9028,0.9007,0.8953,0.8953,0.8953,0.8829,0.8521,0.5955,0.0,0.0,0.0,0.0,0.0,0.0,0.0,0.0,0.0,0.0,0.0,0.0,0.0,0.0,0.0,0.0,0.0,0.0,0.0,0.0,0.0,0.0,0.0,0.0,0.0,0.0,0.0,0.0,0.0,0.0,0.0,0.0,0.0,0.0,0.0,0.0,0.0,0.0,0.0,0.0,0.0,0.0,0.0,0.0,0.0,0.0,0.0,0.0,0.0,0.0,0.0,0.0,0.0,0.0,0.0,0.0,0.0,0.0,0.0,0.0,0.0,0.0,0.0,0.0,0.0,0.0,0.0,0.0,0.0,0.0,0.0,0.0,0.0,0.0,0.0,0.0,0.0,0.0,0.0,0.0,0.0,0.0,0.0,0.0,0.0,0.0,0.0,0.0,0.0,0.0,0.0,0.0,0.0,0.0,0.0,0.0,0.0,0.0,0.0,0.0,0.0,0.0,0.5855,0.7338,0.8929,0.8771,0.8546,0.8546,0.8546,0.8533,0.8508,0.5862,0.0,0.0,0.0,0.0,0.0,0.0,0.0,0.0,0.0,0.0,0.0,0.0,0.0,0.0,0.0,0.0,0.0,0.0,0.0,0.0,0.0,0.0,0.0,0.0,0.0,0.0,0.0,0.0,0.0,0.0,0.0,0.0,0.0,0.0,0.0,0.0,0.0,0.0,0.0,0.0,0.0,0.0,0.0,0.0,0.0,0.0,0.0,0.0,0.0,0.0,0.0,0.0,0.0,0.0,0.0,0.0,0.0,0.0,0.0,0.0,0.0,0.0,0.0,0.0,0.0,0.0,0.0,0.0,0.0,0.0,0.0,0.0,0.0,0.0,0.0,0.0,0.0,0.0,0.0,0.0,0.0,0.0,0.0,0.0,0.0,0.0,0.0,0.0,0.0,0.0,0.0,0.0,0.0,0.0,0.0,0.0,0.0,0.0,0.0,0.0,0.0,0.0,0.6246,0.7146,0.0,0.8579,0.8508,0.8508,0.8508,0.7749,0.5998,0.0,0.0,0.0,0.0,0.0,0.0,0.0,0.0,0.0,0.0,0.0,0.0,0.0,0.0,0.0,0.0,0.0,0.0,0.0,0.0,0.0,0.0,0.0,0.0,0.0,0.0,0.0,0.0,0.0,0.0,0.0,0.0,0.0,0.0,0.0,0.0,0.0,0.0,0.0,0.0,0.0,0.0,0.0,0.0,0.0,0.0,0.0,0.0,0.0,0.0,0.0,0.0,0.0,0.0,0.0,0.0,0.0,0.0,0.0,0.0,0.0,0.0,0.0,0.0,0.0,0.0,0.0,0.0,0.0,0.0,0.0,0.0,0.0,0.0,0.0,0.0,0.0,0.0,0.0,0.0,0.0,0.0,0.0,0.0,0.0,0.0,0.0,0.0,0.0,0.0,0.0,0.0,0.0,0.0,0.0,0.0,0.0,0.0,0.0,0.0,0.0,0.0,0.6311,0.6599,0.708,0.0,0.8508,0.8508,0.8508,0.8325,0.7092,0.4472,0.0,0.0,0.0,0.0,0.0,0.0,0.0,0.0,0.0,0.0,0.0,0.0,0.0,0.0,0.0,0.0,0.0,0.0,0.0,0.0,0.0,0.0,0.0,0.0,0.0,0.0,0.0,0.0,0.0,0.0,0.0,0.0,0.0,0.0,0.0,0.0,0.0,0.0,0.0,0.0,0.0,0.0,0.0,0.0,0.0,0.0,0.0,0.0,0.0,0.0,0.0,0.0,0.0,0.0,0.0,0.0,0.0,0.0,0.0,0.0,0.0,0.0,0.0,0.0,0.0,0.0,0.0,0.0,0.0,0.0,0.0,0.0,0.0,0.0,0.0,0.0,0.0,0.0,0.0,0.0,0.0,0.0,0.0,0.0,0.0,0.0,0.0,0.0,0.0,0.0,0.0,0.0,0.0,0.0,0.0,0.0,0.0,0.0,0.0,0.0,0.0,0.0,0.6311,0.6599,0.708,0.8335,0.8495,0.8495,0.8495,0.7955,0.6673,0.0,0.0,0.0,0.0,0.0,0.0,0.0,0.0,0.0,0.0,0.0,0.0,0.0,0.0,0.0,0.0,0.0,0.0,0.0,0.0,0.0,0.0,0.0,0.0,0.0,0.0,0.0,0.0,0.0,0.0,0.0,0.0,0.0,0.0,0.0,0.0,0.0,0.0,0.0,0.0,0.0,0.0,0.0,0.0,0.0,0.0,0.0,0.0,0.0,0.0,0.0,0.0,0.0,0.0,0.0,0.0,0.0,0.0,0.0,0.0,0.0,0.0,0.0,0.0,0.0,0.0,0.0,0.0,0.0,0.0,0.0,0.0,0.0,0.0,0.0,0.0,0.0,0.0,0.0,0.0,0.0,0.0,0.0,0.0,0.0,0.0,0.0,0.0,0.0,0.0,0.0,0.0,0.0,0.0,0.0,0.0,0.0,0.0,0.0,0.0,0.0,0.0,0.0,0.6311,0.6599,0.6757,0.7112,0.7576,0.7869,0.7869,0.8094,0.7104,0.4472,0.0,0.0,0.0,0.0,0.0,0.0,0.0,0.0,0.0,0.0,0.0,0.0,0.0,0.0,0.0,0.0,0.0,0.0,0.0,0.0,0.0,0.0,0.0,0.0,0.0,0.0,0.0,0.0,0.0,0.0,0.0,0.0,0.0,0.0,0.0,0.0,0.0,0.0,0.0,0.0,0.0,0.0,0.0,0.0,0.0,0.0,0.0,0.0,0.0,0.0,0.0,0.0,0.0,0.0,0.0,0.0,0.0,0.0,0.0,0.0,0.0,0.0,0.0,0.0,0.0,0.0,0.0,0.0,0.0,0.0,0.0,0.0,0.0,0.0,0.0,0.0,0.0,0.0,0.0,0.0,0.0,0.0,0.0,0.0,0.0,0.0,0.0,0.0,0.0,0.0,0.0,0.0,0.0,0.0,0.0,0.0,0.0,0.0,0.0,0.0,0.0,0.0,0.4745,0.5876,0.6599,0.6599,0.696,0.7314,0.7575,0.7941,0.7046,0.4472,0.0,0.0,0.0,0.0,0.0,0.0,0.0,0.0,0.0,0.0,0.0,0.0,0.0,0.0,0.0,0.0,0.0,0.0,0.0,0.0,0.0,0.0,0.0,0.0,0.0,0.0,0.0,0.0,0.0,0.0,0.0,0.0,0.0,0.0,0.0,0.0,0.0,0.0,0.0,0.0,0.0,0.0,0.0,0.0,0.0,0.0,0.0,0.0,0.0,0.0,0.0,0.0,0.0,0.0,0.0,0.0,0.0,0.0,0.0,0.0,0.0,0.0,0.0,0.0,0.0,0.0,0.0,0.0,0.0,0.0,0.0,0.0,0.0,0.0,0.0,0.0,0.0,0.0,0.0,0.0,0.0,0.0,0.0,0.0,0.0,0.0,0.0,0.0,0.0,0.0,0.0,0.0,0.0,0.0,0.0,0.0,0.0,0.0,0.0,0.0,0.0,0.0,0.2362,0.4819,0.6599,0.6599,0.6599,0.6874,0.7545,0.7545,0.657,0.4395,0.0,0.0,0.0,0.0,0.0,0.0,0.0,0.0,0.0,0.0,0.0,0.0,0.0,0.0,0.0,0.0,0.0,0.0,0.0,0.0,0.0,0.0,0.0,0.0,0.0,0.0,0.0,0.0,0.0,0.0,0.0,0.0,0.0,0.0,0.0,0.0,0.0,0.0,0.0,0.0,0.0,0.0,0.0,0.0,0.0,0.0,0.0,0.0,0.0,0.0,0.0,0.0,0.0,0.0,0.0,0.0,0.0,0.0,0.0,0.0,0.1014,0.0,0.0,0.0,0.0,0.0,0.0,0.0,0.0,0.0,0.0,0.0,0.0,0.0,0.0,0.0,0.0,0.0,0.0,0.0,0.0,0.0,0.0,0.0,0.0,0.0,0.0,0.0,0.0,0.0,0.0,0.0,0.0,0.0,0.0,0.0,0.0,0.0,0.0,0.0,0.0,0.0,0.2272,0.4819,0.6599,0.6599,0.6599,0.6874,0.7545,0.7123,0.598,0.4039,0.3913,0.0,0.0,0.0,0.0,0.0,0.0,0.0,0.0,0.0,0.0,0.0,0.0,0.0,0.0,0.0,0.0,0.0,0.0,0.0,0.0,0.0,0.0,0.0,0.0,0.0,0.0,0.0,0.0,0.0,0.0,0.0,0.0,0.0,0.0,0.0,0.0,0.0,0.0,0.0,0.0,0.0,0.0,0.0,0.0,0.0,0.0,0.0,0.0,0.0,0.0,0.0,0.0,0.0,0.0,0.0,0.0,0.0,0.0,0.0,0.0,0.1507,0.0,0.0,0.0,0.0,0.0,0.0,0.0,0.0,0.0,0.0,0.0,0.0,0.0,0.0,0.0,0.0,0.0,0.0,0.0,0.0,0.0,0.0,0.0,0.0,0.0,0.0,0.0,0.0,0.0,0.0,0.0,0.0,0.0,0.0,0.0,0.0,0.0,0.0,0.0,0.0,0.3207,0.4671,0.5859,0.6517,0.629,0.6366,0.7058,0.6807,0.5795,0.3917,0.3773,0.0,0.0,0.0,0.0,0.0,0.0,0.0,0.0,0.0,0.0,0.0,0.0,0.0,0.0,0.0,0.0,0.0,0.0,0.0,0.0,0.0,0.0,0.0,0.0,0.0,0.0,0.0,0.0,0.0,0.0,0.0,0.0,0.0,0.0,0.0,0.0,0.0,0.0,0.0,0.0,0.0,0.0,0.0,0.0,0.0,0.0,0.0,0.0,0.0,0.0,0.0,0.0,0.0,0.2538,0.2875,0.3527,0.3527,0.3527,0.3527,0.3527,0.2182,-0.0117,-0.1616,0.0,0.0,0.0,0.0,0.0,0.0,0.0,0.0,0.0,0.0,0.0,0.0,0.0,0.0,0.0,0.0,0.0,0.0,0.0,0.0,0.0,0.0,0.0,0.0,0.4793,0.4171,0.0,0.0,0.0,0.0,0.0,0.0,0.0,0.0,0.0,0.0,0.0,0.0,0.426,0.4507,0.504,0.6448,0.5948,0.58,0.6547,0.6599,0.5977,0.455,0.3983,0.3693,0.0,0.0,0.0,0.0,0.0,0.0,0.0,0.0,0.0,0.0,0.0,0.0,0.0,0.0,0.0,0.0,0.0,0.0,0.0,0.0,0.0,0.0,0.0,0.0,0.0,0.0,0.0,0.0,0.0,0.0,0.0,0.0,0.0,0.0,0.0,0.0,0.0,0.0,0.0,0.0,0.0,0.0,0.0,0.0,0.0,0.0,0.0,0.2597,0.2597,0.4336,0.5285,0.5444,0.5444,0.5495,0.5608,0.5608,0.5608,0.5608,0.5608,0.0,-0.002,-0.0261,0.0,0.0,0.0,0.0,0.0,0.0,0.0,0.0,0.0,0.0,0.0,0.0,0.0,0.0,0.0,0.0,0.0,0.0,0.0,0.0,0.0,0.0,0.2975,0.4446,0.4793,0.4404,0.0,0.3621,0.4576,0.4612,0.2768,0.0,0.0,0.0,0.0,0.0,0.0,0.0,0.426,0.4507,0.504,0.6448,0.5948,0.58,0.6547,0.6599,0.6744,0.7071,0.4961,0.3693,0.3693,0.3732,0.0,0.0,0.0,0.0,0.0,0.0,0.0,0.0,0.0,0.0,0.0,0.0,0.0,0.0,0.0,0.0,0.0,0.0,0.0,0.0,0.0,0.0,0.0,0.0,0.0,0.0,0.0,0.0,0.0,0.0,-0.0125,-0.0465,-0.0207,0.0,0.0,0.0,0.0,0.0,0.0,0.0,0.0,0.0,0.0,0.2532,0.3755,0.5059,0.6418,0.7298,0.7744,0.7744,0.7847,0.7911,0.7911,0.7911,0.7911,0.7911,0.7911,0.4815,-0.0222,-0.0057,-0.0833,-0.2292,0.0,0.0,0.0,0.0,-0.5702,-0.3212,-0.1865,-0.0306,0.0,0.123,0.0,0.0,0.0,0.0,0.0,0.0,0.0,0.0,0.0,0.0,0.2294,0.3093,0.3277,0.3199,0.2875,0.3332,0.4065,0.0,0.4227,0.3202,0.2336,0.0,0.0,0.0,0.0,0.3539,0.4381,0.4507,0.504,0.6448,0.6307,0.6254,0.6582,0.6599,0.6858,0.7453,0.5104,0.3693,0.3693,0.3693,0.3831,0.0,0.0,0.0,0.0,0.0,0.0,0.0,0.0,0.0,0.0,0.0,0.0,0.0,0.0,0.0,0.0,0.0,0.0,0.0,0.0,0.0,0.0,0.0,0.0,0.0,0.0,0.0,0.0,0.0,-0.0166,-0.0617,-0.0275,0.0,0.0,0.0,0.0,0.0,0.0,0.0,0.2353,0.4529,0.5757,0.5757,0.6197,0.6928,0.7961,0.8722,0.9109,0.9109,0.9261,0.9329,0.9329,0.9375,0.9394,0.9394,0.9394,0.6617,0.1996,0.0582,0.0,-0.0237,-0.2559,-0.3557,-0.3941,-0.5985,-0.3422,0.1094,0.1094,0.1094,0.1139,0.1343,0.0,0.141,0.1477,0.0,0.0,0.0,0.0,0.21,0.21,0.21,0.21,0.21,0.2188,0.2381,0.2729,0.2794,0.3147,0.0,0.4518,0.4147,0.2998,0.0,0.0,0.0,0.0,0.4244,0.4466,0.4507,0.504,0.6448,0.6599,0.653,0.6325,0.6495,0.6757,0.7093,0.4983,0.3725,0.3693,0.3693,0.3831,0.4094,0.0,0.0,0.0,0.0,0.0,0.0,0.0,0.0,0.0,0.0,0.0,0.0,0.0,0.0,0.0,0.0,0.0,0.0,0.0,0.0,0.0,0.0,0.0,0.0,0.0,0.0,0.0,0.0,0.0,-0.0041,-0.0017,0.0,0.0,0.0,0.0,0.4048,0.4385,0.5775,0.877,0.9073,0.9162,0.9162,0.9009,0.7639,0.4941,0.7701,0.9109,0.9109,0.912,0.912,0.913,0.9319,0.9394,0.9394,0.9394,0.9213,0.8455,0.2455,0.0,0.0,0.0109,0.0129,0.0107,-0.0022,0.0418,0.1094,0.1094,0.1094,0.1139,0.1343,0.141,0.1455,0.1692,0.1638,0.0,0.0,0.1826,0.21,0.21,0.21,0.21,0.21,0.2446,0.2772,0.2794,0.2794,0.2816,0.0,0.2918,0.2896,0.2816,0.0,0.1796,0.2951,0.3214,0.3556,0.4386,0.4507,0.504,0.6448,0.6599,0.6307,0.5625,0.6201,0.6517,0.6366,0.4746,0.3765,0.3701,0.3693,0.3831,0.4094,0.4094,0.0,0.0,0.0,0.0,0.0,0.0,0.0,0.0,0.0,0.0,0.0,0.0,0.0,0.0,0.0,0.0,0.0,0.0,0.0,0.0,0.0,0.0,0.0,0.0,0.0,0.0,0.0,0.0,-0.0367,-0.0053,0.0,0.2704,0.2976,0.4248,0.7242,0.751,0.8206,0.9774,0.9857,0.9857,0.9857,0.9774,0.9235,0.8193,0.9216,0.975,0.975,0.975,0.975,0.975,0.9816,0.9857,0.9858,0.9842,0.9843,0.9004,-0.208,-0.4003,0.0,0.0112,0.0247,0.0405,0.0405,0.0696,0.1094,0.1094,0.1094,0.0408,-0.385,-0.376,-0.1965,-0.1687,-0.0022,0.137,-0.0717,-0.1809,-0.155,0.1923,0.2801,0.2801,0.2801,0.3289,0.377,0.377,0.377,0.377,0.377,0.3252,0.2794,0.2794,0.2668,0.2703,0.3126,0.3208,0.3675,0.4971,0.4765,0.4697,0.5194,0.6058,0.6495,0.6236,0.646,0.6723,0.6996,0.4987,0.3781,0.3765,0.3765,0.3913,0.423,0.4236,0.4181,0.0,0.0,0.0,0.0,0.0,0.0,0.0,0.0,0.0,0.0,0.0,0.0,0.0,0.0,0.0,0.0,0.0,0.0,0.0,0.0,0.0,0.0,0.0,0.0,0.0,0.0,-0.3579,-0.1495,-0.1831,0.0041,0.5832,0.6466,0.7331,0.9282,0.9441,0.9641,1.0082,1.0094,1.0094,1.0094,1.0094,1.0094,1.0094,1.0094,1.0094,1.0094,1.0094,1.0094,1.0094,1.0094,1.0729,1.1825,1.1795,1.1793,1.108,0.2003,0.0381,0.3609,0.3609,0.3662,0.3474,0.1245,0.0786,0.128,0.128,0.1332,0.0706,-0.3746,-0.4897,-0.4814,-0.6286,-0.2599,0.1658,-0.0457,-0.1556,-0.1694,0.0033,0.049,0.095,0.2761,0.2649,0.2137,0.2137,0.2137,0.2567,0.4006,0.3483,0.2794,0.2794,0.3031,0.3208,0.3208,0.3208,0.3758,0.531,0.4912,0.4677,0.5155,0.604,0.6599,0.6599,0.6807,0.7091,0.7438,0.5159,0.3847,0.3963,0.397,0.4075,0.4291,0.4307,0.3821,0.285,0.0,0.0,0.0,0.0,0.0,0.0,0.0,0.0,0.0,0.0,0.0,0.0,0.0,0.0,0.0,0.0,0.0,0.0,0.0,0.0,0.0,0.0,0.0,-0.3047,-0.3383,-0.3407,-0.3407,-0.5298,-0.2196,0.9011,1.009,1.0086,1.0086,1.0086,1.0086,1.0086,1.0086,1.0086,1.0086,1.0086,1.0086,1.0086,1.0086,1.0086,1.0086,1.0086,1.0144,1.0236,1.0236,1.2046,1.5177,1.5113,1.5085,1.5078,1.5078,1.34,1.0831,1.0753,1.0548,0.9542,0.3157,0.1238,0.187,0.187,0.1953,0.2117,0.2117,-0.1365,-0.6415,-1.1171,-0.544,0.2746,0.2904,0.3068,0.2014,-0.3208,-0.4672,-0.3478,0.1779,0.0398,-0.2117,-0.2117,-0.1978,-0.0663,0.3501,0.3505,0.2858,0.2858,0.3054,0.3208,0.3208,0.3208,0.0,0.531,0.4932,0.5059,0.6448,0.6599,0.6616,0.6633,0.7235,0.7561,0.7504,0.526,0.4061,0.4294,0.4307,0.4307,0.4307,0.4307,0.2931,0.013,0.0,0.0,0.0,0.0,0.0,0.0,0.0,0.0,0.0,0.0,0.0,0.0,0.0,0.0,0.0,0.0,0.0,0.0,0.0,0.0,0.0,-0.1843,-0.3566,-0.4409,-0.5205,-0.5685,-0.5685,-0.6223,-0.2196,0.9011,0.9965,0.9882,0.9882,0.9882,0.9882,0.9882,0.9882,0.9882,0.9882,0.9882,0.9882,0.9882,0.9882,0.9882,0.9882,0.9882,1.1126,1.3446,1.3446,1.3951,1.4841,1.4813,1.4755,1.4666,1.4666,1.4357,1.3689,1.1548,1.0548,1.0076,0.8271,0.7602,0.7614,0.7614,0.5199,0.2117,0.2117,0.1324,0.0097,-0.1221,0.0402,0.1961,-0.1596,0.0196,0.2863,0.138,-0.1888,-0.4103,-0.1293,-0.1403,-0.2117,-0.2117,0.033,0.2899,0.4075,0.4068,0.3889,0.3889,0.3495,0.3208,0.3208,0.3208,0.0,0.531,0.533,0.5585,0.6512,0.6599,0.6791,0.7282,0.7484,0.6916,0.5303,0.6468,0.6332,0.4382,0.4307,0.4307,0.4307,0.4307,0.3902,0.0,0.0,0.0,0.0,0.0,0.0,0.0,0.0,0.0,0.0,0.0,0.0,0.0,0.0,0.0,0.0,0.0,0.0,0.0,0.0,0.0,0.0,-0.3359,-0.4966,-0.6287,-0.7155,-0.7384,-0.6689,-0.5773,-0.2664,0.3853,0.77,0.9225,0.7852,0.5297,0.5555,0.9584,0.9875,0.9888,0.9808,0.5903,0.5733,0.9757,0.5185,0.5886,1.1843,1.1843,1.2845,1.4701,1.4701,1.4701,1.4701,1.4701,1.4618,1.4488,1.4488,1.4635,0.0,0.0,0.0,0.0,0.0,1.0034,0.9905,0.9905,0.7835,0.5167,0.4906,0.3859,0.2712,0.2712,0.2812,0.2293,-0.0619,0.0785,0.3208,0.3208,0.1109,-0.0711,0.0328,0.0593,0.0593,0.0593,0.2534,0.4312,0.4312,0.4312,0.0,0.4312,0.3677,0.3208,0.3208,0.3208,0.3758,0.531,0.5492,0.5782,0.653,0.6599,0.6963,0.7897,0.7983,0.0,0.0,0.0,0.7765,0.6119,0.6063,0.0,0.0,0.0,0.0,0.0,0.0,0.0,0.0,0.3994,0.419,0.0,0.0,0.0,0.0,0.0,0.0,0.0,0.0,0.0,0.0,0.0,0.0,0.0,0.0,0.0,0.0,-0.4777,-0.583,-0.8209,-0.8806,-0.8379,-0.6765,-0.4621,-0.3381,-0.3609,0.3571,0.7044,0.413,-0.1268,-0.0723,0.7795,0.0,0.0,0.0,0.0,0.0185,1.0243,0.055,0.2045,1.4683,1.3118,1.2353,1.2282,1.2282,1.3154,1.4701,1.4701,1.4618,1.4488,1.4488,1.4326,1.3845,1.1553,1.0523,1.0274,1.0008,0.9905,0.9905,0.9905,0.0,0.0,0.8795,0.6219,0.3277,0.2829,0.2944,0.3208,0.3208,0.3208,0.3208,0.3307,0.3826,0.4312,0.4312,0.4312,0.4312,0.4312,0.4312,0.4312,0.4312,0.4312,0.4312,0.4312,0.3796,0.3384,0.3384,0.3384,0.3894,0.5311,0.5568,0.5874,0.653,0.0,0.0,0.8296,0.847,0.8285,0.7739,0.8203,0.8508,0.8508,0.8508,0.8508,0.8508,0.6047,0.4777,0.4777,0.7281,0.8508,0.8443,0.5934,0.4777,0.0,0.0,0.0,0.0,0.0,0.0,0.0,0.0,0.0,0.0,0.0,0.0,0.0,0.0,0.0,-0.4414,-0.6503,-0.8231,-0.874,-0.851,-0.7809,-0.651,-0.4511,-0.3869,-0.5559,-0.3007,-0.152,-0.2161,-0.3324,-0.3201,-0.1356,-0.0654,0.4008,1.3446,0.1188,0.0663,1.3632,1.1616,1.1938,1.4558,0.0,0.0,-0.2636,-0.2636,0.3702,1.4701,1.4701,1.4618,1.4488,1.4488,1.3299,1.1366,1.065,1.0349,1.0274,1.0008,0.9905,0.9905,0.9905,0.9736,0.9405,0.8795,0.8081,0.6863,0.3679,0.2944,0.0,0.3208,0.3208,0.334,0.3923,0.4183,0.4312,0.4312,0.4312,0.4312,0.4312,0.4312,0.4312,0.4312,0.4312,0.4312,0.4312,0.4413,0.4502,0.4502,0.4502,0.4747,0.5413,0.602,0.643,0.6582,0.7517,0.8037,0.7797,0.8216,0.8457,0.8338,0.8428,0.8508,0.8508,0.8508,0.8508,0.8508,0.7975,0.7685,0.7685,0.8234,0.8508,0.8492,0.7943,0.7685,0.0,0.0,0.0,0.0,0.0,0.0,0.0,0.0,0.0,0.0,0.0,-0.049,-0.2106,0.0,-0.5099,-0.6469,-0.6707,-0.6707,-0.6707,-0.73,-0.7113,-0.5393,-0.4023,-0.4017,-0.6103,-0.4836,-0.3911,-0.3911,-0.3911,-0.3911,-0.3911,-0.3196,-0.0345,0.5022,0.4722,0.4692,0.5187,0.5187,0.5187,0.5101,-0.1773,-0.5672,-0.6811,-0.6811,-0.2883,0.4332,1.1568,1.4618,1.4488,1.4488,1.3008,1.0656,1.0399,1.1042,1.1923,1.0441,0.9828,0.971,0.971,0.9617,0.9405,0.8795,0.86,0.8202,0.6094,0.4404,0.3208,0.3208,0.3208,0.3372,0.4118,0.4312,0.4312,0.4312,0.4312,0.4312,0.4312,0.4312,0.4312,0.4312,0.4312,0.4344,0.4511,0.4678,0.4812,0.4812,0.6249,0.6903,0.5652,0.6147,0.6599,0.6599,0.7738,0.8258,0.765,0.8149,0.8508,0.8508,0.8508,0.8508,0.8508,0.8508,0.8508,0.8508,0.8508,0.8508,0.8508,0.8508,0.8508,0.8508,0.8508,0.8508,0.0,0.0,0.0,0.0,0.0,0.0,0.0,0.0,-0.2274,-0.2898,-0.191,-0.1725,-0.4321,-0.5297,-0.6404,-0.8555,-0.6378,-0.4424,-0.4424,-0.5781,-0.6251,-0.4904,-0.3832,-0.386,-0.5528,-0.453,-0.3877,-0.4106,-0.413,-0.413,-0.413,-0.3296,-0.3273,-0.4285,0.5661,0.6094,-0.4194,-0.4312,-0.4312,-0.4312,-0.4312,-0.3715,-0.2631,-0.2631,-0.4152,-0.6,0.8422,1.4596,1.4488,1.4488,1.3284,1.1344,1.0605,1.149,1.2989,1.1249,1.0542,1.0337,0.9725,0.9432,0.9244,0.8756,0.86,0.8544,0.8272,0.6956,0.5196,0.3652,0.3208,0.3372,0.4118,0.4312,0.4547,0.5589,0.5059,0.4312,0.4312,0.4312,0.4312,0.4312,0.4312,0.4622,0.5629,0.5783,0.5783,0.5783,0.8154,0.8875,0.6073,0.6236,0.6599,0.6599,0.7738,0.8311,0.7812,0.8216,0.8508,0.8508,0.8508,0.8508,0.8508,0.8508,0.8508,0.8508,0.8508,0.8508,0.8508,0.8508,0.8508,0.8508,0.8508,0.8508,-0.3992,-0.2047,0.0,0.0,0.0,0.0,0.0,0.0,-0.1098,-0.3969,-0.4396,-0.4376,-0.4739,-0.7092,-0.8957,-0.8917,-0.6234,-0.4142,-0.4142,-0.4333,-0.5114,-0.6828,-0.476,-0.3295,-0.3523,-0.3385,-0.3746,-0.4877,-0.4971,-0.4971,-0.4971,-0.3598,-0.3273,-0.4285,-0.2927,-0.2858,-0.4274,-0.4312,-0.4312,-0.4312,-0.4312,0.1535,1.2282,1.2282,0.53,-0.6008,0.8313,1.4499,1.4488,1.4488,1.4264,1.3663,1.1241,1.0472,1.0894,1.2563,1.342,1.3346,1.0501,0.9151,0.8684,0.8628,0.86,0.8544,0.8272,1.0851,1.237,0.5225,0.3208,0.3372,0.4118,0.4312,0.5481,1.0197,0.7729,0.4312,0.4312,0.4312,0.4312,0.4312,0.4312,0.5359,0.8743,0.9336,0.9336,0.9336,0.9661,0.9078,0.6766,0.6547,0.6599,0.6599,0.7738,0.8483,0.8403,0.847,0.8508,0.8508,0.8508,0.8508,0.8508,0.8508,0.8508,0.8508,0.8508,0.8508,0.8508,0.8508,0.8508,0.8508,0.8508,0.8508,-0.2342,-0.0964,0.0,0.0,-0.1319,-0.2622,-0.2622,-0.2622,-0.3006,-0.4338,-0.4632,-0.4632,-0.4632,-0.7106,-0.9088,0.0,-0.6208,-0.408,-0.4,-0.3914,-0.4213,-0.5139,-0.5315,-0.5262,-0.5028,-0.3909,-0.3728,-0.5,-0.5108,-0.5108,-0.5108,-0.364,-0.3273,-0.4285,-0.4312,-0.4312,-0.4312,-0.4312,-0.4312,-0.4194,0.3212,0.954,1.4701,1.4701,1.1167,0.5411,1.1368,1.418,1.4488,1.4417,1.4255,1.3952,1.2833,1.2393,1.2504,1.3294,1.3667,1.3376,1.0494,0.9097,0.86,0.86,1.0001,1.1247,0.8916,0.9576,1.0991,1.0365,1.02,1.0302,1.0623,0.9807,0.9466,1.1679,1.0496,0.8902,0.8902,0.8902,0.8902,0.8902,0.8902,0.9074,0.9583,0.9658,0.9658,0.9658,0.9802,0.938,0.7896,0.7048,0.6881,0.7621,0.8187,0.8508,0.8508,0.8508,0.8508,0.8508,0.8508,0.8508,0.8508,0.8508,0.8508,0.8508,0.8508,0.8508,0.8508,0.8508,0.8508,0.8508,0.8736,0.8724,-0.0816,-0.06,0.0,-0.1216,-0.2857,-0.4476,-0.4476,-0.4476,-0.4476,-0.4476,-0.4488,-0.4499,-0.4499,-0.6249,-0.767,-0.7584,-0.561,-0.4058,-0.3964,-0.4321,-0.4579,-0.4579,-0.5799,-0.6319,-0.5476,-0.4031,-0.3693,-0.5,-0.5108,-0.5108,-0.5108,-0.364,-0.3392,-0.4662,-0.4441,-0.4312,-0.4312,-0.4312,-0.4312,-0.4151,0.8617,1.4701,1.4701,1.4701,1.438,1.3845,1.3845,1.4001,1.4245,1.4293,1.4136,1.3888,1.3888,1.3873,1.3796,1.3606,1.3479,1.3141,1.1414,1.048,1.005,1.005,1.1794,1.3375,1.056,0.9704,1.0467,1.4179,1.5255,1.5303,1.5303,1.4177,1.3057,1.3057,1.2614,1.221,1.221,1.221,1.221,1.221,1.221,1.1637,0.9802,0.9497,0.9497,0.9497,1.0097,1.0022,0.8576,0.7577,0.7394,0.839,0.8508,0.8546,0.8652,0.8571,0.8558,0.8652,0.8665,0.8665,0.8665,0.8571,0.8558,0.8665,0.8558,0.8558,0.8665,0.8558,0.8508,0.8508,0.8908,0.8942,-0.0855,-0.2082,-0.4263,-0.4263,-0.433,-0.4396,-0.4396,-0.4396,-0.4396,-0.4396,-0.4448,-0.4499,-0.4499,-0.4567,-0.4557,-0.4295,-0.417,-0.4094,-0.4094,-0.565,-0.6802,-0.6802,-0.6352,-0.5258,0.0,-0.3038,-0.3586,-0.5,-0.5108,-0.5108,-0.5108,-0.364,-0.3713,-0.5705,-0.482,-0.4312,-0.4312,-0.4312,-0.4312,-0.4151,0.8617,1.4701,1.4701,1.4701,1.4618,1.4464,1.4464,1.4154,1.3667,1.4119,1.4136,1.3888,1.3888,1.3778,1.3589,1.3446,1.3396,1.3462,1.3973,1.3959,1.3746,1.3746,1.3809,1.3841,1.3523,1.3442,1.3699,1.4957,1.5303,1.5303,1.5303,1.5251,1.5211,1.5211,1.3658,1.221,1.221,1.221,1.221,1.221,1.221,1.1637,0.9802,0.9497,0.9497,0.9497,1.0996,1.117,0.8449,0.808,0.8162,0.847,0.8508,0.8652,0.9056,0.8724,0.8665,0.9067,0.9088,0.9088,0.9088,0.87,0.8677,0.9078,0.87,0.8689,0.9088,0.8689,0.8508,0.8508,0.8908,0.9099,-0.3218,-0.3647,-0.4396,-0.4396,-0.4396,-0.4396,-0.4396,-0.4396,-0.4396,-0.4396,-0.4425,-0.4437,-0.4437,-0.4437,-0.4365,-0.4135,-0.4094,-0.4725,-0.6506,-0.5621,-0.5383,-0.7026,-0.663,0.0,0.0,0.0,0.0,-0.3421,-0.4475,-0.4873,-0.4333,-0.382,-0.4224,-0.5736,-0.4826,-0.4312,-0.4312,-0.4312,-0.4312,-0.4151,0.8617,1.4701,1.4701,1.4607,1.4552,1.4488,1.4488,1.4325,1.4091,1.4224,1.4136,1.3888,1.3888,1.3796,1.3573,1.3446,1.3396,1.3413,1.3478,1.3686,1.3888,1.3888,1.3811,1.3684,1.362,1.3605,1.3651,1.3955,1.4654,1.5303,1.5303,1.5303,1.5303,1.5303,1.371,1.221,1.221,1.221,1.221,1.221,1.221,1.2012,1.14,1.1296,1.1296,1.1296,1.1805,1.134,0.8935,0.8319,0.8205,0.847,0.8508,0.8665,0.9078,0.8974,0.8953,0.9099,0.9109,0.9109,0.9109,0.8964,0.8964,0.9099,0.8964,0.8964,0.9099,1.0971,1.1882,1.1882,1.2029,1.2085,-0.5663,-0.593,-0.593,-0.593,-0.5165,-0.4396,-0.4396,-0.4396,-0.4396,-0.4396,-0.3564,-0.2831,-0.2831,-0.3697,-0.4318,-0.4063,-0.4878,-0.6026,-0.7474,-0.6151,-0.5606,-0.7209,-0.6748,-0.6295,0.0,0.0,0.0,-0.2656,-0.4154,-0.4873,-0.4354,-0.4048,-0.4489,-0.5774,-0.5176,-0.4666,-0.4312,-0.4312,-0.2003,0.2579,1.0789,1.4701,1.4701,1.4563,1.4488,1.4488,1.4488,1.4499,1.4481,1.4453,1.4229,1.3888,1.3888,1.3796,1.3573,1.3446,1.3479,1.3561,1.343,1.3609,1.3888,1.3811,1.3717,1.3605,1.3605,1.3605,1.3666,1.4,1.4662,1.5303,1.5303,1.5303,1.5303,1.5303,1.371,1.2277,1.2562,1.2403,1.221,1.221,1.2423,1.2542,1.2236,1.221,1.221,1.221,1.2443,1.2112,1.07,0.9261,0.8387,0.8364,0.8351,0.8551,0.905,0.9109,0.9109,0.9109,0.9234,0.9243,0.9109,0.9109,0.9109,0.9109,1.0152,1.0704,1.0704,1.2655,1.3605,1.3605,1.3605,1.3605,-0.7929,-0.8693,-0.8705,-0.8705,-0.6543,-0.4396,-0.4396,-0.4396,-0.4363,-0.4213,-0.2065,-0.0233,0.0,0.0,-0.429,-0.3963,-0.6134,-0.7676,-0.7045,-0.7203,-0.736,0.0,0.0,0.0,0.0,0.0,0.0,-0.2852,0.0,-0.5088,-0.5049,-0.4379,-0.4563,-0.5774,-0.5811,-0.5334,-0.4312,-0.3641,0.274,1.4701,1.4701,1.4701,1.4701,1.4563,1.4488,1.4488,1.4488,1.4603,1.4794,1.4734,1.4393,1.3947,1.3933,1.3809,1.362,1.3495,1.3671,1.3973,1.3973,1.393,1.3841,1.3669,1.3605,1.3605,1.3605,1.3644,1.3902,1.4994,1.5303,1.5303,1.5303,1.5246,1.5206,1.5206,1.3689,1.2463,1.3243,1.2811,1.2257,1.2257,1.2832,1.3103,1.2338,1.221,1.2195,1.2272,1.2922,1.3396,1.3396,1.089,0.8923,0.838,0.831,0.8517,0.9046,0.9237,0.9323,0.9323,0.9726,0.9762,0.9345,0.9323,0.9323,0.9323,1.2137,1.3605,1.3605,1.3605,1.3605,1.3605,1.3605,1.3605,-0.8351,-0.862,-0.8705,-0.8705,-0.6543,-0.4396,-0.4396,-0.4396,-0.378,-0.1582,-0.2265,-0.3281,0.0,0.0,0.0,-0.3963,-0.4498,0.0,-0.7388,-0.7282,0.0,-0.6613,0.0,-0.6135,-0.6278,-0.5574,0.0,0.0,-0.4864,-0.4834,-0.4232,-0.4917,-0.5466,-0.5797,-0.5811,-0.5334,-0.4312,0.5123,1.1491,1.4701,1.4701,1.4701,1.4701,1.4563,1.4488,1.4488,1.4488,1.4603,1.4794,1.4734,1.4618,1.4494,1.4381,1.425,1.4119,1.4078,1.44,1.4868,1.4868,1.4352,1.3669,1.362,1.3605,1.3605,1.3605,1.4158,1.4856,1.5195,1.5303,1.5303,1.5303,1.4588,1.3876,1.3876,1.3471,1.3156,1.3363,1.3226,1.3103,1.3103,1.2792,1.2443,1.2252,1.221,1.2403,1.3013,1.3277,1.3396,1.3396,1.2736,1.1975,1.1222,1.1162,1.0554,0.9066,1.1101,1.2448,1.2448,1.2963,1.3022,1.2477,1.2448,1.2448,1.2448,1.3208,1.3605,1.3605,1.3605,1.3605,1.3605,1.3605,1.3605,-0.8508,-0.8558,-0.8309,-0.707,-0.5583,-0.4396,-0.4396,-0.4396,-0.3564,-0.0616,-0.1316,0.0,-0.2465,-0.2465,0.0,0.0,0.0,0.0,-0.7284,-0.7139,-0.671,0.0,-0.6081,0.0,-0.5667,-0.5243,-0.5325,0.0,-0.5536,-0.499,-0.4736,-0.5414,-0.5811,-0.5811,-0.5811,-0.2566,0.4193,1.1359,1.4911,1.4911,1.4774,1.468,1.4607,1.4522,1.4488,1.4499,0.0,1.4697,1.4794,1.4734,1.4701,1.4691,1.4563,1.4417,1.4325,1.459,1.4914,1.5209,1.5159,1.4754,1.4271,1.4271,1.4271,1.4271,1.4271,1.4721,1.5245,1.5299,1.5303,1.5303,1.5303,1.4352,1.3396,1.3396,1.3396,1.3396,1.3396,1.3396,1.3294,1.294,1.2503,1.2318,1.2678,1.2735,1.2885,1.3329,1.3396,1.3396,1.3396,1.3396,1.3085,1.2277,1.2522,1.2216,1.0981,1.2506,1.3543,1.3605,1.4167,1.435,1.4001,1.3741,1.3605,1.3605,1.3605,1.3726,1.3987,1.3987,1.3859,1.3605,1.3605,1.3605,-0.8483,-0.8508,-0.7911,-0.5489,-0.4639,-0.4385,-0.4349,-0.4069,-0.3097,-0.0533,0.0,0.0,0.0,0.0,-0.085,-0.3473,0.0,-0.7214,-0.6937,-0.6908,-0.6676,-0.607,-0.5998,-0.5723,-0.5039,-0.4882,-0.5637,-0.7569,-0.615,-0.536,-0.5783,-0.5811,-0.5811,-0.5811,-0.3973,0.2844,1.5081,1.5189,1.5189,1.5209,1.4832,1.4607,1.4488,1.4488,1.4533,1.46,1.4737,0.0,1.4776,1.4724,1.4701,1.4651,1.4552,1.4417,1.4375,1.4977,1.5189,1.5183,1.512,1.5092,1.5092,1.5092,1.5092,1.5094,1.5124,1.5211,1.5303,1.5303,1.5303,1.5251,1.5087,1.4238,1.3413,1.3495,1.3511,1.3511,1.3511,1.3511,1.3312,1.261,1.2407,1.2581,1.3294,1.3396,1.3396,1.3396,1.3396,1.3396,1.3396,1.3311,1.3013,1.2423,1.2995,1.3396,1.3396,1.3396,1.3446,1.3575,1.4154,1.4488,1.4488,1.4001,1.3665,1.3605,1.3682,1.3973,1.4488,1.4488,1.4232,1.3711,1.3636,1.3605,-0.8364,-0.8508,-0.842,-0.8033,-0.6153,-0.4337,-0.4053,-0.232,0.0,0.0,0.0,0.0,0.0,0.0,-0.085,-0.3473,-0.4066,-0.4824,-0.6648,-0.6908,-0.6676,0.0,-0.5998,-0.5943,-0.5797,-0.5328,0.0,0.0,0.0,-0.5718,-0.5804,-0.5811,-0.5811,-0.5811,0.5485,1.2723,1.5189,1.5189,1.5189,1.5189,1.4747,1.4511,1.4488,1.4488,1.4687,1.4984,1.4859,0.0,1.4714,1.4693,1.4629,1.4522,1.4517,1.4417,1.4375,1.4977,1.5189,1.5183,1.512,1.5092,1.5092,1.5092,1.5092,1.5118,1.5231,1.5287,1.5303,1.5303,1.5303,1.505,1.4,1.3572,1.3528,1.4023,1.4132,1.4132,1.4132,1.4132,1.4087,1.3955,1.3524,1.3243,1.3379,1.3396,1.3396,1.3396,1.3396,1.3396,1.3396,1.2829,1.262,1.3138,1.3329,1.3396,1.3396,1.3396,1.3413,1.3446,1.4101,1.4488,1.4488,1.4387,1.4114,1.362,1.4083,1.4405,1.4488,1.4488,1.4453,1.4338,1.383,1.3605,-0.8415,-0.8508,-0.8125,-0.6586,-0.5168,-0.414,-0.4153,0.0,0.0,0.0,0.0,0.0,0.0,0.0,0.0,-0.3473,-0.362,-0.3794,-0.4926,-0.585,0.0,-0.6189,-0.6153,-0.5979,0.0,-0.6104,0.0,0.0,0.0,-0.5811,-0.5811,-0.5811,-0.5967,-0.6315,0.7492,1.5023,1.5189,1.5189,1.5177,1.514,1.4909,1.4804,1.4804,1.4804,1.4971,1.5244,1.4931,0.0,1.5036,1.4738,1.4563,1.4488,1.4417,1.4552,1.4802,1.5082,1.5189,1.5195,1.5196,1.5206,1.5206,1.5206,1.5173,1.5175,1.5264,1.5303,1.5303,1.5303,1.5303,1.5006,1.3731,1.3622,1.3938,1.4242,1.4293,1.4293,1.4293,1.4293,1.4293,1.4293,1.4064,1.3865,1.3865,1.3608,1.3396,1.3396,1.3396,1.3511,1.3836,1.3522,1.3311,1.3396,1.3396,1.3396,1.3396,1.3396,1.3396,1.3396,1.4037,1.4429,1.4506,1.4488,1.4362,1.4069,1.435,1.4488,1.4488,1.4488,1.4488,1.4488,1.4206,1.3991,-0.8508,-0.8403,-0.7608,-0.4734,-0.4012,-0.3911,-0.3548,-0.1665,0.0,0.0,0.0,0.0,0.0,0.0,-0.0671,0.0,-0.2844,-0.2673,-0.2673,-0.4625,-0.6135,0.0,-0.6153,0.0,-0.5166,-0.6684,0.0,0.0,0.0,0.0,-0.5811,-0.3005,-0.1609,-0.2082,0.8895,1.4928,1.5209,1.5197,1.5146,1.5092,1.5092,1.5092,1.5092,1.5092,1.5216,1.537,1.5075,0.0,0.0,1.4874,1.4671,1.4652,1.4558,1.4825,1.5246,1.5246,1.5231,1.5226,1.5284,1.5285,1.5278,1.5278,1.5249,1.5207,1.5289,1.5303,1.5303,1.5303,1.521,1.487,1.3849,1.3952,1.4293,1.4293,1.4293,1.4293,1.4293,1.4203,1.4185,1.4411,1.4446,1.4387,1.4145,1.3715,1.3396,1.3396,1.3511,1.3761,1.4242,1.4293,1.4119,1.3638,1.3592,1.3544,1.3413,1.3511,1.3592,1.3592,1.4037,1.4344,1.4453,1.4476,1.4488,1.4488,1.4488,1.4488,1.4488,1.4488,1.4488,1.4488,1.4488,1.4405,-0.8533,-0.8094,-0.7147,-0.4912,-0.4355,-0.3662,-0.1009,0.0,0.0,0.0,0.0,0.0,0.0,0.0,-0.0075,-0.0313,0.0,-0.0313,-0.0313,-0.3753,-0.6278,-0.6295,0.0,0.0,-0.5108,0.0,0.0,0.0,0.0,0.0,-0.5811,0.6032,1.2931,1.3161,1.4461,1.5165,1.5189,1.5133,1.5099,1.5092,1.5092,1.5092,1.5092,1.5092,1.5216,1.5391,1.5359,0.0,0.0,1.5245,1.5229,1.5222,1.5286,1.534,1.5374,1.5374,1.5348,1.5299,1.5306,1.5254,1.5217,1.5217,1.521,1.5207,1.5289,1.5303,1.5303,1.5303,1.4858,1.4356,1.4237,1.4268,1.4293,1.4293,1.4293,1.4293,1.4293,1.3865,1.3768,1.4757,1.493,1.4621,1.3652,1.3446,1.3396,1.3396,1.3865,1.4242,1.4293,1.4293,1.4281,1.4211,1.4229,1.3995,1.3446,1.3909,1.4229,1.4229,1.4268,1.4306,1.4319,1.4429,1.4488,1.4488,1.4488,1.4488,1.4488,1.4488,1.4488,1.4488,1.4488,1.4563,-0.6053,-0.5854,-0.5468,-0.4609,-0.4396,-0.4036,-0.2654,0.0,0.0,0.0,0.0,0.0,0.0,0.0,0.0,0.0,0.0,-0.0482,-0.1851,-0.3432,-0.4892,-0.6151,-0.5593,0.0,0.0,0.0,0.0,0.0,0.0,0.0,0.6526,1.1736,1.4859,1.5183,1.5189,1.5189,1.5189,1.5127,1.5092,1.5092,1.5092,1.5092,1.5106,1.5237,1.5311,1.5391,1.5406,0.0,0.0,1.5306,1.5295,1.5307,1.5363,1.5409,1.5402,1.5402,1.536,1.5306,1.5306,1.5273,1.525,1.525,1.525,1.5274,1.5299,1.5303,1.5303,1.5303,1.4808,1.4293,1.4293,1.4293,1.4362,1.4648,1.4727,1.4727,1.4727,1.4537,1.4478,1.493,1.4478,1.391,1.3479,1.3952,1.4259,1.3977,1.4145,1.4293,1.4293,1.4293,1.4293,1.4293,1.4293,1.4198,1.3966,1.4159,1.4293,1.4293,1.4293,1.4293,1.4293,1.4344,1.4417,1.4506,1.4488,1.4488,1.4488,1.4488,1.4488,1.4488,1.4488,1.4574,-0.4373,-0.4396,-0.4373,-0.4277,-0.4252,-0.399,-0.2975,-0.1327,0.0,0.0,0.0,0.0,0.0,0.0,0.0,0.0,0.0,-0.0561,-0.2177,-0.2945,-0.3843,0.0,0.0,0.0,0.0,0.0,0.0,0.0,0.0,0.0,1.4701,1.4785,1.4952,1.5183,1.5189,1.5183,1.5165,1.512,1.5092,1.5092,1.5092,1.5071,1.5023,1.5275,1.539,1.5409,1.5377,0.0,0.0,1.5306,1.5313,1.5329,1.537,1.539,1.5409,1.5409,1.5362,1.5325,1.5286,1.5275,1.5303,1.5303,1.5303,1.5303,1.5303,1.5303,1.5294,1.5229,1.4863,1.4515,1.4515,1.4515,1.4585,1.4921,1.4998,1.4998,1.4998,1.4998,1.4998,1.4998,1.4389,1.3881,1.3881,1.4384,1.4687,1.4356,1.4293,1.4293,1.4293,1.4293,1.4293,1.4293,1.4293,1.4293,1.4293,1.4293,1.4293,1.4293,1.4293,1.4293,1.4293,1.4293,1.4344,1.4441,1.4476,1.4488,1.4488,1.4488,1.4488,1.4488,1.4488,1.4574,-0.4302,-0.4396,-0.4314,-0.3991,-0.3913,-0.3226,-0.0627,-0.0015,0.0,0.0,0.0,0.0,0.0,0.0,0.0,0.0,0.0,-0.0013,-0.0026,-0.215,0.0,0.0,0.0,-0.5108,0.0,0.0,0.0,0.0,0.0,0.0,1.4701,1.5015,1.5209,1.5189,1.5189,1.5165,1.5099,1.5092,1.5092,1.5092,1.5092,1.5011,1.4832,1.5218,1.5409,0.0,0.0,0.0,0.0,1.5306,1.534,1.539,1.5409,1.5407,1.5402,1.5402,1.5403,1.5376,1.526,1.524,1.5303,1.5303,1.5303,1.5303,1.5303,1.5303,1.5255,1.5057,1.4998,1.499,1.499,1.499,1.4998,1.4998,1.4998,1.4998,1.4998,1.4998,1.4998,1.4998,1.499,1.499,1.499,1.4614,1.4306,1.4293,1.4293,1.4293,1.4293,1.4293,1.4293,1.4293,1.4293,1.4293,1.4293,1.4293,1.4293,1.4293,1.4293,1.4293,1.4293,1.4293,1.4293,1.4306,1.4429,1.4488,1.4488,1.4488,1.4488,1.4488,1.4488,1.4574,-0.4093,-0.406,-0.3604,-0.1712,-0.1237,-0.1014,-0.0194,0.0,0.0,0.0,0.0,0.0,0.0,0.0,0.0,0.0,0.0,0.0,0.0,0.0,0.0,-0.3479,-0.343,0.0,0.0,0.0,0.0,0.0,0.0,0.0,1.1471,1.159,1.1709,1.1709,1.3938,1.512,1.5092,1.519,1.519,1.5092,1.496,1.4859,1.4804,1.5213,1.5405,0.0,0.0,0.0,0.0,1.5299,1.5301,1.5345,1.5385,1.5407,1.5402,1.5402,1.5348,1.525,1.5218,1.5234,1.5303,1.5303,1.5303,1.5303,1.5303,1.5303,1.5255,1.5049,1.4998,1.4998,1.4998,1.4998,1.4998,1.4998,1.4998,1.4998,1.4998,1.4756,1.4624,1.493,1.4747,1.4526,1.4526,1.4399,1.4411,1.4737,1.4515,1.4293,1.4293,1.4293,1.4293,1.4293,1.4293,1.4293,1.4293,1.4293,1.4293,1.4293,1.4595,1.4776,1.4776,1.4776,1.4794,1.4857,1.4624,1.4488,1.4488,1.4488,1.4488,1.4488,1.4488,1.4511,-0.2487,-0.243,-0.2042,-0.0402,0.0,0.0,0.0,0.0,0.0,0.0,0.0,0.0,0.0,0.0,-0.0308,-0.1245,-0.1399,0.0,0.0,0.0,0.0,-0.4161,0.0,0.0,0.0,0.0,0.0,0.0,0.0,0.0,1.175,1.0662,1.0093,1.0093,1.211,1.3819,1.5092,1.5221,1.5259,1.5177,1.504,1.5002,1.5031,1.5282,1.5397,0.0,0.0,0.0,0.0,1.5307,1.5308,1.5338,1.537,1.5394,1.5402,1.5402,1.5353,1.5268,1.525,1.5274,1.5303,1.5303,1.5303,1.5294,1.5212,1.524,1.5255,1.5049,1.4998,1.4998,1.4998,1.4998,1.4998,1.4998,1.4998,1.4998,1.4998,1.4627,1.4405,1.4687,1.4504,1.4368,1.4519,1.4552,1.4595,1.4727,1.4492,1.435,1.4549,1.4411,1.4381,1.4549,1.4552,1.4492,1.4319,1.4293,1.4393,1.4541,1.4832,1.4998,1.4998,1.4998,1.4955,1.4885,1.4624,1.4488,1.4488,1.4488,1.4488,1.4488,1.4488,1.4488,0.0,0.0,0.0,0.0,0.0,0.0,0.0,0.0,0.0,0.0,0.0,0.0,0.0,0.0,-0.0755,-0.3064,-0.3582,0.0,0.0,-0.347,0.0,0.0,0.0,0.0,0.0,0.0,0.0,0.0,0.0,0.0,1.4724,1.178,1.0211,1.046,1.0455,1.1972,1.5082,1.5245,1.5307,1.5303,1.5303,1.5329,1.5402,1.5401,1.5362,0.0,0.0,0.0,0.0,1.5303,1.5334,1.5392,1.5395,1.5402,1.5402,1.5398,1.5397,1.5371,1.533,1.5303,1.5308,1.5313,1.5293,1.5255,1.5057,1.5133,1.524,1.5049,1.4998,1.4998,1.5006,1.5006,1.4998,1.5006,1.5006,1.5006,1.4998,1.4627,1.4293,1.4293,1.4293,1.4434,1.4877,1.4938,1.4804,1.4381,1.4331,1.4515,1.4938,1.4624,1.4526,1.4947,1.4998,1.4822,1.4387,1.4356,1.4549,1.4982,1.4998,1.4998,1.4998,1.4998,1.4841,1.4517,1.4488,1.4488,1.4488,1.4488,1.4488,1.4488,1.4488,1.4488,0.0,0.0,0.0,0.0,0.0,0.0,0.0,0.0,0.0,0.0,0.0,0.0,0.0,0.0,-0.0196,-0.0769,0.0,0.0,-0.3693,0.0,0.0,-0.4192,0.0,0.0,0.0,0.0,0.0,0.0,0.0,1.4794,1.4995,1.1899,1.1282,1.3838,1.4015,1.4458,1.5244,1.5283,1.5298,1.5303,1.5259,1.528,1.5402,1.5353,1.5303,0.0,0.0,0.0,1.5295,1.5303,1.5334,1.5392,1.5395,1.5402,1.5397,1.5288,1.5283,1.533,1.5317,1.5303,1.5317,1.5355,1.5338,1.5255,1.5057,1.5019,1.5057,1.5014,1.4998,1.5014,1.5057,1.5046,1.5014,1.5057,1.509,1.5057,1.5014,1.4627,1.4293,1.4293,1.4293,1.4344,1.4446,1.4469,1.4422,1.4319,1.4614,1.4886,1.499,1.4904,1.4886,1.499,1.4998,1.4965,1.4841,1.485,1.4886,1.499,1.4998,1.4998,1.4998,1.4998,1.4841,1.4517,1.4488,1.4488,1.4488,1.4488,1.4488,1.4488,1.4488,1.4488,0.0,0.0,0.0,0.0,0.0,0.0,0.0,0.0,0.0,0.0,0.0,-0.035,-0.1483,-0.1693,-0.1693,0.0,-0.2697,0.0,0.0,0.0,0.0,-0.4211,0.0,0.0,0.0,0.0,0.0,0.0,0.0,1.4955,1.5085,1.3379,1.2519,1.2806,1.2904,1.3713,1.528,1.5298,1.5275,1.5245,1.5232,1.5245,1.5358,1.5326,1.5313,0.0,0.0,0.0,1.5293,1.5329,1.5374,1.5409,1.54,1.5364,1.531,1.5251,1.5279,1.5303,1.5303,1.5303,1.5302,1.5374,1.5352,1.5255,1.5057,1.5022,1.5046,1.5006,1.5022,1.5042,1.5085,1.5064,1.5068,1.5085,1.5092,1.5071,1.5014,1.4627,1.4293,1.4293,1.4293,1.4293,1.4293,1.4293,1.4293,1.4293,1.4526,1.4756,1.4982,1.4998,1.4998,1.4998,1.4998,1.4998,1.4998,1.4998,1.4998,1.4998,1.4998,1.4998,1.4998,1.485,1.4695,1.4499,1.4488,1.4488,1.4488,1.4488,1.4488,1.4488,1.4488,1.4522,0.0,0.0,0.0,0.0,0.0,0.0,0.0,0.0,0.0,0.0,0.0,0.0,0.0,-0.3693,0.0,0.0,0.0,0.0,-0.446,-0.4587,-0.4567,0.0,0.0,0.0,0.0,0.0,0.0,0.0,0.0,1.4328,1.4328,1.4825,1.3806,1.0986,1.0942,1.2374,1.5299,1.5319,1.5298,1.5226,1.5222,1.5256,1.5318,1.5313,1.5346,1.5391,0.0,0.0,1.5311,1.5377,1.5409,1.5402,1.5402,1.5326,1.5201,1.5284,1.5303,1.5303,1.5303,1.5303,1.5302,1.5374,1.5342,1.5234,1.5064,1.5053,1.5064,1.5022,1.5053,1.5092,1.5092,1.5092,1.5092,1.5092,1.5085,1.5064,1.503,1.4637,1.4293,1.4293,1.4293,1.4293,1.4293,1.4293,1.4293,1.4293,1.435,1.456,1.4938,1.4998,1.4998,1.4998,1.4998,1.4998,1.4998,1.4998,1.4998,1.4998,1.5014,1.5014,1.5014,1.4677,1.4488,1.4488,1.4488,1.4488,1.4488,1.4488,1.4488,1.4488,1.4488,1.4563,0.0,0.0,0.0,0.0,0.0,0.0,0.0,0.0,0.0,0.0,0.0,0.0,0.0,-0.3693,-0.3495,0.0,0.0,-0.4078,0.0,0.0,0.0,0.0,0.0,0.0,0.0,0.0,0.0,0.0,0.0,1.088,1.088,1.357,1.4922,1.4512,1.4506,1.4798,1.5373,1.5373,1.5371,1.5368,1.5369,1.5371,1.539,1.5371,1.539,1.539,0.0,1.5349,1.5382,1.5391,1.54,1.5402,1.5402,1.5326,1.5201,1.5284,1.5303,1.5303,1.5303,1.5303,1.5302,1.5374,1.5283,1.512,1.5085,1.5042,1.5014,1.5006,1.5053,1.5092,1.5092,1.5092,1.5092,1.5092,1.5068,1.503,1.5064,1.467,1.4293,1.4293,1.4293,1.4293,1.4293,1.4293,1.4293,1.4293,1.4645,1.4921,1.499,1.4998,1.4998,1.4998,1.4998,1.4998,1.4998,1.4998,1.4998,1.4998,1.5042,1.5078,1.5078,1.4717,1.4488,1.4488,1.4488,1.4488,1.4488,1.4488,1.4488,1.4488,1.4488,1.4499,0.0,0.0,0.0,0.0,0.0,0.0,0.0,0.0,0.0,0.0,0.0,0.0,0.0,0.0,-0.321,-0.4033,0.0,-0.4345,0.0,0.0,0.0,0.0,0.0,0.0,0.0,0.0,0.0,0.0,0.0,0.0,1.0096,1.1595,1.2502,1.2598,1.2608,1.35,1.5382,1.541,1.5387,1.5353,1.5371,1.5405,1.5408,1.539,1.539,1.5409,0.0,1.5373,1.5391,1.54,1.5402,1.5402,1.5402,1.5338,1.5269,1.5294,1.5303,1.5303,1.5303,1.5319,1.5355,1.5382,1.5255,1.5092,1.5092,1.5071,1.5042,1.5042,1.509,1.5092,1.5092,1.5092,1.5092,1.5092,1.4911,1.4737,1.4776,1.4537,1.4293,1.4293,1.4293,1.4293,1.4293,1.4515,1.4687,1.4687,1.485,1.4998,1.4998,1.4998,1.4998,1.4998,1.4998,1.4998,1.4998,1.4998,1.5022,1.5042,1.5078,1.5,1.4776,1.4592,1.4488,1.4488,1.4488,1.4488,1.4488,1.4488,1.4488,1.4488,1.4488,1.549,0.0,0.0,0.0,0.0,0.0,0.0,0.0,-0.0312,0.0,0.0,0.0,0.0,0.0,-0.159,0.0,-0.2788,-0.1951,0.0,0.0,0.0,0.0,0.0,0.0,0.0,0.0,0.0,0.0,0.0,0.0,0.0,1.0127,1.017,0.9852,0.9101,0.9879,1.1553,1.4165,1.4979,1.5367,1.5312,1.5371,1.5408,1.5391,1.5391,1.5391,1.539,1.5407,1.5402,1.5402,1.5402,1.5402,1.5401,1.5371,1.5349,1.5303,1.5303,1.5303,1.5308,1.533,1.5352,1.5387,1.5359,1.5236,1.5092,1.5092,1.5092,1.5092,1.5092,1.5092,1.5092,1.5092,1.5092,1.5092,1.5092,1.4857,1.4603,1.4476,1.4464,1.4469,1.4469,1.4469,1.4469,1.4469,1.4766,1.4998,1.4998,1.4998,1.4998,1.4998,1.4998,1.4998,1.4998,1.5014,1.4998,1.4886,1.4877,1.4894,1.496,1.496,1.4813,1.4511,1.4488,1.4488,1.4488,1.4488,1.4488,1.4488,1.4488,1.4488,1.4488,1.4522,1.6362,0.0,0.0,0.0,0.0,0.0,0.0,0.0,-0.125,0.0,-0.0332,0.0,0.0,0.0,0.093,0.4335,0.4178,0.691,0.0,0.0,0.0,0.0,0.0,0.0,0.0,0.0,0.0,0.0,0.0,0.0,0.0,1.0186,1.0196,0.8748,0.5582,0.8607,1.0392,1.0572,1.3726,1.5348,1.5387,1.541,1.5391,1.5391,1.5391,1.5406,1.5399,1.5397,1.5402,1.5402,1.5402,1.5402,1.5398,1.5326,1.5293,1.5303,1.5303,1.5303,1.5317,1.5368,1.5407,1.5374,1.5188,1.5113,1.5092,1.5092,1.5092,1.5092,1.5092,1.5092,1.5092,1.5092,1.5092,1.5092,1.5092,1.5078,1.4917,1.4422,1.4656,1.4938,1.4938,1.4938,1.4938,1.4938,1.4982,1.4998,1.4998,1.4998,1.4998,1.4998,1.4998,1.4998,1.4998,1.5068,1.4944,1.4567,1.4533,1.4533,1.4545,1.4545,1.4533,1.4488,1.4488,1.4488,1.4488,1.4488,1.4488,1.4488,1.4488,1.4488,1.4499,1.4629,1.6446,0.0,0.0,0.0,0.0,0.0,0.0,0.0,-0.2191,-0.2475,-0.181,0.0176,0.0,0.0,0.0,-0.0143,0.42,0.6071,0.0,0.0,0.0,0.0,0.0,0.0,0.0,0.0,0.0,0.0,0.0,0.0,0.0,0.7139,0.9081,0.9667,0.8372,0.9568,1.0232,1.0195,1.1517,1.2202,1.2245,1.4375,1.539,1.5406,1.5352,1.5367,1.5394,1.54,1.5402,1.5402,1.5402,1.5383,1.5336,1.5359,1.5359,1.5359,1.5359,1.5359,1.5349,1.5255,1.5201,1.5204,1.5127,1.5092,1.5092,1.5092,1.5092,1.5092,1.5092,1.5092,1.5092,1.5092,1.5092,1.5042,1.4794,1.4928,1.5038,1.483,1.4902,1.4998,1.4998,1.4998,1.4998,1.4998,1.4998,1.4998,1.4998,1.4998,1.4895,1.4595,1.4635,1.4695,1.4695,1.4717,1.4666,1.4511,1.4488,1.4488,1.4488,1.4488,1.4488,1.4488,1.4488,1.4488,1.4488,1.4488,1.4488,1.4488,1.4488,1.4488,1.4554,1.6732,1.8414,0.0,0.0,0.0,0.0,0.0,0.0,-0.0383,-0.03,-0.03,-0.03,0.3292,0.0,0.0,0.0,0.0,0.0,0.0,0.0,0.0,0.0,0.0,0.0,0.0,0.0,0.0,0.0,0.0,0.0,0.0,0.0,0.0,0.7957,0.9151,1.0235,0.9184,0.8589,0.858,0.9723,1.0293,1.0331,1.3769,1.5408,1.5402,1.535,1.5366,1.5402,1.5402,1.5404,1.5406,1.5406,1.5364,1.533,1.5377,1.539,1.539,1.539,1.539,1.5374,1.517,1.5092,1.5092,1.5092,1.5092,1.5092,1.5092,1.5092,1.5092,1.5092,1.5092,1.5092,1.5092,1.5092,1.5023,1.4747,1.4911,1.5092,1.5092,1.5057,1.503,1.5006,1.4998,1.5006,1.503,1.5014,1.4998,1.4998,1.4998,1.4822,1.4368,1.4417,1.4488,1.4488,1.4488,1.4488,1.4488,1.4488,1.4488,1.4488,1.4488,1.4488,1.4488,1.4488,1.4488,1.4488,1.4488,1.4488,1.4488,1.4488,1.5031,1.6078,1.8471,1.9602,0.0,0.0,-0.0,0.0,0.0,0.0,0.3749,0.49,0.49,0.49,0.0,0.8779,0.5578,0.0,0.0,0.5083,0.0,0.0,0.0,0.0,0.0,0.0,0.0,0.0,0.0,0.0,0.0,0.0,0.0,0.0,0.0,0.7006,0.6701,1.0081,0.6918,0.5145,0.5156,0.8574,1.0292,1.0344,1.3723,1.5343,1.5344,1.5389,1.5402,1.5402,1.5402,1.5407,1.5391,1.5391,1.5404,1.539,1.539,1.539,1.539,1.5409,1.5409,1.5374,1.517,1.5092,1.5092,1.5092,1.5092,1.5092,1.5092,1.5092,1.5092,1.5092,1.5092,1.5092,1.5092,1.5092,1.5092,1.5092,1.5092,1.5092,1.5092,1.5092,1.5071,1.5014,1.4998,1.5022,1.5078,1.5046,1.4998,1.4998,1.4998,1.4822,1.4368,1.4417,1.4488,1.4488,1.4488,1.4488,1.4488,1.4488,1.4488,1.4488,1.4488,1.4488,1.4488,1.4488,1.4488,1.4488,1.4524,1.4543,1.4543,1.4543,1.6188,1.9305,1.9508,1.9602,0.0,0.0,0.0,-0.1523,0.0,0.0,0.0,0.49,0.0,0.0,0.5719,0.6124,0.5119,0.0,0.0,0.0,0.0,0.0,0.0,0.0,0.0,0.0,0.0,0.0,0.0,0.0,0.0,0.0,0.0,0.0,0.0,0.7944,0.9181,1.0234,0.9296,0.8749,0.875,0.9783,1.0308,1.0305,1.1328,1.1795,1.1823,1.4277,1.5406,1.541,1.541,1.539,1.5391,1.54,1.5403,1.539,1.539,1.539,1.5382,1.5231,1.5193,1.5182,1.5127,1.5092,1.5092,1.5092,1.5092,1.5092,1.5092,1.5092,1.5092,1.5092,1.5092,1.5092,1.5092,1.5092,1.5092,1.5092,1.5092,1.5092,1.5092,1.5092,1.5071,1.5014,1.4998,1.493,1.4717,1.4656,1.4632,1.4526,1.4581,1.456,1.4331,1.4417,1.4488,1.4488,1.4488,1.4488,1.4488,1.4488,1.4488,1.4488,1.4488,1.4488,1.4488,1.4488,1.4488,1.4488,1.672,1.7876,1.7876,1.7876,1.8372,1.9305,1.9508,1.9602,0.0,0.0,0.0,0.0317,0.1169,0.2481,0.4487,0.0,0.0,0.0,0.0,0.4983,0.4953,0.4965,0.0,0.0,0.0,0.0,0.0,0.0,0.0,0.0,0.0,0.0,0.0,0.0,0.0,0.0,0.0,0.0,0.0,0.7804,0.8822,1.0251,1.0293,1.0293,1.0292,1.0308,1.0308,1.0293,1.031,1.0273,1.0313,1.2422,1.412,1.5391,1.5379,1.5368,1.5368,1.5394,1.539,1.539,1.539,1.5342,1.5274,1.514,1.5092,1.5092,1.5092,1.5092,1.5092,1.5092,1.5092,1.5092,1.5092,1.5092,1.5092,1.5092,1.5092,1.5092,1.5092,1.5092,1.5092,1.5092,1.5092,1.5064,1.4902,1.4849,1.4859,1.4823,1.4756,1.4677,1.4522,1.4453,1.4393,1.4306,1.4405,1.4464,1.4393,1.4441,1.4488,1.4488,1.4488,1.4488,1.4488,1.4488,1.4488,1.4488,1.4488,1.5068,1.6353,1.5178,1.5105,1.639,1.8298,1.9305,1.9305,1.9305,1.9353,1.9431,1.9555,1.9602,0.0,0.0,0.0,0.4084,0.4907,0.0,0.4981,0.2652,0.1316,0.4369,0.0,0.454,0.454,0.4795,0.6044,0.0,0.0,0.0,0.0,0.0,0.0,0.0,0.0,0.0,0.0,0.0,0.0,0.0,0.0,0.0,0.0,0.73,0.703,1.0195,1.0293,1.0292,1.0305,1.0306,1.0293,1.0305,1.0305,1.029,1.0293,1.0293,1.2168,1.5388,1.5333,1.5293,1.5306,1.5371,1.539,1.539,1.539,1.5287,1.5092,1.5092,1.5092,1.5092,1.5092,1.5092,1.5092,1.5092,1.5092,1.5092,1.5092,1.5092,1.5092,1.5092,1.5092,1.5092,1.5092,1.5071,1.5049,1.5049,1.5049,1.4952,1.4589,1.4488,1.4488,1.4488,1.4393,1.4356,1.4476,1.4381,1.4306,1.4319,1.4417,1.4488,1.4488,1.4488,1.4488,1.4488,1.4763,1.494,1.494,1.494,1.494,1.494,1.494,1.6243,1.9194,1.65,1.6316,1.9234,1.9305,1.9305,1.9305,1.9305,1.9383,1.9569,1.9583,1.9602,0.0,0.0,0.0,0.0,0.4941,0.4978,0.4993,0.4445,0.4121,0.4846,0.29,0.1068,0.1068,0.327,0.0,0.0,0.0,0.0,0.0,0.0,0.0,0.0,0.0,0.0,0.0,0.0,0.0,0.0,0.0,0.0,1.0265,0.9588,0.9531,1.0273,1.0291,1.0307,1.0305,1.0293,1.0308,0.0,1.0291,1.0293,1.0293,1.0293,1.2133,1.5319,1.5302,1.5323,1.5374,1.5387,1.539,1.539,1.539,1.5287,1.5092,1.5092,1.5092,1.5092,1.5092,1.5092,1.5092,1.5092,1.5092,1.5092,1.5092,1.5092,1.5092,1.5092,1.5092,1.5092,1.5092,1.4876,1.4624,1.4624,1.4624,1.4603,1.4511,1.4488,1.4488,1.4488,1.4494,1.4483,1.4506,1.4381,1.4331,1.4441,1.4476,1.4488,1.4488,1.4488,1.4488,1.4488,1.6757,1.8262,1.8262,1.8262,1.8262,1.8262,1.8262,1.8574,1.9271,1.8629,1.8592,1.9305,1.9305,1.9305,1.9305,1.9305,1.932,1.9368,1.9541,1.9602,0.0,0.0,0.0,0.2135,0.0,0.4615,0.2979,0.3854,0.454,0.2938,0.1221,0.0505,0.2138,0.3907,0.0,0.0,0.0,0.0,0.0,0.0,0.0,0.0,0.0,0.0,0.0,0.0,0.0,0.0,0.0,1.0307,1.029,1.0293,1.0293,1.0293,1.0263,1.0262,1.0293,1.0309,1.0307,1.0291,1.0293,1.0271,1.0253,1.0291,1.2124,1.5308,1.533,1.5365,1.539,1.539,1.539,1.5385,1.5299,1.5199,1.5092,1.5092,1.5092,1.5092,1.5092,1.5092,1.5092,1.5092,1.5092,1.5092,1.5092,1.5092,1.5092,1.5092,1.5092,1.5064,1.4857,1.4656,1.4488,1.4488,1.4488,1.4488,1.4488,1.4488,1.4488,1.4488,1.4488,1.4995,1.6536,1.5464,1.4417,1.4488,1.4488,1.4488,1.4488,1.4488,1.5086,1.6628,1.8298,1.9305,1.9305,1.9305,1.9305,1.9305,1.9305,1.9305,1.9305,1.9305,1.9305,1.9305,1.9305,1.9305,1.9305,1.9305,1.9353,1.9446,1.9446,1.9508,0.0,0.0,0.0,0.0,0.2135,0.0,0.0654,0.2156,0.3358,0.0572,0.0466,0.1555,0.381,0.4704,0.0,0.0,0.0,0.0,0.0,0.0,0.0,0.0,0.0,0.0,0.0,0.0,0.0,0.0,0.0,1.0292,1.0293,1.0293,1.0292,1.0272,1.0236,1.0244,1.0305,1.0306,1.029,1.0293,1.0292,0.9944,0.9336,1.0009,1.1809,1.4461,1.5115,1.539,1.5409,1.5368,1.5339,1.5329,1.5164,1.5092,1.5092,1.5092,1.5092,1.5092,1.5092,1.5092,1.5092,1.5092,1.5092,1.5092,1.5092,1.5092,1.5085,1.5027,1.4992,1.4928,1.46,1.4488,1.4488,1.4488,1.4488,1.4488,1.4488,1.4488,1.4488,1.4488,1.4958,1.6169,1.8831,1.7087,1.5343,1.5343,1.5343,1.5343,1.5343,1.5343,1.6353,1.9029,1.9305,1.9305,1.9305,1.9305,1.9305,1.9305,1.9305,1.9305,1.9305,1.9305,1.9243,1.9097,1.9243,1.9305,1.9289,1.918,1.9261,1.9541,1.9308,1.9292,0.0,0.0,0.0,0.0,0.0346,0.0558,0.0,0.0,0.0534,0.0,0.2352,0.3654,0.1147,0.311,0.0,0.0,0.0,0.0,0.0,0.0,0.0,0.0,0.0,0.0,0.0,0.0,0.0,0.0,1.0293,1.0308,1.0307,1.0307,1.0279,1.0211,1.0252,1.0289,1.0305,1.0291,1.0293,1.0293,1.024,0.8657,0.5893,0.8926,1.0507,1.1054,1.4089,1.539,1.5382,1.522,1.5133,1.5146,1.5106,1.5092,1.5092,1.5092,1.5092,1.5092,1.5092,1.5092,1.5092,1.5092,1.5092,1.5092,1.5092,1.5092,1.5034,1.4687,1.4589,1.4578,1.4511,1.4488,1.4488,1.4488,1.4488,1.4488,1.4488,1.4488,1.4488,1.4488,1.6757,1.8794,1.9231,1.8941,1.8647,1.8647,1.8647,1.8647,1.8647,1.8647,1.8812,1.9234,1.9305,1.9305,1.9305,1.9305,1.9305,1.9305,1.9305,1.9305,1.9305,1.9305,1.8998,1.8363,1.8964,1.9305,1.9289,1.866,1.8679,1.9338,1.9,1.8896,0.0,0.0,0.0,0.0,0.0,0.0,0.0,0.0,0.0,0.0,0.1205,0.2359,0.2772,0.0,0.0,0.0,0.0,0.0,0.0,0.0,0.0,0.0,0.0,0.0,0.0,0.0,0.0,0.0,1.0309,1.028,1.0243,1.029,1.0293,1.0251,1.0272,0.9368,0.7397,0.7382,0.8358,1.0305,1.0261,0.9474,0.8066,0.9607,1.0281,1.0343,1.1879,1.3581,1.5236,1.5146,1.3991,1.2481,1.4367,1.5092,1.5092,1.5092,1.5092,1.5092,1.5092,1.5092,1.5092,1.5092,1.5092,1.5092,1.5092,1.4944,1.4737,1.4556,1.4488,1.4921,1.672,1.7197,1.7197,1.7197,1.7197,1.7197,1.7197,1.7197,1.7197,1.7197,1.8317,1.9305,1.9305,1.9305,1.9305,1.9305,1.9305,1.9305,1.9305,1.9305,1.9305,1.9305,1.9305,1.9305,1.9305,1.8912,1.8679,1.8679,1.8679,1.8679,1.8679,1.8679,1.8526,1.8211,1.8506,1.8679,1.8679,1.8363,1.8363,1.8679,1.8752,1.8788,0.0,0.0,0.0,0.0,0.0,0.0,0.0,0.0,0.0,0.0,0.0,0.1053,0.4464,0.0,0.0,0.0,0.0,0.0,0.0,0.0,0.0,0.0,0.0,0.0,0.0,0.0,0.0,0.0,0.9792,1.0254,1.0229,1.0273,1.0305,1.0305,1.0307,0.9059,0.6443,0.6424,0.7726,1.0308,1.0308,1.0308,1.0308,1.0308,0.9821,0.9021,0.9878,1.1606,1.3895,1.4749,1.3628,1.1531,1.32,1.4341,1.5092,1.5092,1.5092,1.5092,1.5092,1.5092,1.5078,1.4976,1.4952,1.4952,1.4952,1.4747,1.4488,1.4488,1.4488,1.5252,1.8463,1.9305,1.9305,1.9305,1.9305,1.9305,1.9305,1.9305,1.9305,1.9305,1.9305,1.9305,1.9305,1.9305,1.9305,1.9305,1.9305,1.9305,1.9305,1.9305,1.9305,1.9305,1.9305,1.9227,1.9049,1.8524,1.8211,1.8211,1.8211,1.8211,1.8211,1.8211,1.8211,1.8211,1.8211,1.8211,1.8211,1.8211,1.8211,1.8211,1.8696,1.8931,0.0,0.0,0.0,0.0,0.0,0.0,0.0,0.0,0.0,0.0,0.0,0.1046,0.4473,0.0,0.0,0.0,0.0,0.0,0.0,0.0,0.0,0.0,0.0,0.0,0.0,0.0,0.0,0.0,0.8366,1.0233,1.0289,1.0305,1.0305,1.0305,1.0292,1.0215,1.0039,1.0029,1.0114,1.0308,1.0308,1.0308,1.0308,1.0308,0.8495,0.5546,0.8729,1.0201,1.0613,1.38,1.4997,1.4545,1.1527,1.2303,1.5092,1.5092,1.5092,1.5092,1.5092,1.5092,1.5049,1.4656,1.4533,1.4533,1.4533,1.4511,1.4488,1.4488,1.4488,1.5252,1.8463,1.9305,1.9305,1.9305,1.9305,1.9305,1.9305,1.9305,1.9305,1.9305,1.9305,1.9305,1.9305,1.9305,1.9305,1.9305,1.9305,1.9305,1.9305,1.9305,1.9305,1.9305,1.9305,1.9033,1.8319,1.8232,1.8211,1.8211,1.8211,1.8211,1.8211,1.8211,1.8211,1.8211,1.8211,1.8211,1.8211,1.8211,1.8211,1.8232,1.8948,1.9274,0.0,0.0,0.0,0.0,0.0,0.0,0.0,0.0,0.0,0.0,0.0,0.1045,0.4469,0.5108,0.0,0.0,0.0,0.0,0.0,0.0,0.0,0.0,0.0,0.0,0.0,0.0,0.0,0.0,0.0,0.6933,0.6968,0.697,0.7987,1.0233,1.0293,0.9218,0.6987,0.9183,1.0308,1.0269,0.8027,0.6955,0.6953,0.6924,0.6222,0.5217,0.8636,1.0096,1.0192,1.1391,1.3169,1.4985,1.3821,1.4102,1.5153,1.5113,1.5092,1.5092,1.5092,1.5092,1.5023,1.4624,1.4488,1.4529,1.4607,1.4629,1.4607,1.4511,1.4488,1.5252,1.8463,1.9305,1.9305,1.9305,1.9305,1.9305,1.9305,1.9305,1.9305,1.9305,1.9305,1.9305,1.9305,1.9305,1.9305,1.9305,1.9305,1.9305,1.9305,1.9305,1.9132,1.8642,1.8603,1.8485,1.8232,1.8211,1.8211,1.8211,1.8211,1.8406,1.8895,1.8913,1.8913,1.8913,1.8913,1.866,1.8211,1.8679,1.8913,1.8912,1.918,1.9305,0.0,0.0,0.0,0.0,0.0,0.0,0.0,0.0,0.0,0.0,0.0897,0.2376,0.4642,0.5088,0.0,0.0,0.0,0.0,0.0,0.0,0.0,0.0,0.0,0.0,0.0,0.0,0.0,0.0,0.0,0.0,0.5096,0.5097,0.6152,0.8477,0.9687,0.9179,0.6877,0.7988,0.8553,0.8534,0.6213,0.5101,0.5101,0.5039,0.5631,0.6839,0.9117,1.0096,1.0096,1.0096,1.1402,1.3537,1.4736,1.5189,1.5189,1.5146,1.5064,1.4963,1.4919,1.4911,1.4849,1.46,1.3783,1.3125,1.4317,1.4764,1.4785,1.4556,1.5288,1.661,1.8739,1.9305,1.9305,1.9305,1.9305,1.9305,1.9305,1.9305,1.9305,1.9305,1.9305,1.9305,1.9305,1.9305,1.9305,1.9305,1.9081,1.9014,1.9274,1.9305,1.9097,1.8622,1.8565,1.8565,1.8565,1.8565,1.8565,1.8565,1.8565,1.8789,1.9274,1.9305,1.9822,2.0923,2.0941,2.0698,2.0218,1.9609,1.9305,1.9305,1.9305,1.9338,0.0,0.0,0.0,0.0,0.0,0.0,0.0,0.0,0.0,0.0,0.2671,0.4998,0.4998,0.5046,0.0,0.0,0.0,0.0,0.0,0.0,0.0,0.0,0.0,0.0,0.0,0.0,0.0,0.0,0.5094,0.5096,0.5098,0.5098,0.5098,0.5098,0.8473,1.0293,1.0308,0.6838,0.5101,0.5101,0.5101,0.5101,0.5099,0.5039,0.6858,1.0096,1.0001,1.0001,1.0096,1.0096,1.01,1.044,1.3863,1.5189,1.5189,1.5189,1.4992,1.4712,1.4556,1.4511,1.4492,1.44,1.2335,1.0463,1.3717,1.4895,1.5015,1.4614,1.6757,1.9179,1.9286,1.9305,1.9305,1.9305,1.9305,1.9305,1.9305,1.9305,1.9305,1.9305,1.9305,1.9305,1.9305,1.9305,1.9305,1.9305,1.8679,1.8505,1.9212,1.9305,1.9305,1.9305,1.9305,1.9305,1.9305,1.9305,1.9305,1.9305,1.9305,1.9326,1.9436,1.9436,2.0941,2.4135,2.419,2.419,2.419,2.0996,1.9436,1.9436,1.9436,1.9516,0.0,0.0,0.0,0.0,0.0,0.0,0.0,0.0,0.0,0.0,0.2671,0.4998,0.4998,0.5055,0.5096,0.0,0.0,0.0,0.0,0.0,0.0,0.0,0.0,0.0,0.0,0.0,0.0,0.0,0.5096,0.5097,0.5098,0.5098,0.5098,0.5098,0.8473,1.0293,1.0308,0.6838,0.5101,0.5101,0.5101,0.5084,0.5036,0.501,0.6858,0.9963,0.7489,0.7812,1.0101,1.0101,1.0105,1.044,1.3863,1.5189,1.5189,1.5189,1.5146,1.5045,1.4968,1.4936,1.4538,1.2114,1.2389,1.3844,1.4773,1.5101,1.508,1.4635,1.5141,1.6353,1.8702,1.9305,1.9305,1.9305,1.9305,1.9305,1.9305,1.9305,1.9305,1.9305,1.9305,1.9305,1.9305,1.9305,1.9305,1.9305,1.9132,1.9064,1.9274,1.9305,1.9305,1.9305,1.9305,1.9305,1.9305,1.9305,1.9305,1.9305,1.9305,2.0354,2.274,2.2832,2.3272,2.4171,2.419,2.419,2.419,2.329,2.2832,2.285,2.2508,2.2365,0.0,0.0,0.0,0.0,0.0,0.0,0.0,0.0,0.0,0.0,0.1545,0.3342,0.4785,0.5076,0.5104,0.0,0.0,0.0,0.0,0.0,0.0,0.0,0.0,0.0,0.0,0.5094,0.5095,0.5096,0.5097,0.5098,0.5098,0.6484,0.7265,0.726,0.9237,1.0309,1.0308,0.8281,0.7266,0.7266,0.7208,0.641,0.5056,0.6473,0.8219,0.9982,0.7989,0.7471,0.8018,0.8018,0.8018,0.8498,1.3324,1.5189,1.5189,1.5189,1.5189,1.5183,1.512,1.5092,1.4775,1.2859,1.2617,1.3308,1.4604,1.495,1.4839,1.4571,1.5472,1.6922,1.8812,1.9305,1.9305,1.9305,1.9305,1.9305,1.9305,1.9305,1.9305,1.9305,1.9305,1.9305,1.9305,1.9305,1.9305,1.9305,1.9305,1.9305,1.9305,1.9305,1.9305,1.9305,1.9305,1.9305,1.9305,1.9305,1.9877,2.1253,2.1327,2.2189,2.4116,2.419,2.4014,2.3598,2.3576,2.3576,2.3576,2.3994,2.3976,2.3576,2.3522,2.3494,0.0,0.0,0.0,0.0,0.0,0.0,0.0,0.0,0.0,0.0,0.0,0.0923,0.3982,0.4845,0.5109,0.5093,0.0,0.0,0.0,0.0,0.0,0.0,0.0,0.0,0.5094,0.5094,0.5096,0.5098,0.5098,0.5098,0.5098,0.8398,1.0291,1.031,1.0308,1.0308,1.029,1.029,1.029,1.031,1.0166,0.8513,0.5677,0.8724,1.0101,1.0096,1.0096,0.8195,0.5136,0.5501,0.5655,0.629,1.269,1.5189,1.5189,1.5189,1.5209,1.5171,1.5113,1.5092,1.5049,1.4749,1.2809,1.1041,1.3448,1.433,1.4488,1.4488,1.6812,1.9305,1.9305,1.9305,1.9305,1.9305,1.9305,1.9305,1.9305,1.9305,1.9305,1.9305,1.9305,1.9305,1.9305,1.9305,1.9305,1.9305,1.9305,1.9305,1.9305,1.9305,1.9305,1.9305,1.9305,1.9305,1.9305,1.9305,2.0651,2.3833,2.4132,2.4151,2.4034,2.4034,2.362,2.2712,2.2712,2.2712,2.2712,2.3598,2.3598,2.2816,2.3289,2.3494,0.0,0.0,0.0,0.0,0.0,0.0,0.0,0.0,0.0,0.0,0.0,0.0212,0.0866,0.3248,0.5096,0.5095,0.51,0.0,0.0,0.0,0.0,0.0,0.0,0.0,0.5094,0.5097,0.5098,0.5098,0.5098,0.5097,0.5095,0.8414,1.0293,1.031,1.0308,1.0293,1.0303,1.0303,1.0303,1.0302,1.0157,0.976,0.9126,0.9798,1.0108,1.0096,1.0096,0.8195,0.5309,0.8018,0.9114,0.9537,1.3613,1.5189,1.5189,1.5189,1.5159,1.5113,1.5099,1.5092,1.4667,1.1979,1.2319,1.342,1.1384,1.2511,1.4488,1.4488,1.6812,1.9305,1.9305,1.9305,1.9305,1.9305,1.9305,1.9305,1.9305,1.9305,1.9305,1.9305,1.9305,1.9305,1.9305,1.9305,1.9305,1.9305,1.9305,1.9305,1.9305,1.9305,1.9305,1.9305,1.9305,1.9305,1.9305,1.9305,2.0355,2.2842,2.375,2.3852,2.3035,2.2985,2.2902,2.2712,2.2712,2.2712,2.2712,2.2902,2.3126,2.3336,2.3448,2.3494,0.0,0.0,0.0,0.0,0.0,0.0,0.0,0.1202,0.0,0.0,0.0,0.0,0.0,0.0,0.3124,0.4828,0.5101,0.5103,0.0,0.0,0.0,0.0,0.0,0.0,0.5096,0.5097,0.5098,0.5097,0.5097,0.5096,0.5094,0.6757,0.8513,1.025,1.0295,1.0301,1.0305,1.0305,1.0274,1.0195,1.0131,1.0094,1.0094,1.0097,1.0095,1.0096,1.01,0.9157,0.7729,0.9402,1.0094,1.044,1.3863,1.5189,1.5209,1.5159,1.5127,1.5099,1.5133,1.4028,1.2306,1.0527,1.2105,1.4089,1.0803,1.2004,1.4488,1.4488,1.6812,1.9305,1.9305,1.9305,1.9305,1.9305,1.9305,1.9305,1.9305,1.9305,1.9305,1.9305,1.9305,1.9305,1.9305,1.9305,1.9305,1.9305,1.9305,1.9305,1.9305,1.9305,1.9305,1.9305,1.8964,1.8753,1.8753,1.8753,1.987,2.2548,2.3182,2.323,2.2712,2.2712,2.2712,2.2712,2.2712,2.2712,2.2712,2.2712,2.2995,2.3494,2.3494,2.3494,0.0,0.0,0.0,0.0,0.0,0.1514,0.0,0.0,0.0,0.0,0.0,0.0,0.0,0.0,0.0,0.0,0.0,0.0,0.0,0.0,0.0,0.0,0.0,0.0,0.5098,0.5098,0.5098,0.5098,0.5097,0.5097,0.5097,0.5093,0.639,0.9218,0.9949,1.0305,1.0305,1.0276,1.0219,1.0094,1.0094,1.0094,1.0094,1.0137,1.0121,1.0091,1.0101,1.0094,1.0094,1.0094,1.0094,1.0363,1.3132,1.4613,1.5183,1.512,1.5092,1.503,1.4422,1.2382,1.0016,0.9856,1.1583,1.3365,1.1335,1.2474,1.4488,1.4488,1.6812,1.9305,1.9305,1.9305,1.9305,1.9305,1.9305,1.9305,1.9305,1.9305,1.9305,1.9305,1.9305,1.9305,1.9305,1.9305,1.9305,1.9305,1.9305,1.9305,1.9305,1.918,1.9099,1.9099,1.9074,1.9073,1.9073,1.9073,2.0125,2.2556,2.2712,2.2712,2.2712,2.2712,2.2712,2.2712,2.2712,2.2712,2.2712,2.2712,2.2902,2.3336,2.3336,2.3336,0.0,0.0,0.0,0.0,0.227,0.0,0.0,0.0,0.0,0.0,0.0,0.0,0.0,0.0,0.0,0.0,0.0,0.0,0.4664,0.5094,0.0,0.0,0.0,0.0,0.0,0.5098,0.5095,0.5105,0.5099,0.5106,0.5106,0.5103,0.5281,0.5678,0.8685,1.0305,1.0305,1.018,1.0113,1.0094,1.0094,1.0094,1.0098,1.0228,1.02,1.0109,1.0094,1.0094,1.0094,1.0094,1.0094,1.0133,1.0536,1.2536,1.5183,1.512,1.5092,1.4679,1.171,1.0309,0.983,0.9815,1.0042,1.0806,1.3227,1.4224,1.4488,1.4488,1.6812,1.9305,1.9305,1.9305,1.9305,1.9305,1.9305,1.9305,1.9305,1.9305,1.9305,1.9305,1.9305,1.9305,1.9305,1.9305,1.9305,1.9305,1.9305,1.9305,1.9305,1.8734,1.8322,1.8322,2.0638,2.2169,2.2169,2.2169,2.2324,2.2694,2.2712,2.2712,2.2712,2.2712,2.2712,2.2712,2.2712,2.2712,2.2712,2.2712,2.2738,2.279,2.279,2.279,0.0,0.0,0.0,0.0,0.0,0.0,0.0327,0.0,0.0,0.0,0.0,0.0,0.0,0.0,0.0,0.0,0.0929,0.0,0.0,0.0,0.2147,0.0,0.0,0.0,0.0,0.0,0.0,0.0,0.3988,0.5101,0.5101,0.5101,0.5106,0.5094,0.849,1.0305,1.0305,1.0166,1.0094,1.0094,1.0094,1.0141,1.0226,1.0276,1.0232,1.0094,1.0094,1.0094,1.0094,1.0094,1.0094,1.0094,1.0094,1.0979,1.2243,1.2216,1.2192,1.2002,1.0586,0.9965,0.9801,0.9801,1.1041,1.2777,1.4095,1.4488,1.4488,1.4488,1.6812,1.9305,1.9305,1.9305,1.9305,1.9305,1.9305,1.9305,1.9305,1.9305,1.9305,1.9305,1.9305,1.9305,1.9305,1.9305,1.9305,1.9305,1.9305,1.9148,1.8716,1.8403,1.8211,1.8211,2.0918,2.2712,2.2712,2.2712,2.2712,2.2712,2.2712,2.2712,2.2712,2.2712,2.2712,2.2712,2.2712,2.2712,2.2712,2.2712,2.2985,2.3553,2.296,2.2712,0.4976,0.0,0.0,0.0,0.0,0.0,0.0,0.0,0.0,0.0,0.0,0.0,0.0,0.0,0.0,0.0,0.0,0.0,0.0,0.0,0.0,0.0,0.0,0.0,0.0,0.0,0.0,0.0,0.0,0.5101,0.5101,0.5101,0.5106,0.5094,0.7553,0.9329,1.0285,1.0166,1.0117,1.0154,1.0154,1.0215,1.0301,1.0269,1.0188,1.0094,1.0094,1.0094,1.0094,1.0094,1.0094,1.0094,1.0094,1.0109,1.0097,1.01,1.0093,1.0086,1.0039,0.9929,0.9949,1.084,1.2677,1.4488,1.4488,1.4488,1.4671,1.5582,1.7491,1.9305,1.9305,1.9305,1.9305,1.9305,1.9305,1.9305,1.9305,1.9305,1.9305,1.9305,1.9305,1.9305,1.9305,1.9305,1.9305,1.9305,1.9132,1.8807,1.8277,1.8211,1.8211,1.8211,2.0918,2.2712,2.2712,2.2712,2.2712,2.2712,2.2712,2.2712,2.2712,2.2712,2.2825,2.3109,2.3109,2.3109,2.3109,2.3109,2.3486,2.417,2.3445,2.3109,0.0,0.0,0.0,0.4935,0.0,0.0,0.0,0.0,0.0948,0.0,0.0,0.0,0.0,0.0,0.0,0.0,0.0,0.0,0.0,0.0,0.0,0.0,0.0,0.0,0.0,0.0,0.3676,0.0,0.3174,0.0,0.5101,0.5101,0.5106,0.5094,0.5211,0.6889,1.0265,1.0166,1.0166,1.0283,1.0283,1.0298,1.0307,1.0173,1.0098,1.0094,1.0094,1.0094,1.0094,1.0094,1.0094,1.0094,1.0094,1.0093,1.0101,1.0101,1.0094,1.007,0.9875,0.9808,1.0321,1.3513,1.4515,1.4488,1.4488,1.4488,1.516,1.8262,1.9216,1.9305,1.9305,1.9305,1.9305,1.9305,1.9305,1.9305,1.9305,1.9305,1.9305,1.9305,1.9305,1.9305,1.9305,1.9305,1.9305,1.9305,1.8698,1.8232,1.8211,1.8211,1.8211,1.8211,2.0918,2.2712,2.2712,2.2712,2.2712,2.2712,2.2712,2.2712,2.2712,2.2712,2.3157,2.4132,2.4151,2.4151,2.4151,2.4151,2.417,2.419,2.417,2.4151,0.0,0.0,0.5082,0.5047,0.0,0.0,0.0,0.0,0.0,0.0,0.0,0.0,0.0,0.0,0.0,0.0,0.0,0.0,0.0,0.0,0.0,0.0,0.0,0.0,0.0,0.0,0.0,0.0,0.3174,0.0,0.0,0.5108,0.5092,0.5094,0.5094,0.6772,1.0265,1.0268,1.0268,1.0305,1.0298,1.0293,1.0307,1.0167,1.0094,1.0094,1.0094,1.0094,1.0094,1.0094,1.0094,1.0094,1.0108,1.0104,1.0097,1.009,1.0016,1.0207,1.2304,1.3031,1.3263,1.46,1.4785,1.4488,1.4488,1.4488,1.5178,1.839,1.9305,1.9305,1.9305,1.9305,1.9305,1.9305,1.9305,1.9305,1.9305,1.9305,1.9305,1.9305,1.9305,1.9305,1.9305,1.9305,1.9305,1.9305,1.9099,1.893,1.893,2.0823,2.2161,2.2161,2.3076,2.3685,2.3685,2.3685,2.3685,2.3685,2.3685,2.3685,2.3685,2.3685,2.3852,2.419,2.419,2.419,2.419,2.419,2.419,2.419,2.419,2.419,0.4998,0.5023,0.0,0.5066,0.3434,0.0,0.4605,0.0,0.0,0.0,0.0,0.0,0.0,0.0,0.0,0.0,0.0,0.0,0.0,0.0,0.0,0.0,0.0,0.0,0.0,0.0,0.0,0.0,0.3174,0.0,0.0,0.0,0.5091,0.5091,0.6299,0.8036,1.028,1.0304,1.0304,1.0299,1.0293,1.0308,1.0307,1.0212,1.0145,1.0094,1.0094,1.0094,1.0094,1.0094,1.0094,1.009,1.0091,1.01,1.0086,1.002,1.064,1.1843,1.3959,1.468,1.4685,1.5045,1.4866,1.4488,1.4488,1.5307,1.6646,1.872,1.9305,1.9305,1.9305,1.9305,1.9305,1.9305,1.9305,1.9305,1.9305,1.9305,1.9305,1.9305,2.0225,2.1033,2.1033,2.1033,2.0647,1.9488,1.9305,1.9711,2.0886,2.2887,2.419,2.419,2.419,2.419,2.419,2.419,2.419,2.419,2.419,2.4034,2.3685,2.4014,2.419,2.419,2.419,2.419,2.419,2.419,2.4014,2.3664,2.3664,2.3852]}]]